[[{"header":{"parameterUnit":"m.s-1","parameterCategory":1,"la1":30.6,"la2":28.766,"lo1":-90.7593,"lo2":-88.6598,"dx":0.0162,"dy":0.0183,"nx":116,"ny":114,"refTime":"2022-12-14T06:00:00:Z","depth":0,"parameterNumber":2,"parameterNumberName":"U-component_of_WINDS"},"data":[0.0,0.0,0.0,0.0,0.0,0.0,0.0,0.0,0.0,0.0,0.0,0.0,0.0,0.0,0.0,0.0,0.0,0.0,0.0,0.0,0.0,0.0,0.0,0.0,0.0,0.0,0.0,0.0,0.0,0.0,0.0,0.0,0.0,0.0,0.0,0.0,0.0,0.0,0.0,0.0,0.0,0.0,0.0,0.0,0.0,0.0,0.0,0.0,0.0,0.0,0.0,0.0,0.0,0.0,0.0,0.0,0.0,0.0,0.0,0.0,0.0,0.0,0.0,0.0,0.0,0.0,0.0,0.0,0.0,0.0,0.0,0.0,0.0,0.0,0.0,0.0,0.0,0.0,0.0,0.0,0.0,0.0,0.0,0.0,0.0,0.0,0.0,0.0,0.0,0.0,0.0,0.0,0.0,0.0,0.0,0.0,0.0,0.0,0.0,0.0,0.0,0.0,0.0,0.0,0.0,0.0,0.0,0.0,0.0,0.0,0.0,0.0,0.0,0.0,0.0,0.0,0.0,0.0,0.0,0.0,0.0,0.0,0.0,0.0,0.0,0.0,0.0,0.0,0.0,0.0,0.0,0.0,0.0,0.0,0.0,0.0,0.0,0.0,0.0,0.0,0.0,0.0,0.0,0.0,0.0,0.0,0.0,0.0,0.0,0.0,0.0,0.0,0.0,0.0,0.0,0.0,0.0,0.0,0.0,0.0,0.0,0.0,0.0,0.0,0.0,0.0,0.0,0.0,0.0,0.0,0.0,0.0,0.0,0.0,0.0,0.0,0.0,0.0,0.0,0.0,0.0,0.0,0.0,0.0,0.0,0.0,0.0,0.0,0.0,0.0,0.0,0.0,0.0,0.0,0.0,0.0,0.0,0.0,0.0,0.0,0.0,0.0,0.0,0.0,0.0,0.0,0.0,0.0,0.0,0.0,0.0,0.0,0.0,0.0,0.0,0.0,0.0,0.0,0.0,0.0,0.0,0.0,0.0,0.0,0.0,0.0,0.0,0.0,0.0,0.0,0.0,0.0,0.0,0.0,0.0,0.0,0.0,0.0,0.0,0.0,0.0,0.0,0.0,0.0,0.0,0.0,0.0,0.0,0.0,0.0,0.0,0.0,0.0,0.0,0.0,0.0,0.0,0.0,0.0,0.0,0.0,0.0,0.0,0.0,0.0,0.0,0.0,0.0,0.0,0.0,0.0,0.0,0.0,0.0,0.0,0.0,0.0,0.0,0.0,0.0,0.0,0.0,0.0,0.0,0.0,0.0,0.0,0.0,0.0,0.0,0.0,0.0,0.0,0.0,0.0,0.0,0.0,0.0,0.0,0.0,0.0,0.0,0.0,0.0,0.0,0.0,0.0,0.0,0.0,0.0,0.0,0.0,0.0,0.0,0.0,0.0,0.0,0.0,0.0,0.0,0.0,0.0,0.0,0.0,0.0,0.0,0.0,0.0,0.0,0.0,0.0,0.0,0.0,0.0,0.0,0.0,0.0,0.0,0.0,0.0,0.0,0.0,0.0,0.0,0.0,0.0,0.0,0.0,0.0,0.0,0.0,0.0,0.0,0.0,0.0,0.0,0.0,0.0,0.0,0.0,0.0,0.0,0.0,0.0,0.0,0.0,0.0,0.0,0.0,0.0,0.0,0.0,0.0,0.0,0.0,0.0,0.0,0.0,0.0,0.0,0.0,0.0,0.0,0.0,0.0,0.0,0.0,0.0,0.0,0.0,0.0,0.0,0.0,0.0,0.0,0.0,0.0,0.0,0.0,0.0,0.0,0.0,0.0,0.0,0.0,0.0,0.0,0.0,0.0,0.0,0.0,0.0,0.0,0.0,0.0,0.0,0.0,0.0,0.0,0.0,0.0,0.0,0.0,0.0,0.0,0.0,0.0,0.0,0.0,0.0,0.0,0.0,0.0,0.0,0.0,0.0,0.0,0.0,0.0,0.0,0.0,0.0,0.0,0.0,0.0,0.0,0.0,0.0,0.0,0.0,0.0,0.0,0.0,0.0,0.0,0.0,0.0,0.0,0.0,0.0,0.0,0.0,0.0,0.0,0.0,0.0,0.0,0.0,0.0,0.0,0.0,0.0,0.0,0.0,0.0,0.0,0.0,0.0,0.0,0.0,0.0,0.0,0.0,0.0,0.0,0.0,0.0,0.0,0.0,0.0,0.0,0.0,0.0,0.0,0.0,0.0,0.0,0.0,0.0,0.0,0.0,0.0,0.0,0.0,0.0,0.0,0.0,0.0,0.0,0.0,0.0,0.0,0.0,0.0,0.0,0.0,0.0,0.0,0.0,0.0,0.0,0.0,0.0,0.0,0.0,0.0,0.0,0.0,0.0,0.0,0.0,0.0,0.0,0.0,0.0,0.0,0.0,0.0,0.0,0.0,0.0,0.0,0.0,0.0,0.0,0.0,0.0,0.0,0.0,0.0,0.0,0.0,0.0,0.0,0.0,0.0,0.0,0.0,0.0,0.0,0.0,0.0,0.0,0.0,0.0,0.0,0.0,0.0,0.0,0.0,0.0,0.0,0.0,0.0,0.0,0.0,0.0,0.0,0.0,0.0,0.0,0.0,0.0,0.0,0.0,0.0,0.0,0.0,0.0,0.0,0.0,0.0,0.0,0.0,0.0,0.0,0.0,0.0,0.0,0.0,0.0,0.0,0.0,0.0,0.0,0.0,0.0,0.0,0.0,0.0,0.0,0.0,0.0,0.0,0.0,0.0,0.0,0.0,0.0,0.0,0.0,0.0,0.0,0.0,0.0,0.0,0.0,0.0,0.0,0.0,0.0,0.0,0.0,0.0,0.0,0.0,0.0,0.0,0.0,0.0,0.0,0.0,0.0,0.0,0.0,0.0,0.0,0.0,0.0,0.0,0.0,0.0,0.0,0.0,0.0,0.0,0.0,0.0,0.0,0.0,0.0,0.0,0.0,0.0,0.0,0.0,0.0,0.0,0.0,0.0,0.0,0.0,0.0,0.0,0.0,0.0,0.0,0.0,0.0,0.0,0.0,0.0,0.0,0.0,0.0,0.0,0.0,0.0,0.0,0.0,0.0,0.0,0.0,0.0,0.0,0.0,0.0,0.0,0.0,0.0,0.0,0.0,0.0,0.0,0.0,0.0,0.0,0.0,0.0,0.0,0.0,0.0,0.0,0.0,0.0,0.0,0.0,0.0,0.0,0.0,0.0,0.0,0.0,0.0,0.0,0.0,0.0,0.0,0.0,0.0,0.0,0.0,0.0,0.0,0.0,0.0,0.0,0.0,0.0,0.0,0.0,0.0,0.0,0.0,0.0,0.0,0.0,0.0,0.0,0.0,0.0,0.0,0.0,0.0,0.0,0.0,0.0,0.0,0.0,0.0,0.0,0.0,0.0,0.0,0.0,0.0,0.0,0.0,0.0,0.0,0.0,0.0,0.0,0.0,0.0,0.0,0.0,0.0,0.0,0.0,0.0,0.0,0.0,0.0,0.0,0.0,0.0,0.0,0.0,0.0,0.0,0.0,0.0,0.0,0.0,0.0,0.0,0.0,0.0,0.0,0.0,0.0,0.0,0.0,0.0,0.0,0.0,0.0,0.0,0.0,0.0,0.0,0.0,0.0,0.0,0.0,0.0,0.0,0.0,0.0,0.0,0.0,0.0,0.0,0.0,0.0,0.0,0.0,0.0,0.0,0.0,0.0,0.0,0.0,0.0,0.0,0.0,0.0,0.0,0.0,0.0,0.0,0.0,0.0,0.0,0.0,0.0,0.0,0.0,0.0,0.0,0.0,0.0,0.0,0.0,0.0,0.0,0.0,0.0,0.0,0.0,0.0,0.0,0.0,0.0,0.0,0.0,0.0,0.0,0.0,0.0,0.0,0.0,0.0,0.0,0.0,0.0,0.0,0.0,0.0,0.0,0.0,0.0,0.0,0.0,0.0,0.0,0.0,0.0,0.0,0.0,0.0,0.0,0.0,0.0,0.0,0.0,0.0,0.0,0.0,0.0,0.0,0.0,0.0,0.0,0.0,0.0,0.0,0.0,0.0,0.0,0.0,0.0,0.0,0.0,0.0,0.0,0.0,0.0,0.0,0.0,0.0,0.0,0.0,0.0,0.0,0.0,0.0,0.0,0.0,0.0,0.0,0.0,0.0,0.0,0.0,0.0,0.0,0.0,0.0,0.0,0.0,0.0,0.0,0.0,0.0,0.0,0.0,0.0,0.0,0.0,0.0,0.0,0.0,0.0,0.0,0.0,0.0,0.0,0.0,0.0,0.0,0.0,0.0,0.0,0.0,0.0,0.0,0.0,0.0,0.0,0.0,0.0,0.0,0.0,0.0,0.0,0.0,0.0,0.0,0.0,0.0,0.0,0.0,0.0,0.0,0.0,0.0,0.0,0.0,0.0,0.0,0.0,0.0,0.0,0.0,0.0,0.0,0.0,0.0,0.0,0.0,0.0,0.0,0.0,0.0,0.0,0.0,0.0,0.0,0.0,0.0,0.0,0.0,0.0,0.0,0.0,0.0,0.0,0.0,0.0,0.0,0.0,0.0,0.0,0.0,0.0,0.0,0.0,0.0,0.0,0.0,0.0,0.0,0.0,0.0,0.0,0.0,0.0,0.0,0.0,0.0,0.0,0.0,0.0,0.0,0.0,0.0,0.0,0.0,0.0,0.0,0.0,0.0,0.0,0.0,0.0,0.0,0.0,0.0,0.0,0.0,0.0,0.0,0.0,0.0,0.0,0.0,0.0,0.0,0.0,0.0,0.0,0.0,0.0,0.0,0.0,0.0,0.0,0.0,0.0,0.0,0.0,0.0,0.0,0.0,0.0,0.0,0.0,0.0,0.0,0.0,0.0,0.0,0.0,0.0,0.0,0.0,0.0,0.0,0.0,0.0,0.0,0.0,0.0,0.0,0.0,0.0,0.0,0.0,0.0,0.0,0.0,0.0,0.0,0.0,0.0,0.0,0.0,0.0,0.0,0.0,0.0,0.0,0.0,0.0,0.0,0.0,0.0,0.0,0.0,0.0,0.0,0.0,0.0,0.0,0.0,0.0,0.0,0.0,0.0,0.0,0.0,0.0,0.0,0.0,0.0,0.0,0.0,0.0,0.0,0.0,0.0,0.0,0.0,0.0,0.0,0.0,0.0,0.0,0.0,0.0,0.0,0.0,0.0,0.0,0.0,0.0,0.0,0.0,0.0,0.0,0.0,0.0,0.0,0.0,0.0,0.0,0.0,0.0,0.0,0.0,0.0,0.0,0.0,0.0,0.0,0.0,0.0,0.0,0.0,0.0,0.0,0.0,0.0,0.0,0.0,0.0,0.0,0.0,0.0,0.0,0.0,0.0,0.0,0.0,0.0,0.0,0.0,0.0,0.0,0.0,0.0,0.0,0.0,0.0,0.0,0.0,0.0,0.0,0.0,0.0,0.0,0.0,0.0,0.0,0.0,0.0,0.0,0.0,0.0,0.0,0.0,0.0,0.0,0.0,0.0,0.0,0.0,0.0,0.0,0.0,0.0,0.0,0.0,0.0,0.0,0.0,0.0,0.0,0.0,0.0,0.0,0.0,0.0,0.0,0.0,0.0,0.0,0.0,0.0,0.0,0.0,0.0,0.0,0.0,0.0,0.0,0.0,0.0,0.0,0.0,0.0,0.0,0.0,0.0,0.0,0.0,0.0,0.0,0.0,0.0,0.0,0.0,0.0,0.0,0.0,0.0,0.0,0.0,0.0,0.0,0.0,0.0,0.0,0.0,0.0,0.0,0.0,0.0,0.0,0.0,0.0,0.0,0.0,0.0,0.0,0.0,0.0,0.0,0.0,0.0,0.0,0.0,0.0,0.0,0.0,0.0,0.0,0.0,0.0,0.0,0.0,0.0,0.0,0.0,0.0,0.0,0.0,0.0,0.0,0.0,0.0,0.0,0.0,0.0,0.0,0.0,0.0,0.0,0.0,0.0,0.0,0.0,0.0,0.0,0.0,0.0,0.0,0.0,0.0,0.0,0.0,0.0,0.0,0.0,0.0,0.0,0.0,0.0,0.0,0.0,0.0,0.0,0.0,0.0,0.0,0.0,0.0,0.0,0.0,0.0,0.0,0.0,0.0,0.0,0.0,0.0,0.0,0.0,4.0158,4.0474,0.0,0.0,0.0,0.0,0.0,0.0,0.0,0.0,0.0,0.0,0.0,0.0,0.0,0.0,0.0,0.0,0.0,0.0,0.0,0.0,0.0,0.0,0.0,2.6652,2.7581,2.8315,2.8418,0.0,0.0,0.0,0.0,0.0,0.0,0.0,0.0,0.0,2.6369,2.6733,2.7284,2.7743,2.8018,2.6273,2.6138,2.7303,0.0,0.0,0.0,0.0,0.0,0.0,0.0,0.0,0.0,0.0,0.0,0.0,0.0,0.0,0.0,0.0,0.0,0.0,0.0,0.0,0.0,0.0,0.0,0.0,0.0,0.0,0.0,0.0,0.0,0.0,0.0,0.0,0.0,0.0,0.0,0.0,0.0,0.0,0.0,0.0,0.0,0.0,0.0,0.0,0.0,0.0,0.0,0.0,0.0,0.0,0.0,0.0,0.0,0.0,0.0,0.0,0.0,0.0,0.0,0.0,0.0,0.0,0.0,0.0,0.0,0.0,0.0,0.0,0.0,0.0,4.2962,4.2358,0.0,0.0,0.0,0.0,0.0,0.0,0.0,0.0,0.0,0.0,0.0,0.0,0.0,0.0,0.0,0.0,0.0,0.0,0.0,0.0,0.0,2.4293,2.5545,2.6894,2.8098,2.9096,2.8404,2.7931,2.8081,2.709,0.0,0.0,0.0,0.0,2.6402,2.6402,2.6737,2.7374,2.7772,2.7944,2.7871,2.6328,2.6638,2.8472,2.7876,0.0,0.0,0.0,0.0,0.0,0.0,0.0,0.0,0.0,0.0,0.0,0.0,0.0,0.0,0.0,0.0,0.0,0.0,0.0,0.0,0.0,0.0,0.0,0.0,0.0,0.0,0.0,0.0,0.0,0.0,0.0,0.0,0.0,0.0,0.0,0.0,0.0,0.0,0.0,0.0,0.0,0.0,0.0,0.0,0.0,0.0,0.0,0.0,0.0,0.0,0.0,0.0,0.0,0.0,0.0,0.0,0.0,0.0,0.0,0.0,0.0,0.0,0.0,4.3265,4.4414,4.4443,4.3973,4.4041,4.449,4.4555,4.315,4.0832,4.1459,0.0,0.0,0.0,0.0,0.0,0.0,0.0,0.0,0.0,0.0,0.0,0.0,0.0,0.0,0.0,0.0,0.0,0.0,0.0,2.4336,2.4859,2.7499,2.9523,3.0315,3.0245,2.9936,2.9317,2.8254,0.0,0.0,0.0,0.0,2.7168,2.7168,2.7348,2.7702,2.8117,2.8493,2.873,2.8508,2.886,2.9691,2.7883,2.7895,2.926,0.0,0.0,0.0,0.0,0.0,0.0,0.0,0.0,0.0,0.0,0.0,0.0,0.0,0.0,0.0,0.0,0.0,0.0,0.0,0.0,0.0,0.0,0.0,0.0,0.0,0.0,0.0,0.0,0.0,0.0,0.0,0.0,0.0,0.0,0.0,0.0,0.0,0.0,0.0,0.0,0.0,3.3244,3.4061,0.0,0.0,0.0,0.0,0.0,0.0,0.0,0.0,0.0,0.0,0.0,0.0,0.0,3.9694,3.9963,4.2097,4.317,4.3126,4.3541,4.3743,4.3729,4.4226,4.4293,4.3987,4.4451,0.0,4.3572,4.2483,0.0,0.0,0.0,0.0,0.0,0.0,0.0,0.0,0.0,0.0,0.0,0.0,0.0,0.0,0.0,0.0,0.0,0.0,0.0,0.0,0.0,2.7777,2.9619,3.0779,3.0726,3.0177,2.9246,2.8389,0.0,0.0,0.0,2.7131,2.7898,2.7533,2.7593,2.8117,2.8493,2.9076,2.9787,2.96,2.9792,3.0229,2.9383,2.9254,2.9748,2.991,0.0,0.0,0.0,0.0,0.0,0.0,0.0,0.0,0.0,0.0,0.0,0.0,0.0,0.0,0.0,0.0,0.0,0.0,0.0,0.0,0.0,0.0,0.0,0.0,0.0,0.0,0.0,0.0,0.0,0.0,0.0,0.0,0.0,0.0,0.0,0.0,0.0,0.0,0.0,3.3939,3.4798,3.6415,3.7552,3.8238,0.0,0.0,0.0,0.0,0.0,0.0,0.0,0.0,0.0,4.131,4.2088,4.1544,3.9673,4.2266,4.3571,4.3573,4.3614,4.3614,4.358,4.3914,4.4307,4.4716,4.4733,4.4926,4.5094,4.3833,4.297,4.2523,0.0,0.0,0.0,0.0,4.2434,4.2445,0.0,0.0,0.0,0.0,0.0,0.0,0.0,0.0,0.0,0.0,0.0,0.0,2.6353,2.8181,2.978,3.1021,3.0677,3.0067,2.9231,2.8279,2.7595,2.73,2.7135,2.7466,2.8395,2.8052,2.8043,2.8527,2.8768,2.9315,3.011,2.9951,3.0056,3.036,3.0455,3.0286,3.0021,3.0197,2.966,2.8685,0.0,0.0,0.0,0.0,0.0,0.0,0.0,0.0,0.0,0.0,0.0,0.0,0.0,0.0,0.0,0.0,0.0,0.0,0.0,0.0,0.0,0.0,0.0,0.0,0.0,0.0,0.0,0.0,0.0,0.0,0.0,0.0,0.0,0.0,0.0,0.0,0.0,3.5509,3.6122,3.8453,3.8968,3.932,0.0,0.0,0.0,0.0,0.0,0.0,4.2286,4.2802,4.2825,4.2232,4.3394,4.2865,4.0435,4.2535,4.3606,4.3628,4.3946,4.4138,4.3959,4.4012,4.4597,4.5463,4.5097,4.5363,4.5868,4.5068,4.4298,4.3714,4.3714,4.3714,4.3714,4.3714,4.3623,4.3672,0.0,0.0,0.0,0.0,0.0,0.0,0.0,0.0,0.0,0.0,0.0,2.6372,2.6489,2.8834,3.0583,3.1055,3.0412,3.001,2.9939,2.8289,2.73,2.73,2.6634,2.6932,2.8395,2.8999,2.9144,2.8895,2.886,2.8928,2.9,2.9351,2.9693,3.0051,3.0347,3.0317,3.0056,3.0723,3.0974,3.0842,3.0948,0.0,0.0,0.0,0.0,0.0,0.0,0.0,0.0,0.0,0.0,0.0,0.0,0.0,0.0,0.0,0.0,0.0,0.0,0.0,0.0,0.0,0.0,0.0,0.0,0.0,0.0,0.0,0.0,0.0,0.0,0.0,0.0,0.0,0.0,0.0,0.0,0.0,0.0,3.9343,3.9177,0.0,0.0,0.0,0.0,4.1774,4.2512,4.2948,4.2925,4.2812,4.2318,4.1493,4.2095,4.2717,4.3381,4.3514,4.3614,4.3628,4.5023,4.5424,4.5042,4.5196,4.5496,4.5777,4.5324,4.5424,4.5844,4.5868,4.5834,4.5678,4.5678,4.5678,4.5678,4.5678,4.5616,4.5678,0.0,0.0,0.0,2.6514,2.5979,2.5551,2.4801,2.4665,2.4717,2.4906,2.6541,2.753,2.7086,2.9068,3.048,3.0335,3.0658,3.0556,2.9854,2.8871,2.8148,2.7916,2.7259,2.7131,2.7699,2.7925,2.8249,2.8562,2.8802,2.9386,3.0317,3.1011,3.1219,3.1133,3.1497,3.1288,3.0722,3.0698,3.0587,3.0403,3.0842,3.0972,0.0,0.0,0.0,0.0,0.0,0.0,0.0,0.0,0.0,0.0,0.0,0.0,0.0,0.0,0.0,0.0,0.0,0.0,0.0,0.0,0.0,0.0,0.0,0.0,0.0,0.0,0.0,0.0,0.0,0.0,0.0,0.0,0.0,0.0,0.0,0.0,0.0,4.0546,4.0234,0.0,4.1466,4.151,4.1765,4.2523,4.239,4.2434,4.2756,4.2665,4.2617,4.2825,4.2999,4.3289,4.3639,4.547,4.5939,4.5003,4.5829,4.5967,4.5545,4.5142,4.5479,4.6477,4.5839,4.6238,4.7206,4.727,4.6706,4.5781,4.5781,4.5781,4.5781,4.5781,4.6079,4.651,0.0,0.0,0.0,2.605,2.58,2.5551,2.4801,2.5296,2.5847,2.6316,2.7764,2.8494,2.7814,2.9262,3.0156,2.9811,3.0292,3.0381,2.9902,2.9048,2.861,2.8563,2.7987,2.7466,2.6932,2.7657,2.8215,2.8596,2.9317,3.0214,3.1324,3.1706,3.1768,3.1507,3.1657,3.1393,3.0891,3.062,3.0514,3.0576,3.0744,3.0983,3.1272,0.0,0.0,0.0,0.0,0.0,0.0,0.0,0.0,0.0,0.0,0.0,0.0,0.0,0.0,0.0,0.0,0.0,0.0,0.0,0.0,0.0,0.0,0.0,0.0,0.0,0.0,0.0,0.0,0.0,0.0,0.0,0.0,0.0,0.0,3.9362,3.9707,4.1631,4.1233,4.1355,4.2608,4.2309,4.2322,4.2902,4.2735,4.2745,4.3098,4.2916,4.3115,4.3614,4.3568,4.4085,4.5076,4.6535,4.6843,4.6057,4.6433,4.6308,4.5781,4.5284,4.5582,4.6477,4.5748,4.6113,4.7272,4.7272,4.6676,4.5847,4.6344,4.6543,4.6543,4.6543,4.6841,4.7239,0.0,0.0,2.6764,2.5979,2.5836,2.5622,2.4873,2.5756,2.6679,2.7109,2.8523,2.9247,2.8632,2.9379,2.9816,2.947,2.9255,2.9452,3.014,2.8944,2.853,2.9222,2.8682,2.7694,2.627,2.8355,2.9247,2.8926,3.0352,3.1289,3.1694,3.1317,3.1123,3.1083,3.0716,3.0543,3.0543,3.0609,3.104,3.1593,3.0832,3.1404,3.2564,0.0,0.0,0.0,0.0,0.0,0.0,0.0,0.0,0.0,0.0,0.0,0.0,0.0,0.0,0.0,0.0,0.0,0.0,0.0,0.0,0.0,0.0,0.0,0.0,0.0,0.0,0.0,0.0,0.0,0.0,0.0,0.0,0.0,4.0434,4.0567,4.1133,4.2565,4.2132,4.1886,4.2469,4.265,4.2798,4.2832,4.3498,4.3898,4.3898,4.3721,4.3568,4.3568,4.3586,4.5042,4.795,4.6524,4.6043,4.65,4.6739,4.6477,4.5781,4.5781,4.5781,4.5748,4.5019,4.5119,4.5781,4.5781,4.5814,4.6013,4.7404,4.7934,4.7934,4.7934,4.7968,4.7868,2.82,2.8049,2.762,2.68,2.6657,2.6586,2.6407,2.665,2.726,2.8277,2.8991,2.9113,2.8322,2.9374,2.9694,2.8727,2.9288,2.9794,2.9989,2.9279,2.8556,2.7888,2.7694,2.7433,2.6998,2.7584,2.8508,2.9668,3.0094,3.0643,3.1278,3.147,3.124,3.0708,3.1415,3.16,3.1361,3.2431,3.2994,3.3094,3.1835,3.157,3.1901,0.0,0.0,0.0,0.0,0.0,0.0,0.0,0.0,0.0,0.0,0.0,0.0,0.0,0.0,0.0,0.0,0.0,0.0,0.0,0.0,0.0,0.0,0.0,0.0,0.0,0.0,0.0,0.0,0.0,0.0,0.0,3.9719,4.0005,3.9727,4.0105,4.0602,4.1,4.1299,4.1763,4.2435,4.2535,4.2792,4.3356,4.3588,4.3687,4.3687,4.3641,4.3586,4.3586,4.36,4.5028,4.7967,4.6562,4.6043,4.65,4.6208,4.598,4.5781,4.5251,4.5284,4.5748,4.5019,4.5119,4.5781,4.5781,4.6411,4.7338,4.6643,4.6378,4.6378,4.6378,4.6742,4.7338,2.82,2.7942,2.7549,2.7085,2.6978,2.6978,2.6978,2.7157,2.7798,2.9171,2.9536,2.9444,2.8833,2.9799,2.9997,2.8844,2.8999,2.9335,2.9629,2.9312,2.8681,2.7717,2.8025,2.8025,2.7798,2.8181,2.8862,2.9738,3.0387,3.0836,3.1123,3.1355,3.137,3.1224,3.1742,3.215,3.2597,3.3425,3.3955,3.4187,3.3326,3.3193,3.3458,3.3458,3.2994,3.2299,3.2,3.1967,3.21,3.2199,0.0,0.0,0.0,0.0,0.0,0.0,0.0,0.0,0.0,0.0,0.0,0.0,0.0,0.0,0.0,0.0,0.0,0.0,0.0,0.0,0.0,0.0,0.0,0.0,4.0083,4.0315,4.0183,4.0812,4.1276,4.1276,4.1905,4.2502,4.2932,4.2965,4.3164,4.3595,4.3628,4.3602,4.3608,4.3586,4.4174,4.5379,4.5425,4.595,4.7087,4.6242,4.5917,4.6205,4.5943,4.5616,4.5317,4.4887,4.492,4.5317,4.4887,4.5284,4.6245,4.6245,4.6941,4.7901,0.0,0.0,0.0,0.0,4.7901,4.8398,2.82,2.762,2.7121,2.7121,2.7049,2.7014,2.7121,2.7402,2.8217,2.9839,2.9906,2.9843,2.9894,3.0351,3.0318,2.9452,2.8728,2.8603,2.9222,2.9231,2.8936,2.8326,2.9006,2.9118,2.8522,2.9475,2.9811,2.9549,3.0938,3.1432,3.1044,3.1151,3.1556,3.215,3.1941,3.263,3.3922,3.4087,3.4551,3.5148,3.5313,3.5578,3.5876,3.5876,3.5479,3.4816,3.4154,3.3557,3.2961,3.2431,0.0,0.0,0.0,0.0,0.0,0.0,0.0,0.0,0.0,0.0,0.0,0.0,0.0,0.0,0.0,0.0,0.0,0.0,0.0,0.0,0.0,0.0,0.0,0.0,4.0547,4.0845,4.1442,4.217,4.2601,4.2535,4.3164,4.3628,4.3628,4.3628,4.3628,4.3628,4.3568,4.3608,4.3591,4.3596,0.0,0.0,0.0,4.6969,4.5814,4.5659,4.5593,4.5649,4.5582,4.5251,4.4688,4.4688,4.4787,4.4953,4.4953,4.5715,4.7007,4.7007,4.7504,4.8233,4.8067,4.8796,4.9988,5.0055,5.0088,5.0121,2.82,2.8057,2.7977,2.7977,2.7442,2.7228,2.787,2.7495,2.7931,3.0137,2.9325,2.9195,3.0949,3.0311,2.9764,2.9844,2.9415,2.9083,2.9074,2.9639,2.9723,2.9083,2.927,2.935,2.9218,2.943,2.9762,3.0311,3.0897,3.1004,3.0634,3.1564,3.1858,3.1755,3.2907,3.3856,3.475,3.5976,3.6539,3.6771,3.7963,3.7102,3.5114,3.5114,3.5015,3.4883,3.475,3.4982,3.5446,3.5876,3.5843,3.5711,3.6439,3.6373,0.0,0.0,0.0,0.0,0.0,0.0,0.0,0.0,0.0,0.0,0.0,0.0,0.0,0.0,0.0,0.0,0.0,0.0,0.0,4.111,4.1707,4.2137,4.2303,4.2932,4.3197,4.2601,4.3164,4.3628,4.3628,4.3628,4.3628,4.3628,4.3581,4.3619,4.3591,4.3611,4.4943,4.791,4.5662,4.4913,4.5781,4.4636,4.4339,4.4887,4.4324,0.0,4.4688,4.4688,4.5351,4.6477,4.6477,4.6974,4.7802,4.7802,4.8564,4.9657,4.8465,4.8166,4.8498,4.9094,4.9326,4.9491,2.8798,2.8485,2.82,2.82,2.787,2.7763,2.8128,2.787,2.8298,3.0261,2.9833,2.9946,3.1453,3.0888,3.0347,3.0145,2.9502,2.8887,2.8396,2.9172,2.969,2.9765,2.9898,2.998,2.998,2.998,3.0145,3.051,3.0885,3.1086,3.1073,3.1825,3.2353,3.2729,3.3458,3.4419,3.5512,3.6241,3.6771,3.7201,3.8295,3.7864,3.6605,3.6936,3.687,3.6506,3.6141,3.6241,3.6539,3.6539,3.6804,3.7168,3.7533,3.7665,3.7798,0.0,0.0,0.0,0.0,0.0,0.0,0.0,0.0,0.0,0.0,0.0,0.0,0.0,0.0,4.005,4.0779,0.0,4.1143,4.1839,4.227,4.2634,4.3032,4.3396,4.3495,4.3098,4.3396,4.3628,4.3628,4.3628,4.3602,4.3581,4.3619,4.3629,4.3611,4.3583,4.4976,4.7918,4.517,4.3968,4.4698,4.3981,4.3976,4.4688,4.4324,4.4721,4.5781,4.5781,4.6609,4.8001,4.8001,4.863,4.9657,5.0055,5.0618,5.1181,5.0088,4.9856,5.0253,5.0618,5.075,5.085,2.9405,2.8762,2.82,2.82,2.82,2.8227,2.8227,2.8227,2.8762,3.0332,3.0404,3.0725,3.1796,3.1497,3.0811,2.991,2.935,2.8686,2.781,2.8747,2.9625,3.0215,3.0384,3.051,3.051,3.051,3.051,3.051,3.0972,3.134,3.1636,3.2244,3.2937,3.3789,3.3955,3.475,3.6009,3.6009,3.634,3.697,3.7698,3.7996,3.8063,3.8791,3.8739,3.8275,3.7628,3.743,3.7331,3.6787,3.7382,3.8375,3.8427,3.8825,3.9454,4.0315,4.015,0.0,0.0,0.0,0.0,0.0,0.0,0.0,0.0,4.1872,4.1442,4.0713,4.058,4.0779,4.1508,4.164,4.1872,4.2601,4.2734,4.2932,4.3529,4.3628,4.3628,4.3628,4.3628,4.3628,4.3628,4.3761,4.374,4.3591,4.3883,4.3896,4.362,4.4131,4.5296,4.7098,4.4808,4.3732,4.4009,4.385,4.4141,4.492,4.5052,4.5814,4.7106,4.7272,4.8067,4.9326,4.9458,5.0187,5.1313,5.191,5.2075,5.191,5.1313,5.1446,5.1943,5.1943,5.1943,5.1943,2.9405,2.8762,2.82,2.82,2.82,2.8227,2.8273,2.8219,2.8798,3.0456,3.0005,3.0332,3.2541,3.1355,2.9811,2.8322,2.8982,2.9065,2.8043,2.9371,3.0276,3.0375,3.0426,3.051,3.051,3.051,3.051,3.051,3.1215,3.158,3.1626,3.2973,3.3669,3.3822,3.4485,3.5214,3.6009,3.6009,3.6042,3.6208,3.6936,3.7235,3.7301,3.7873,3.8447,3.8908,3.8701,3.8614,3.8614,3.8623,3.8776,3.8908,3.9102,3.9222,3.9553,4.0912,4.1243,4.1342,4.217,4.227,4.2038,4.164,4.2469,4.2899,0.0,4.1541,4.2204,4.1442,4.1309,4.1508,4.227,4.2402,4.2634,4.3396,4.3495,4.3529,4.3628,4.3628,4.3628,4.3628,4.3628,4.3628,4.3628,4.4191,4.4329,4.3624,4.483,4.4999,4.3676,4.6076,4.6429,4.4146,4.3756,4.4235,4.553,4.4882,4.4953,4.5682,4.6344,4.7073,4.7901,4.8564,4.9326,5.0121,5.075,5.1115,5.128,5.138,5.1015,5.0452,5.0386,5.0386,5.0452,5.0452,5.0452,5.0452,3.0177,2.9826,2.9547,2.9547,2.9191,2.8933,2.898,2.8953,2.9203,2.994,2.9725,3.0234,3.2163,3.1648,3.0623,2.9207,2.9868,3.0302,3.0027,3.0673,3.1133,3.1399,3.1039,3.0757,3.051,3.0757,3.0723,3.051,3.1491,3.2017,3.2266,3.3292,3.4021,3.4452,3.475,3.5081,3.5346,3.5346,3.5611,3.6075,3.6804,3.7367,3.7779,3.8368,3.8722,3.8876,3.8788,3.8788,0.0,3.8843,3.8843,3.8843,3.8535,3.8439,3.8821,4.0652,4.0365,3.9675,4.0932,4.2177,4.3098,4.2767,4.2833,4.2866,4.2369,4.2402,4.2303,4.1574,4.1409,4.1508,4.1806,4.2237,4.2634,4.2932,4.333,4.3628,4.3628,4.3628,4.3628,4.3628,4.3992,4.4092,4.3661,4.4655,4.5185,4.4915,4.5479,4.5131,4.3676,4.4735,4.4892,4.3637,4.4434,4.5147,4.5773,4.5512,4.5914,4.7073,4.7404,4.8166,4.9293,4.9624,4.9922,5.022,5.0518,5.0651,5.0651,5.0651,5.0485,5.0187,4.9756,4.9823,5.022,5.022,5.022,5.022,3.0378,3.0492,3.0612,3.0826,3.0398,2.9926,2.9582,2.951,2.9538,2.962,2.9593,3.0104,3.1505,3.1733,3.123,2.9772,3.0482,3.1081,3.1242,3.1448,3.1781,3.2292,3.1568,3.0965,3.0675,3.0965,3.0885,3.051,3.1858,3.2606,3.2917,3.3748,3.4479,3.5118,3.493,3.4883,3.4883,3.4883,3.5214,3.5744,3.6274,3.7069,3.7911,3.8249,3.8438,3.8526,3.8439,3.8384,3.8384,3.8243,3.8275,3.8384,3.7963,3.8066,3.8799,4.0776,4.0518,3.9826,4.1238,4.2413,4.3363,4.3562,4.3065,4.2667,4.3197,4.2734,4.2071,4.1508,4.1409,4.1475,4.1674,4.217,4.2601,4.28,4.3264,4.3628,4.3628,4.3628,4.3694,4.3893,4.4556,4.4721,4.3992,4.5052,4.5777,4.5829,4.5773,4.5189,4.3702,4.3563,4.4009,4.4801,4.5829,4.6419,4.6374,4.6242,4.6742,4.8001,4.8199,4.8862,4.9922,4.9922,5.0021,5.0187,4.9988,5.0021,5.022,5.022,5.022,5.0154,4.9624,4.9756,5.022,5.022,5.022,5.022,2.9601,3.022,3.0915,3.1631,3.1739,3.1267,2.9817,2.9593,2.962,2.9701,2.962,2.9861,3.0664,3.1381,3.1016,2.9097,3.0264,3.0939,3.0628,3.1317,3.2076,3.2835,3.1764,3.1083,3.1083,3.1083,3.0885,3.051,3.2362,3.3322,3.3389,3.4384,3.5131,3.5588,3.5118,3.4883,3.4883,3.4883,3.4916,3.4949,3.4949,3.5843,3.7084,3.6795,3.715,3.7806,3.7579,3.7449,3.7242,3.6776,3.6971,3.7579,3.7719,3.8756,4.0132,4.1639,4.2643,4.3388,4.4329,4.3595,4.2734,4.3462,4.3065,4.2535,4.2535,4.1972,4.1442,4.1409,4.1409,4.164,4.2336,4.2502,4.2767,4.3462,4.3628,4.3628,4.3628,4.3628,4.3893,4.4589,4.5317,4.5483,4.4721,4.5351,4.5781,4.5781,4.5801,4.5142,4.3657,4.3608,4.4897,4.7815,4.7882,4.79,4.7958,4.7234,4.7239,4.8001,4.873,4.9094,4.9127,4.9127,4.9525,5.0187,4.9458,4.9558,5.022,5.022,5.022,5.022,5.0187,5.0187,5.022,5.022,5.022,5.022,3.0548,3.1427,3.2373,3.2624,3.2721,3.2457,3.1412,3.0828,3.0279,2.9853,3.0695,0.0,0.0,0.0,0.0,0.0,3.2058,3.2278,3.2115,3.2362,3.251,3.2511,3.2124,3.1768,3.1507,3.1768,3.1694,3.1317,3.2901,3.3733,3.3802,3.4554,3.5165,3.5588,3.5118,3.4883,3.4883,3.4883,3.5181,3.5644,3.5644,3.6208,3.7201,3.8058,3.7887,3.7275,0.0,3.7318,3.6627,3.6495,3.656,3.6766,3.6892,3.7653,3.8799,4.0345,4.2402,4.3953,4.3444,4.2933,4.2568,4.2833,4.2336,4.1773,4.1773,4.1607,4.1409,4.1409,4.1806,4.2237,4.2469,4.2932,4.333,4.3595,4.3628,4.3794,4.4257,4.4324,4.4589,4.5317,4.6079,4.6245,4.5483,4.6079,4.5914,4.4456,4.5236,4.5142,4.3657,4.3586,4.492,4.7914,4.7981,4.7988,4.8032,4.7768,4.8001,4.873,4.9389,4.9523,4.9094,4.8988,4.8888,4.8763,4.8995,4.926,4.9558,5.0518,5.0651,5.0253,5.0717,5.0916,5.0916,5.0916,5.1247,5.1512,3.1028,3.2126,3.3183,3.3183,3.3244,0.0,0.0,0.0,0.0,0.0,0.0,0.0,0.0,0.0,0.0,0.0,0.0,3.2993,3.2961,3.2961,3.2977,3.2962,3.2579,3.2197,3.1913,3.2162,3.2231,3.2145,3.3313,3.415,3.4658,3.5013,3.5498,3.6037,3.5407,3.5165,3.5165,3.4977,3.5479,3.634,3.581,3.6373,3.7533,3.7911,3.743,0.0,3.6979,3.6476,3.5682,3.5701,3.6078,3.6515,3.6561,3.7653,3.9224,4.0886,4.2659,4.3854,4.2855,4.2571,4.2469,4.2204,4.1574,4.111,4.1375,4.1153,4.1054,4.1375,4.1947,4.2543,4.2808,4.3297,4.3794,4.4324,4.439,4.4556,4.5019,4.5317,4.5649,4.6146,4.6378,4.6311,4.5847,4.6109,4.5744,4.4511,4.4809,4.4622,4.3624,4.4627,4.6038,4.7958,4.8025,4.7996,4.8001,4.8227,4.8684,4.9345,4.9718,4.9752,4.9345,4.9328,4.9207,4.9125,4.9692,5.0021,5.0353,5.128,5.1413,5.1015,5.1479,5.1678,5.1678,5.1678,5.1976,5.2241,3.1075,3.2285,3.331,0.0,0.0,0.0,0.0,0.0,0.0,0.0,0.0,0.0,0.0,0.0,0.0,0.0,0.0,0.0,3.3081,3.305,3.3378,3.4067,3.3027,3.2403,3.2405,3.2405,3.2616,3.3017,3.3701,3.4623,3.5817,3.5702,3.6079,3.686,3.6037,3.5633,3.5588,3.5118,3.5759,3.687,3.5446,3.6174,3.7897,3.6422,3.5844,3.5811,3.5727,3.5267,3.4595,3.4562,3.5545,3.6842,3.694,3.8876,4.1369,4.296,4.3355,4.3218,4.2642,4.2469,4.2237,4.1574,4.0912,4.0547,4.1243,4.0767,4.039,4.1319,4.1964,4.2664,4.3602,4.3761,4.4191,4.5582,4.5715,4.5715,4.5781,4.6378,4.6841,4.6908,4.6278,4.5814,4.5748,4.5374,4.5269,4.569,4.4395,4.3657,4.3817,4.6491,4.8015,4.8125,4.8058,4.8061,4.8099,4.8702,4.9214,4.9804,4.9838,4.9873,4.9849,5.0005,5.0473,5.1054,5.126,5.1748,5.2378,5.2549,5.2549,5.2445,5.2478,5.2478,5.2373,5.2373,5.2373,5.2373,0.0,0.0,0.0,0.0,0.0,0.0,0.0,0.0,0.0,0.0,0.0,0.0,0.0,0.0,0.0,0.0,0.0,0.0,3.2319,3.2793,3.2942,3.2577,3.2751,3.3152,3.3788,3.3723,3.4082,3.4831,3.526,3.5791,3.6469,3.6277,3.6498,3.7013,3.6374,3.5864,3.5588,3.5453,3.5459,3.5446,3.5048,3.5247,3.581,3.6489,3.6423,3.6092,3.7133,3.7067,3.6373,3.5712,3.6781,3.8623,3.982,4.104,4.2202,4.3244,4.3112,4.2591,4.251,4.1626,4.0809,4.1253,4.0912,4.058,4.1106,4.1082,4.1255,4.2446,4.3361,4.4311,4.5626,4.5553,4.5351,4.5715,4.4887,4.4556,4.5649,4.5947,4.6278,4.6841,4.6709,4.6179,4.5086,4.5243,4.5102,4.4202,4.3817,4.4533,4.6786,4.7588,4.8523,4.9626,4.9177,4.9068,4.951,4.9521,4.9629,4.9804,5.085,5.0899,4.9977,5.1097,5.1138,5.0492,5.1564,5.2135,5.2438,5.409,5.4092,5.3179,5.3751,5.3302,5.2373,5.2373,5.2373,5.2373,0.0,0.0,0.0,0.0,0.0,0.0,0.0,0.0,0.0,0.0,0.0,0.0,0.0,0.0,0.0,0.0,0.0,0.0,0.0,3.3021,3.3028,3.2565,3.2937,3.3337,3.3732,3.3768,3.4128,3.495,3.5296,3.5865,3.6678,3.6706,3.6841,3.6896,3.633,3.5763,3.5249,3.5086,3.5273,0.0,0.0,3.528,3.5876,3.6075,3.6075,3.6108,3.6936,3.74,3.7632,3.776,3.8421,3.9412,4.0889,4.1848,4.2551,4.3337,4.3271,4.2749,4.2146,4.1617,4.113,4.1011,4.0912,4.111,4.2055,4.2228,4.2506,4.3892,4.4841,4.5695,4.6452,4.6152,4.5914,4.6212,4.5317,4.4986,4.6113,4.6278,4.6444,4.6841,4.6311,4.5706,4.5117,4.4875,4.4606,4.4364,4.3898,4.4909,4.7793,4.9266,4.997,4.9999,4.9893,5.0032,5.0376,5.031,5.0523,5.115,5.1934,5.2157,5.1789,5.2612,5.2804,5.249,5.3369,5.3676,5.3809,5.4991,5.4823,5.3881,5.3991,5.3515,5.2834,5.2516,5.2373,5.2373,0.0,0.0,0.0,0.0,0.0,0.0,0.0,0.0,0.0,3.3452,3.3422,3.3393,3.3393,3.3393,0.0,0.0,0.0,0.0,0.0,0.0,3.3364,3.334,3.331,3.3316,3.3327,3.3296,3.3692,3.4515,3.4795,3.5578,3.6746,3.6898,3.697,3.6856,3.6256,3.5613,3.4941,3.4679,3.5358,3.6424,3.5412,3.5741,3.6771,0.0,3.5512,3.6174,3.6473,3.7334,3.856,4.0017,4.0083,3.9818,4.1243,4.2137,4.28,4.3429,4.3436,4.3006,4.1872,4.1848,4.1914,4.0912,4.111,4.1939,4.337,4.3641,4.3916,4.5302,4.6189,4.6683,4.6749,4.6284,4.6113,4.6676,4.6146,4.5881,4.651,4.6609,4.6609,4.6609,4.5483,4.4897,4.5327,4.4508,4.4339,4.525,4.4597,4.5422,4.8354,5.0905,5.1588,4.9988,5.0514,5.0883,5.0946,5.091,5.16,5.2886,5.2993,5.3369,5.4011,5.4261,5.4677,5.5164,5.5397,5.5519,5.5519,5.5583,5.5167,5.4454,5.3878,5.3649,5.3449,5.2903,5.2761,5.2827,0.0,0.0,0.0,0.0,0.0,0.0,0.0,0.0,0.0,0.0,3.3538,3.3393,0.0,0.0,0.0,0.0,0.0,0.0,0.0,0.0,0.0,3.3364,3.334,3.3629,3.431,3.4285,3.4681,3.5539,3.5584,3.6085,3.6946,3.6204,3.653,3.7715,3.6895,3.6257,3.5789,3.5746,3.561,3.5442,3.5484,3.5633,3.5891,3.5789,0.0,0.0,3.8957,3.9388,3.9322,4.0746,4.1143,4.1309,4.2767,4.333,4.3462,4.3595,4.265,4.17,4.2179,4.1427,4.0776,4.1848,4.2237,4.2675,4.4009,4.4339,4.4706,4.5962,4.6519,4.6848,4.7408,4.7077,4.6543,4.6046,4.5351,4.492,4.5052,4.5052,4.5052,4.5052,4.4854,4.4517,4.3979,4.5196,4.5781,4.5336,4.6236,4.8049,5.0867,5.1578,5.1454,5.064,5.1298,5.161,5.1521,5.1521,5.1999,5.2886,5.3528,5.3939,5.4183,5.4899,5.4964,5.4579,5.5148,5.5399,5.5459,5.602,5.5835,5.5189,5.5069,5.4703,5.42,5.4072,5.4449,5.4964,0.0,0.0,0.0,0.0,0.0,0.0,0.0,3.3683,3.3597,3.4142,3.4207,3.4109,3.3844,3.3698,3.3587,0.0,0.0,0.0,0.0,0.0,0.0,3.3393,3.3364,3.3544,3.3973,3.3942,3.4341,3.5204,0.0,3.6218,3.7011,3.6982,3.713,3.7419,3.6594,3.5849,3.5287,3.5332,3.5292,3.5174,3.5814,3.6199,3.6378,3.6787,0.0,0.0,3.9852,3.9918,3.9553,4.1375,4.174,4.1607,4.27,4.3297,4.3628,4.3628,4.2774,4.1956,4.2377,4.1947,4.1526,4.2278,4.28,4.3403,4.483,4.516,4.5557,4.6815,4.721,4.7473,4.7638,4.7242,4.6775,4.6411,4.5417,4.4942,4.5671,4.5068,4.4733,4.5102,4.5486,4.5625,4.575,4.6124,4.6773,4.7705,4.8959,5.0291,5.1625,5.1681,5.1633,5.14,5.1635,5.1986,5.2315,5.2315,5.2921,5.4099,5.4456,5.4865,5.5334,5.5724,5.5751,5.5461,5.5786,5.5901,5.5957,5.6273,5.6217,5.5901,5.5519,5.5469,5.5479,5.507,5.549,5.6146,0.0,0.0,0.0,0.0,0.0,0.0,0.0,3.4081,3.3966,3.4824,3.5133,3.5045,3.4525,3.4212,3.399,0.0,0.0,0.0,0.0,0.0,0.0,0.0,0.0,0.0,3.3393,0.0,0.0,3.4624,3.5421,0.0,0.0,0.0,0.0,0.0,3.6367,3.5679,3.5137,3.5397,3.5545,0.0,0.0,3.7582,3.7895,0.0,0.0,0.0,0.0,4.0337,3.9852,4.2038,4.2369,4.2005,4.2767,4.3264,4.3628,4.3628,4.3098,4.2535,4.27,4.2634,4.2568,4.2734,4.3197,4.3992,4.545,4.5781,4.6149,4.7473,4.7869,4.7935,4.777,4.7439,4.7139,4.7139,4.6013,4.553,4.6532,4.5568,4.4948,4.5501,4.6254,4.6926,4.743,4.7351,4.7945,4.9501,5.089,5.1714,5.1688,5.2019,5.2125,5.1844,5.2057,5.2422,5.2886,5.3064,5.3813,5.5205,5.5205,5.5633,5.6383,5.6383,5.6383,5.6383,5.6383,5.6383,5.6383,5.6383,5.6383,5.6364,5.602,5.627,5.6775,5.6361,5.6732,5.7393,0.0,0.0,0.0,0.0,0.0,0.0,0.0,3.4552,3.4861,3.593,3.6062,3.591,3.5354,3.5061,3.4605,0.0,0.0,0.0,0.0,0.0,0.0,0.0,0.0,0.0,0.0,0.0,0.0,3.4624,3.5421,0.0,0.0,0.0,0.0,0.0,0.0,3.6834,3.6834,3.7561,0.0,0.0,0.0,0.0,0.0,0.0,0.0,0.0,0.0,4.1587,4.0613,4.28,4.3462,4.3562,4.4257,4.4092,4.3628,4.3628,4.3098,4.2667,4.333,4.3032,4.2667,4.3363,4.3562,4.3992,4.545,4.5781,4.6212,4.7703,4.8001,4.8001,4.8001,4.7934,4.7901,4.7901,4.7206,4.6729,4.6701,4.6041,4.5467,4.5333,4.6631,4.7361,4.665,4.8958,4.9783,4.8047,5.0242,5.1702,5.1729,5.3024,5.3131,5.1765,5.3048,5.3492,5.2886,5.3564,5.4349,5.5205,5.5205,5.5633,5.6383,5.6383,5.6383,5.6383,5.6383,5.6383,5.6383,5.6383,5.6383,5.6454,5.7112,5.7433,5.7611,5.8174,5.8921,5.9597,0.0,0.0,0.0,0.0,0.0,0.0,3.448,3.419,3.4365,3.5757,3.6113,3.614,3.5947,3.5855,3.5248,3.3997,0.0,0.0,0.0,0.0,0.0,0.0,0.0,0.0,0.0,0.0,3.5059,3.6037,3.6363,0.0,0.0,0.0,0.0,0.0,0.0,3.7011,3.7047,3.7341,0.0,0.0,0.0,0.0,0.0,0.0,0.0,0.0,0.0,0.0,4.2025,4.4078,4.4801,4.492,4.5614,4.5954,4.5932,4.4656,4.3429,4.2667,4.3429,4.3298,4.3126,4.3488,4.4197,4.5001,4.5611,4.6146,4.6742,4.7802,4.8001,4.8001,4.8001,4.8001,4.8264,4.9117,4.861,4.8511,4.9654,4.9236,4.8583,4.8032,4.9662,5.0559,4.9885,5.1211,5.1934,5.1528,5.1617,5.2536,5.445,5.4168,5.3937,5.3813,5.3956,5.4349,5.4991,5.4813,5.5134,5.5919,5.5919,5.6097,5.6383,5.6383,5.6383,5.6383,5.6383,5.6383,5.6383,5.6383,5.6668,5.7132,5.7453,5.8167,5.9023,5.9309,5.9951,6.0629,0.0,0.0,0.0,0.0,0.0,3.3822,3.4681,3.4506,3.4739,3.6121,3.6472,3.6589,3.656,3.6119,3.5487,3.4632,3.4064,0.0,0.0,0.0,0.0,0.0,0.0,0.0,0.0,0.0,3.5996,3.7341,3.7594,3.8101,0.0,0.0,3.8536,3.85,0.0,0.0,0.0,0.0,0.0,0.0,0.0,0.0,0.0,0.0,0.0,0.0,0.0,0.0,0.0,0.0,0.0,4.6673,4.7122,4.7731,4.7845,4.5875,4.439,4.3523,4.4031,4.3944,4.3732,4.3814,4.4749,4.5664,4.574,4.6378,4.7106,4.7835,4.8001,4.8001,4.8001,4.8001,4.846,4.9869,4.9452,4.9641,5.1619,5.1314,5.0735,5.0329,5.2252,5.3174,5.2024,5.2323,5.2957,5.3901,5.3423,5.4029,5.6295,5.5348,5.4884,5.5205,5.5134,5.5491,5.6383,5.5847,5.5847,5.6383,5.6383,5.6383,5.6383,5.6383,5.6383,5.6383,5.6383,5.6383,5.6418,5.6668,5.7096,5.7632,5.8096,5.8952,5.9951,6.0165,6.0629,6.1093,0.0,0.0,0.0,0.0,0.0,0.0,3.5217,3.5836,3.6479,3.7353,3.7492,3.7434,3.7228,3.5775,3.5148,3.6003,3.4969,0.0,0.0,0.0,0.0,0.0,0.0,0.0,0.0,0.0,3.7439,3.8174,3.8971,3.9767,4.0456,3.9731,3.9369,3.9333,0.0,0.0,0.0,0.0,0.0,0.0,0.0,0.0,4.6098,0.0,0.0,0.0,0.0,0.0,0.0,0.0,0.0,0.0,0.0,4.9094,4.8792,4.7146,4.6109,4.5591,4.5602,4.506,4.4485,4.4485,4.506,4.5664,4.574,4.6378,4.7106,4.7835,4.8001,4.8001,4.8001,4.8001,4.8396,4.9772,4.939,4.9607,5.1654,5.1294,5.1017,5.1622,5.3742,5.4277,5.1922,5.1714,5.2323,5.3887,5.5473,5.6349,5.6383,5.6383,5.6026,5.5241,5.674,5.7168,5.6418,5.6383,5.6383,5.6383,5.6383,5.6383,5.6383,5.6383,5.6383,5.6383,5.6383,5.6383,5.6454,5.7239,5.756,5.7739,5.9273,5.9916,6.0023,6.0808,6.1093,6.1093,0.0,0.0,0.0,0.0,0.0,0.0,0.0,3.4723,3.5106,3.5959,3.6122,3.6292,3.6694,3.6414,3.6307,3.6498,3.5577,0.0,0.0,0.0,0.0,0.0,0.0,0.0,0.0,0.0,3.7794,3.9173,3.9361,3.987,4.0702,3.9901,3.9504,3.9436,3.8637,3.8241,0.0,0.0,0.0,0.0,0.0,4.6007,4.6613,0.0,0.0,0.0,0.0,0.0,0.0,0.0,0.0,0.0,0.0,0.0,0.0,5.0066,4.8167,4.6212,4.5569,4.5527,4.5667,4.5814,4.6426,4.6954,4.7113,4.7391,4.7736,4.7968,4.8001,4.8131,4.8543,4.9043,5.0057,5.1869,5.2392,5.3137,5.4752,5.3833,5.3247,5.4028,5.4741,5.4706,5.3421,5.426,5.4225,5.2519,5.4865,5.6383,5.6415,5.6415,5.6649,5.7116,5.762,5.7636,5.7204,5.6668,5.6383,5.6383,5.6383,5.6383,5.6383,5.6383,5.6383,5.6383,5.6383,5.6704,5.7239,5.7489,5.8203,5.9238,5.9701,6.0237,6.0736,6.1022,6.1093,6.1093,0.0,0.0,0.0,0.0,0.0,0.0,0.0,3.4705,3.5019,3.5581,3.5679,3.6105,3.7031,3.6745,3.6817,3.7692,3.7031,0.0,0.0,0.0,0.0,0.0,0.0,0.0,3.7598,3.7899,3.87,4.0042,4.0593,4.1139,4.1683,4.1172,4.0773,4.0342,3.9543,3.9148,0.0,0.0,0.0,0.0,4.5594,4.6346,4.6809,0.0,0.0,0.0,0.0,0.0,0.0,0.0,0.0,0.0,0.0,0.0,0.0,0.0,4.8706,4.7322,4.6758,4.6455,4.6393,4.6777,4.7386,4.7934,4.8162,4.8436,4.8668,4.8668,4.8668,4.8894,4.9562,5.0127,5.0935,5.2411,5.3127,5.3773,5.4598,5.4132,5.4255,5.5651,5.5544,5.5401,5.5508,5.5491,5.4955,5.3567,5.5258,5.6402,5.6399,5.638,5.672,5.7402,5.7672,5.7743,5.7596,5.6775,5.6383,5.6383,5.6383,5.6383,5.6383,5.6383,5.6383,5.6418,5.6704,5.7132,0.0,5.8203,5.9023,5.9951,6.0237,6.0665,6.1093,6.1093,6.1093,6.1093,0.0,0.0,0.0,0.0,0.0,0.0,0.0,3.5552,3.5849,3.5927,3.5985,3.6529,3.7821,3.6731,3.6866,3.9151,0.0,0.0,0.0,0.0,0.0,0.0,0.0,0.0,3.8396,3.9167,4.0005,4.0808,4.2304,4.3069,4.3214,4.3178,4.2704,4.1905,4.1032,4.0598,0.0,0.0,0.0,0.0,4.625,4.6722,0.0,0.0,0.0,0.0,0.0,0.0,0.0,0.0,0.0,0.0,0.0,0.0,0.0,0.0,0.0,0.0,0.0,4.77,4.6696,4.7378,4.802,4.8556,4.8737,4.9274,0.0,4.9735,4.9769,5.0011,5.0852,5.1025,5.1292,5.1891,5.2181,5.2272,5.2036,5.2759,5.4187,5.6309,5.6057,5.6273,5.7747,5.5649,5.4773,5.6328,5.6438,5.6492,5.6438,5.6402,5.6383,5.6418,5.7132,5.7489,5.7489,5.6775,5.6383,5.6383,5.6383,5.6383,5.6383,5.6383,5.6418,5.6525,5.7275,5.7632,5.7882,5.9309,5.9951,6.0058,6.0808,6.1093,6.1093,6.1093,6.1093,6.1093,0.0,0.0,0.0,0.0,0.0,0.0,0.0,0.0,0.0,0.0,3.5394,3.5493,3.5645,3.6616,3.7452,0.0,0.0,0.0,0.0,0.0,0.0,0.0,0.0,0.0,3.859,3.9369,4.0174,4.1046,4.1967,4.2772,4.3391,4.2805,4.2368,4.2079,4.0656,4.0227,0.0,0.0,0.0,0.0,4.6866,4.7434,0.0,0.0,0.0,0.0,4.745,4.724,0.0,0.0,0.0,0.0,0.0,0.0,0.0,0.0,4.8706,4.8844,4.8892,0.0,4.7286,4.8064,4.7974,4.7849,0.0,4.8812,4.8953,4.8953,4.9424,4.9988,5.0739,5.1395,5.2056,5.2747,5.3953,5.4343,5.3082,5.3598,5.4151,5.408,5.5518,5.6668,5.7028,5.6472,5.6204,5.6385,5.6795,5.6994,5.7011,5.6653,5.6456,5.6616,5.6742,5.6778,5.6668,5.649,5.6383,5.6383,5.6383,5.6383,5.6383,5.6383,5.674,5.7311,5.76,5.8351,5.938,5.9853,6.0411,6.0984,6.1081,6.1152,6.127,6.1152,6.1093,6.1093,0.0,0.0,0.0,0.0,0.0,0.0,0.0,0.0,0.0,0.0,0.0,3.531,3.5587,3.6858,0.0,0.0,0.0,0.0,0.0,0.0,0.0,0.0,0.0,3.7993,3.8689,3.9401,4.0207,4.1111,4.2219,4.3025,4.3497,4.3424,4.2986,4.215,4.1238,4.1172,0.0,0.0,0.0,4.5454,4.7047,0.0,0.0,0.0,0.0,0.0,4.7301,4.6866,0.0,4.8279,4.8025,4.712,0.0,0.0,0.0,0.0,4.7772,4.8351,4.8351,4.8482,4.864,4.9064,4.8862,4.8758,4.9493,4.9356,4.9082,4.9082,4.9679,5.0418,5.1157,5.2022,5.287,5.3605,5.4511,5.5008,5.4553,5.4842,5.5144,5.5072,5.6551,5.7418,5.7021,5.7005,5.6917,5.6757,5.8408,5.877,5.7262,5.6886,5.6814,5.6868,5.6725,5.6653,5.6492,5.6546,5.66,5.66,5.66,5.6779,5.7137,5.7137,5.7567,5.8355,5.8769,5.9414,6.0182,6.0597,6.1049,6.1444,6.1328,6.1386,6.1444,6.1328,6.1328,6.1328,0.0,0.0,0.0,0.0,0.0,0.0,0.0,0.0,0.0,0.0,0.0,0.0,0.0,0.0,0.0,0.0,0.0,0.0,0.0,0.0,0.0,0.0,3.8331,3.8153,3.8689,3.9428,4.0162,4.0928,4.2619,4.3463,4.3497,4.4305,4.383,4.2223,4.2227,4.2559,4.325,0.0,4.55,4.5639,4.712,0.0,0.0,0.0,0.0,0.0,0.0,0.0,0.0,4.8713,4.8387,4.712,4.7011,0.0,0.0,0.0,0.0,0.0,4.7663,4.8858,5.0017,4.9667,4.9622,4.983,5.0279,4.9816,4.9364,4.9364,5.0127,5.0952,5.1585,5.2628,5.3554,5.4165,5.4301,5.4652,5.5703,5.5703,5.6029,5.708,5.7804,5.7985,5.7442,5.7268,5.7195,5.7174,5.9735,6.0098,5.7361,5.7221,5.7169,5.6973,5.6901,5.6812,5.6653,5.676,5.6812,5.6812,5.692,5.7352,5.7999,5.8107,5.861,5.9401,6.014,6.05,6.0624,6.1364,6.1651,6.1651,6.1595,6.1651,6.1651,6.1595,6.1595,6.1595,0.0,0.0,0.0,0.0,0.0,0.0,0.0,0.0,0.0,0.0,0.0,0.0,0.0,0.0,0.0,0.0,0.0,0.0,0.0,0.0,0.0,3.878,3.864,3.8609,3.8689,3.9667,4.0178,4.0084,4.2622,4.3697,4.3497,4.4305,4.3864,4.2289,4.2917,4.3249,4.3468,4.4889,4.5903,4.6553,4.7379,0.0,0.0,0.0,0.0,0.0,0.0,0.0,0.0,4.6142,4.5417,4.4512,4.386,0.0,0.0,0.0,0.0,0.0,4.7518,4.8858,4.9764,4.8381,4.8439,4.8756,4.8135,4.8335,4.8641,4.8641,4.9826,5.0904,5.1012,5.2378,5.352,5.3628,5.3182,5.3385,5.487,5.4472,5.4834,5.6935,5.7297,5.7587,5.8166,5.7623,5.721,5.718,5.7695,5.7732,5.7253,5.7201,5.7129,5.7021,5.6969,5.6933,5.6933,5.6865,5.6812,5.6812,5.7495,5.7891,5.7999,5.8682,5.9437,6.0192,6.0447,6.088,6.1415,6.1692,6.1764,6.1728,6.1651,6.1708,6.1764,6.1651,6.1595,6.1651,0.0,0.0,0.0,0.0,0.0,0.0,0.0,0.0,0.0,0.0,0.0,0.0,0.0,0.0,0.0,0.0,0.0,0.0,0.0,0.0,0.0,3.8689,3.8689,3.878,3.8921,3.9843,4.0746,4.1667,4.3206,4.4337,4.502,4.3931,4.324,4.291,4.2399,4.2844,4.4126,4.5147,4.6018,4.6819,0.0,0.0,0.0,0.0,0.0,0.0,0.0,0.0,0.0,0.0,4.5417,4.4693,4.4295,0.0,0.0,0.0,0.0,0.0,4.683,4.8242,4.9184,4.7989,4.8272,4.8699,4.8338,4.8107,4.8091,4.8524,4.9532,5.0469,5.0901,5.2087,5.3074,5.3508,5.4026,5.4798,5.5993,5.621,5.6645,5.7732,5.784,5.7804,5.7768,5.7406,5.7224,5.721,5.7174,5.7224,5.721,5.7159,5.7159,5.7087,5.7087,5.7087,5.7087,5.7469,5.7634,5.7634,5.8031,5.8645,5.9511,5.9872,6.0485,6.1243,6.1298,6.1515,6.1784,6.1895,6.1895,6.1895,6.184,6.184,6.1895,6.184,6.182,6.1856,0.0,0.0,0.0,0.0,0.0,0.0,0.0,0.0,0.0,0.0,0.0,0.0,0.0,0.0,0.0,0.0,0.0,0.0,0.0,0.0,3.8689,3.8689,3.8689,3.8914,3.938,4.0244,4.153,4.3208,4.4279,4.5333,4.6327,4.4147,4.3277,4.3424,4.2396,4.3059,4.4967,4.5661,4.6387,4.7153,0.0,0.0,0.0,0.0,0.0,0.0,0.0,0.0,0.0,0.0,0.0,0.0,0.0,0.0,0.0,4.4005,4.4442,4.5276,4.625,4.7409,4.8357,4.8061,4.846,4.8858,4.8677,4.8048,4.7716,4.8367,4.9125,4.9956,5.0931,5.2216,5.3313,5.411,5.5088,5.6029,5.679,5.7442,5.7913,5.8094,5.813,5.7876,5.7261,5.7188,5.7188,5.7188,5.7188,5.7188,5.7188,5.7188,5.7188,5.7188,5.7369,5.7478,5.7478,5.8275,5.8601,5.8383,5.8782,5.9615,6.081,6.1027,6.1426,6.2005,6.2005,6.2005,6.2005,6.2005,6.2005,6.2005,6.2005,6.2005,6.2005,6.2005,6.2005,6.215,0.0,0.0,0.0,0.0,0.0,0.0,0.0,0.0,0.0,0.0,0.0,0.0,0.0,0.0,0.0,0.0,0.0,0.0,0.0,0.0,3.8689,3.8689,3.8689,3.9172,4.0188,4.1322,4.2307,4.3224,4.5783,4.6835,4.6364,4.5879,4.4892,4.3534,4.4158,4.4966,4.5883,4.6615,4.7382,4.8114,4.8032,0.0,0.0,0.0,0.0,0.0,0.0,0.0,0.0,0.0,0.0,0.0,0.0,0.0,4.3063,4.2991,4.3647,4.4665,4.611,4.6694,4.7171,4.846,4.8858,4.8713,4.7989,4.7735,4.7693,4.7729,4.8381,4.9474,5.0995,5.3168,5.4979,5.5703,5.5341,5.5233,5.5957,5.6138,5.6428,5.7188,5.7297,5.7261,5.7188,5.7188,5.7188,5.7188,5.7188,5.7188,5.7188,5.7188,5.7188,5.7188,5.7913,5.8311,5.8311,5.9108,5.9144,5.842,5.9905,6.0701,6.0846,6.1571,6.1969,6.2005,6.2005,6.2005,6.2005,6.2005,6.2005,6.2005,6.2005,6.2005,6.2005,6.2005,6.2005,6.215,0.0,0.0,0.0,0.0,0.0,0.0,0.0,0.0,0.0,0.0,0.0,0.0,0.0,0.0,0.0,0.0,0.0,0.0,0.0,3.8711,3.8689,3.8689,3.8689,3.9261,4.051,4.198,4.3465,4.5004,4.69,4.732,4.6364,4.5547,4.4562,4.3534,4.4342,4.4892,4.5259,4.6469,4.7201,4.7532,4.7889,4.8028,0.0,0.0,0.0,0.0,0.0,0.0,0.0,0.0,4.2194,4.2556,4.2266,4.2484,4.2882,4.2882,4.3211,4.3795,4.4847,4.59,4.6848,4.7425,4.8575,4.9293,4.7989,4.7699,4.8134,4.9619,4.9401,4.9546,5.1647,5.3204,5.4399,5.5196,5.5486,5.5667,5.5957,5.6428,5.6862,5.7152,5.7188,5.7188,5.7188,5.7188,5.7188,5.7188,5.7188,5.7188,5.7188,5.7188,5.7188,5.7188,5.7985,5.8383,5.8383,5.9687,6.0194,5.9905,6.052,6.1064,6.1571,6.186,6.2005,6.2005,6.2005,6.2005,6.2005,6.2005,6.2005,6.2005,6.2005,6.2005,6.2005,6.2005,6.2331,6.2875,0.0,0.0,0.0,0.0,0.0,0.0,0.0,0.0,0.0,0.0,0.0,0.0,0.0,0.0,0.0,0.0,0.0,0.0,3.7943,3.8228,3.8435,3.8405,3.8693,3.9378,4.0536,4.228,4.4171,4.6235,4.7476,4.7386,4.6025,4.5105,4.4415,4.3901,4.4452,4.4856,4.5149,4.6213,4.6836,4.713,4.7565,4.7892,0.0,0.0,0.0,0.0,0.0,0.0,0.0,0.0,4.1107,4.1796,4.1796,4.2341,4.2995,4.2995,4.325,4.3724,4.4525,4.5727,4.6855,4.7034,4.8265,4.9125,4.7995,4.7916,4.8496,4.9872,5.009,5.056,5.219,5.3748,5.4907,5.5196,5.5884,5.6355,5.6355,5.6862,5.7188,5.7188,5.7188,5.7188,5.7188,5.7188,5.7188,5.7188,5.7188,5.7188,5.7188,5.7188,5.7333,5.755,5.8347,5.8891,5.918,6.052,6.1208,6.1208,6.1208,6.1498,6.2005,6.2005,6.2005,6.2005,6.2005,6.2005,6.2005,6.2005,6.2005,6.2005,6.2005,6.2005,6.2041,6.2295,6.273,6.3345,0.0,0.0,0.0,0.0,0.0,0.0,0.0,0.0,0.0,0.0,0.0,0.0,0.0,0.0,0.0,0.0,0.0,0.0,3.733,3.7654,3.7894,3.7829,3.8637,3.9491,4.0271,4.22,4.431,4.65,4.7586,4.7086,4.5207,4.4847,4.4709,4.4709,4.4709,4.5149,4.5883,4.5883,4.6361,4.7095,4.7095,4.7532,4.8004,0.0,0.0,0.0,0.0,0.0,0.0,0.0,4.1318,4.1975,4.2011,4.2558,4.3214,4.3214,4.3871,4.4748,4.5404,4.6282,4.7161,4.7813,4.7992,4.7988,4.7902,4.8436,4.8677,4.7916,5.0271,5.248,5.248,5.5051,5.6899,5.6138,5.6681,5.7188,5.7188,5.7188,5.7188,5.7188,5.7188,5.7188,5.7188,5.7188,5.7188,5.7188,5.7188,5.7188,5.7188,5.7188,5.7587,5.8383,5.918,6.0013,6.081,6.1607,6.2005,6.2005,6.2005,6.2005,6.2005,6.2005,6.2005,6.2005,6.2005,6.2005,6.2005,6.2005,6.2005,6.2005,6.2005,6.2005,6.2114,6.2911,6.32,6.3454,0.0,0.0,0.0,0.0,0.0,0.0,0.0,0.0,0.0,0.0,0.0,0.0,0.0,0.0,0.0,0.0,0.0,0.0,3.7293,3.7654,3.7936,3.8078,3.8927,3.959,4.001,4.2496,4.4867,4.7124,4.724,4.6555,4.5207,4.5436,4.4929,4.3938,4.5626,4.559,4.4268,4.5406,4.57,4.548,4.603,4.6727,4.7239,0.0,0.0,0.0,0.0,0.0,0.0,0.0,0.0,0.0,4.1172,4.2485,4.3907,4.336,4.3871,4.4528,4.4163,4.5479,4.6907,4.6539,4.8068,4.9414,4.8243,4.8525,4.9089,4.9372,5.1031,5.248,5.248,5.4182,5.5667,5.5957,5.6681,5.7188,5.7188,5.7289,5.7486,5.7747,5.7498,5.7449,5.7747,5.7401,5.7188,5.7188,5.7188,5.7188,5.7188,5.8304,5.8776,5.842,5.9724,6.0557,6.081,6.1607,6.2005,6.2005,6.2005,6.2005,6.2005,6.2005,6.2005,6.2005,6.2005,6.2005,6.2005,6.2005,6.2005,6.2005,6.2005,6.2367,6.2875,6.3092,6.3925,6.4939,0.0,0.0,0.0,0.0,0.0,0.0,0.0,0.0,3.9317,4.0196,4.031,4.031,0.0,0.0,0.0,3.9049,3.7885,0.0,3.6977,3.7423,3.7737,3.7815,3.9307,4.0533,4.1336,4.3454,4.5087,4.6225,4.5998,4.5417,4.4535,4.4814,4.4782,4.4525,4.5993,4.5663,4.4011,4.4672,4.4672,4.4305,4.5112,4.6104,4.691,0.0,0.0,0.0,0.0,0.0,0.0,0.0,0.0,0.0,4.1384,4.2591,4.398,4.3834,4.4419,4.5114,4.493,4.6176,4.7384,4.6909,4.8187,4.946,4.9049,4.904,4.9319,4.9952,5.1357,5.248,5.248,5.4327,5.5789,5.5811,5.6976,5.7911,5.7831,5.7886,5.7986,5.8301,5.7941,5.7794,5.8076,5.7558,5.7166,5.7166,5.7202,5.7442,5.8109,5.8885,5.932,5.9361,6.0303,6.0955,6.1281,6.1788,6.2005,6.2005,6.2005,6.2005,6.2005,6.2005,6.2005,6.2005,6.2005,6.2005,6.2005,6.2005,6.2005,6.2005,6.2005,6.2476,6.3237,6.3563,6.4468,6.5663,0.0,0.0,0.0,0.0,0.0,0.0,0.0,3.8935,3.9279,4.0081,4.0272,4.0272,0.0,0.0,0.0,3.9088,3.8004,3.7167,3.6625,3.7072,3.7371,3.7334,3.9781,4.1927,4.3582,4.4636,4.4881,4.4271,4.4373,4.4095,4.3497,4.3571,4.4378,4.5773,4.5773,4.5333,4.4525,4.3644,4.3277,4.3351,4.4158,4.5369,4.6544,4.5112,0.0,0.0,0.0,0.0,0.0,0.0,0.0,0.0,4.2286,4.291,4.3718,4.4415,4.5223,4.603,4.6728,4.7535,4.8196,4.8196,4.8306,4.8705,5.0003,4.9804,4.9537,5.017,5.1393,5.2408,5.248,5.4991,5.6709,5.5566,5.7455,5.8923,5.8632,5.8639,5.8756,5.8837,5.8512,5.8295,5.8338,5.7684,5.7219,5.7219,5.7216,5.7891,5.9517,5.9284,5.9631,6.0774,6.0883,6.1281,6.2005,6.2005,6.2005,6.2005,6.2005,6.2005,6.2005,6.2005,6.2005,6.2005,6.2005,6.2005,6.2005,6.2005,6.2005,6.2041,6.2114,6.2585,6.3418,6.4215,6.5011,6.5808,0.0,0.0,0.0,0.0,0.0,0.0,3.7827,3.8553,3.9088,3.9279,3.989,4.0043,3.9355,3.989,0.0,3.9088,3.8004,3.7414,3.7427,3.7217,3.723,3.7603,4.0063,4.2199,4.3878,4.3954,4.378,4.3472,4.4073,4.4095,4.3497,4.4158,4.4635,4.4966,4.4966,4.4525,4.3644,4.2249,4.1625,4.1699,4.2506,4.302,4.3351,4.3644,4.3351,0.0,0.0,0.0,0.0,0.0,0.0,0.0,4.2286,4.3277,4.4342,4.3901,4.4782,4.581,4.5333,4.6287,4.7388,4.7388,4.8306,4.9294,4.9578,5.0488,5.1347,5.1919,5.1756,5.1756,5.2371,5.4328,5.5595,5.473,5.6873,5.8466,5.7779,5.8383,5.8989,5.9357,5.9065,5.8951,5.925,5.8326,5.7528,5.7217,5.7182,5.7891,5.9517,6.0715,6.1171,6.081,6.1426,6.1824,6.2005,6.2005,6.2005,6.2005,6.2005,6.2005,6.2005,6.2005,6.2005,6.2005,6.2005,6.2005,6.2005,6.2005,6.2005,6.2078,6.2693,6.3418,6.4215,6.5048,6.5844,6.6569,0.0,0.0,0.0,0.0,0.0,0.0,0.0,0.0,3.947,3.9049,3.9393,3.9508,3.9049,3.9049,0.0,0.0,3.7508,3.7185,3.7674,3.749,3.8193,4.0081,4.1418,4.2908,4.459,4.3954,4.3466,4.3208,4.2697,4.2605,4.291,4.3351,4.3975,4.4709,4.4709,4.4048,4.2837,4.1625,4.0891,4.0598,4.1405,4.1956,4.2286,4.2323,4.2323,4.2249,4.1882,0.0,0.0,0.0,0.0,0.0,0.0,0.0,4.4328,4.412,4.4672,4.5442,4.5985,4.6722,4.746,4.7794,4.9009,5.0009,4.9991,5.1059,5.2123,5.2571,5.2254,5.2073,5.2688,5.3932,5.5049,5.5503,5.7113,5.8427,5.8719,5.9166,5.9605,5.9969,5.9639,5.9465,5.9673,5.8723,5.7925,5.7608,5.7434,5.8419,6.0799,6.1215,6.1442,6.1461,6.1896,6.2114,6.2114,6.2005,6.2005,6.2114,6.2005,6.2005,6.2005,6.2005,6.2005,6.2005,6.2005,6.2005,6.2005,6.2005,6.2005,6.2114,6.2875,6.3671,6.4504,6.5301,6.6098,6.6786,0.0,0.0,0.0,0.0,0.0,0.0,0.0,0.0,0.0,3.8858,3.8897,3.8935,3.8782,3.8132,3.7636,0.0,0.0,0.0,3.7445,3.7636,3.9146,4.2352,4.2545,4.3291,4.4819,4.3855,4.3139,4.2758,4.1054,4.088,4.2103,4.2249,4.3167,4.4709,4.4415,4.3571,4.2249,4.1148,4.0304,3.9753,4.0561,4.1222,4.1625,4.1258,4.1442,4.1735,4.0671,4.0634,4.1222,4.2095,0.0,0.0,0.0,0.0,4.3849,4.4257,4.4524,4.5037,4.6709,4.7434,4.7876,4.8695,4.9861,5.0792,5.0704,5.1667,5.2597,5.2791,5.2717,5.2725,5.2987,5.3823,5.4896,5.6176,5.7369,5.8555,5.974,6.0006,6.0197,6.0408,6.0099,5.9906,5.9906,5.914,5.853,5.8241,5.7929,5.9102,6.2216,6.1532,6.1418,6.2238,6.2185,6.2185,6.2238,6.2114,6.2114,6.2238,6.2114,6.2005,6.2005,6.2005,6.2005,6.2005,6.2005,6.2005,6.2005,6.2005,6.2114,6.2295,6.2947,6.378,6.4685,6.5337,6.6098,6.6786,0.0,0.0,0.0,0.0,0.0,0.0,0.0,0.0,0.0,0.0,3.8514,3.8706,3.7941,3.775,3.7406,3.6719,3.6566,3.6566,3.6642,0.0,0.0,4.1228,4.1549,4.2144,4.31,4.2494,4.1769,4.1029,4.0304,4.0373,4.1295,4.1992,4.3167,4.4635,4.324,4.2506,4.2176,3.9974,3.8946,3.8946,3.9753,3.9717,3.9313,4.0634,4.0744,4.0377,4.1552,4.1589,4.1254,4.2316,4.2217,0.0,0.0,0.0,4.2916,4.2928,4.3775,4.4816,4.5375,4.6775,4.8234,4.9015,5.0434,5.1536,5.1268,5.2419,5.3378,5.303,5.285,5.2806,5.285,5.4075,5.4914,5.4463,5.6857,5.8631,5.8168,5.9378,6.0294,6.0408,6.0342,6.0313,6.0313,5.9906,5.9458,5.9053,5.8988,5.9998,6.2253,6.2483,6.2487,6.2397,6.2238,6.2275,6.2344,6.2275,6.2275,6.2344,6.2275,6.2132,6.2132,6.2132,6.2114,6.2005,6.2005,6.2005,6.2005,6.2005,6.2404,6.3056,6.3164,6.4106,6.5446,6.5555,6.6098,6.6786,0.0,0.0,0.0,0.0,0.0,0.0,0.0,0.0,0.0,0.0,0.0,3.7445,3.7063,3.6604,3.6146,3.5802,3.5763,3.5993,3.6489,3.7254,3.8593,4.0556,4.0749,4.1457,4.2756,4.1904,4.099,4.004,3.963,3.9792,4.0451,4.1258,4.2506,4.3975,4.2359,4.1625,4.1515,3.9533,3.8689,3.8726,3.9093,3.9657,4.0311,4.0067,4.0355,4.0829,4.0584,4.0288,4.0104,4.103,4.1325,4.133,4.1766,0.0,0.0,0.0,4.2656,4.352,4.5218,4.7143,4.8818,4.9438,5.1339,5.2824,5.1799,5.3192,5.4466,5.3598,5.3193,5.3109,5.3407,5.4204,5.4957,5.5334,5.6945,5.8263,5.8519,5.956,6.0323,6.0408,6.0408,6.0408,6.0408,5.9962,5.9728,5.9855,5.9063,6.0177,6.3883,6.326,6.2756,6.2662,6.2485,6.2449,6.25,6.2344,6.2344,6.2433,6.2344,6.2291,6.2291,6.2291,6.2275,6.2114,6.2114,6.206,6.2005,6.2005,6.2223,6.2621,6.3526,6.4287,6.5048,6.5953,6.6496,6.6786,0.0,0.0,0.0,0.0,0.0,0.0,0.0,0.0,0.0,0.0,0.0,3.6472,3.6472,0.0,0.0,0.0,3.519,3.5572,3.6451,3.7063,3.8056,3.9603,3.987,4.0596,4.182,4.0971,4.0072,3.927,3.8936,3.9164,3.9989,4.074,4.1956,4.3424,4.2029,4.1295,4.1038,3.9606,3.9019,3.9019,3.9326,4.0311,4.151,4.0747,4.126,4.2109,4.0449,3.9852,3.989,4.0093,4.0478,4.0874,4.1354,4.1704,0.0,0.0,0.0,4.2561,4.5092,4.7082,4.8671,4.9657,5.1853,5.3479,5.2484,5.3828,5.5044,5.4055,5.3641,5.3602,5.4086,5.4326,5.4887,5.6188,5.7111,5.8016,5.8967,5.9817,6.0352,6.0408,6.0408,6.0408,6.0408,6.0023,5.9962,6.0361,5.9269,6.0604,6.5195,6.3761,6.2854,6.3015,6.2741,6.2668,6.2818,6.2603,6.2449,6.2449,6.2449,6.2449,6.2449,6.2449,6.2397,6.2291,6.2238,6.2222,6.2114,6.2114,6.2169,6.2459,6.3437,6.4199,6.483,6.5808,6.646,6.6786,0.0,0.0,0.0,0.0,0.0,0.0,0.0,0.0,0.0,0.0,0.0,3.6472,3.6472,3.5725,3.519,3.519,3.519,3.5572,3.6451,3.6566,3.6965,3.7895,3.8699,0.0,3.9294,3.8994,3.8778,3.8656,3.8128,3.8656,4.0222,4.0835,4.1956,4.3461,4.2616,4.1809,4.1038,4.0194,3.9827,3.9932,4.1,4.151,4.1762,4.3567,4.4277,4.41,4.2457,4.1856,4.1656,4.0367,3.9949,3.9992,4.0291,4.0743,4.1154,0.0,0.0,0.0,4.4421,4.575,4.7226,4.9648,5.1582,5.2959,5.3424,5.4208,5.4723,5.433,5.4228,5.433,5.4685,5.4528,5.4693,5.5913,5.7082,5.8192,5.8994,5.9835,6.0408,6.0408,6.0408,6.0408,6.0408,6.0352,6.0361,6.0408,6.0311,6.1771,6.5231,6.3756,6.3056,6.3639,6.299,6.2867,6.3445,6.3014,6.2705,6.2603,6.2603,6.2603,6.2603,6.2603,6.2603,6.2552,6.2449,6.2381,6.2381,6.2381,6.2765,6.3276,6.2585,6.3602,6.5446,6.4758,6.5482,6.6786,0.0,0.0,0.0,0.0,0.0,0.0,0.0,0.0,0.0,0.0,0.0,0.0,0.0,3.5381,3.519,3.519,3.5245,3.5414,3.572,3.5752,3.6112,3.6987,3.7868,3.858,3.9078,3.8991,3.8613,3.7887,3.8206,3.8428,3.8693,3.9978,4.0787,4.1185,4.1442,4.1368,4.1038,3.968,3.9215,3.9571,4.1564,4.2922,4.3882,4.5092,4.5899,4.6126,4.4461,4.3188,4.2167,4.167,4.0891,4.0176,4.0273,4.0444,4.0594,4.0594,4.1566,4.2747,4.3357,4.4985,4.6844,4.8334,5.0741,5.2856,5.3022,5.442,5.542,5.4767,5.4463,5.4547,5.5466,5.5548,5.5655,5.6321,5.7718,5.8765,5.9071,5.9835,6.0408,6.0408,6.0408,6.0599,6.1134,6.0685,6.0848,6.1917,6.3015,6.4139,6.5344,6.4256,6.3723,6.3952,6.3691,6.3543,6.349,6.3014,6.2755,6.2705,6.2705,6.2705,6.2705,6.2705,6.2705,6.2705,6.2654,6.2552,6.2433,6.2433,6.2526,6.2801,6.3457,6.4238,6.5017,6.5799,6.6453,6.6961,0.0,0.0,0.0,0.0,0.0,0.0,0.0,0.0,3.519,3.519,0.0,0.0,0.0,0.0,3.5207,3.5223,3.5277,3.5293,3.5293,3.5308,3.5569,3.6159,3.7287,3.8131,3.8706,3.898,3.8626,3.7604,3.8001,3.8146,3.8091,3.9286,4.0081,4.0425,4.0593,4.0708,4.0634,3.9276,3.8958,3.96,4.2304,4.3584,4.4196,4.6643,4.7362,4.6944,4.5841,4.4715,4.3726,4.346,4.2747,4.1877,4.1342,4.0769,4.031,4.031,4.1074,4.2011,4.2317,4.3999,4.6101,4.7821,5.0092,5.227,5.3416,5.4585,5.5361,5.5066,5.4716,5.4856,5.6063,5.6413,5.6709,5.7336,5.8383,5.9224,5.9491,6.0026,6.0408,6.0408,6.0408,6.0599,6.1144,6.0695,6.0857,6.1963,6.4153,6.5416,6.5388,6.4556,6.4068,6.4097,6.4125,6.393,6.349,6.3014,6.2805,6.2805,6.2805,6.2805,6.2805,6.2805,6.2805,6.2805,6.2805,6.2705,6.25,6.25,6.2683,6.296,6.3947,6.4621,6.5185,6.624,6.6822,6.7097,0.0,0.0,0.0,0.0,0.0,0.0,3.6528,3.584,3.5267,3.5267,0.0,0.0,0.0,0.0,0.0,3.5339,3.5346,3.5331,3.5293,3.5293,3.5308,3.5315,3.6972,3.7909,3.7894,3.8706,3.8673,3.7781,3.7452,3.773,3.858,3.885,3.9871,4.1393,4.0351,3.9895,3.9822,3.9019,3.9166,4.0178,4.3222,4.3514,4.2723,4.8172,4.8754,4.6615,4.6615,4.6577,4.6424,4.5621,4.5316,4.4934,4.3252,4.1609,4.031,4.031,4.0309,4.0537,0.0,0.0,0.0,4.8171,4.9618,5.1123,5.4486,5.4639,5.4295,5.5174,5.5075,5.5189,5.642,5.7016,5.7696,5.8939,5.9147,5.9415,6.0255,6.0408,6.0408,6.0408,6.0408,6.0408,6.039,6.0399,6.0446,6.0531,6.3558,6.5404,6.5414,6.4585,6.4141,6.4136,6.4096,6.393,6.3535,6.3014,6.2805,6.2805,6.2805,6.2805,6.2805,6.2805,6.2805,6.2805,6.2805,6.2805,6.2805,6.2842,6.3218,6.3847,6.3884,6.4729,6.6007,6.6007,6.6517,6.721,0.0,0.0,0.0,0.0,0.0,3.7458,3.7458,3.7299,3.7124,0.0,0.0,0.0,3.6272,3.6179,3.6179,3.6227,3.6189,3.5905,3.5331,3.5339,3.5383,3.5383,3.704,3.7954,3.7993,3.8722,3.869,3.7868,3.7656,3.7624,3.7671,3.8373,3.9212,4.005,3.9528,3.9341,3.9275,3.8891,3.9282,4.0341,4.2425,4.396,4.5281,4.8087,4.921,0.0,0.0,4.8487,4.7417,0.0,4.5507,4.3214,4.1533,4.0691,4.0363,4.0289,4.0784,4.1356,4.1625,0.0,0.0,0.0,0.0,0.0,5.1238,5.2002,5.269,5.418,5.4397,5.4955,5.716,5.7641,5.8262,5.9797,6.0026,6.0102,6.037,6.0408,6.0408,6.0408,6.0408,6.038,6.0399,6.0408,6.1429,0.0,6.4848,6.5404,6.5414,6.5189,6.5069,6.5052,6.4445,6.4016,6.3971,6.3168,6.2805,6.2805,6.2805,6.2805,6.2805,6.2805,6.2805,6.2805,6.2805,6.2792,6.2851,6.3452,6.398,6.4369,6.5217,6.5769,6.6244,6.6866,6.7232,6.7414,0.0,0.0,3.9393,3.8858,3.855,3.8355,3.8355,3.8098,3.7885,0.0,0.0,0.0,3.713,3.7364,3.7343,3.6664,3.6534,3.6173,3.5369,3.5354,3.5345,3.5345,3.6709,3.7623,3.8007,3.8738,3.8706,3.7878,3.7764,3.7621,3.7528,3.7905,3.8612,3.967,3.9401,3.9272,3.9245,3.8979,3.9187,3.9867,4.2482,4.3874,4.4739,4.8112,4.912,0.0,0.0,0.0,4.7914,4.8602,4.6615,0.0,4.2738,4.1474,4.0398,4.0342,4.0743,4.1294,4.1601,4.2675,4.4077,4.5592,0.0,0.0,5.0788,5.1529,5.2217,5.4218,5.4639,5.5326,5.7504,5.7886,5.8459,6.0141,6.0408,6.0408,6.0408,6.0408,6.0408,6.0408,6.0408,6.039,6.0408,6.1688,6.3282,6.5261,6.5413,6.5397,6.5427,6.5394,6.5313,6.5155,6.4483,6.4016,6.3846,6.3121,6.2805,6.2805,6.2805,6.2805,6.2805,6.2805,6.2805,6.2805,6.2792,6.2815,6.2874,6.4061,6.4699,6.4882,6.582,6.6426,6.6919,6.7396,6.7579,6.7579,0.0,3.9775,4.031,4.0425,3.9868,3.9423,3.9538,3.8843,3.8345,0.0,3.8278,3.8278,3.8355,3.8873,3.8623,3.714,3.6763,3.6288,3.5468,3.5362,3.5315,3.5315,3.6195,3.7084,3.7853,3.8661,3.8706,3.7909,3.7781,3.7747,3.7781,3.7509,3.8171,3.965,3.9595,3.9476,3.9376,3.9208,3.9081,3.9386,4.2782,4.3487,0.0,0.0,4.8694,4.7111,4.8678,4.8754,4.8296,4.9595,4.8111,0.0,4.5227,4.3215,4.0875,4.053,4.0641,4.1075,4.169,4.248,4.3709,4.609,4.6628,0.0,5.1354,5.1714,5.1959,5.4358,5.4906,5.5479,5.716,5.7516,5.8088,5.972,6.0074,6.0265,6.037,6.0408,6.0408,6.0418,6.039,6.0552,6.0912,6.3626,6.5367,6.5413,6.5307,6.5276,6.5314,6.5283,6.5085,6.4739,6.4292,6.3888,6.349,6.3014,6.2805,6.2805,6.2805,6.2805,6.2805,6.2805,6.2805,6.2792,6.2815,6.2801,6.2947,6.4412,6.5217,6.56,6.6093,6.688,6.7687,6.7687,6.7687,6.7687,3.9928,4.0194,4.0519,4.1226,4.1259,4.1426,4.2117,4.1502,4.1195,4.1908,4.1338,4.1111,4.1762,4.0768,3.9927,3.9618,3.8282,3.7118,3.6298,3.5653,3.5315,3.5315,3.6195,3.6801,3.6964,3.8377,3.869,3.7901,3.7797,3.7764,3.7819,3.7729,3.7847,3.8175,3.9309,3.9429,3.8779,3.9226,4.015,4.1397,4.195,4.3407,4.5496,4.7289,4.8615,4.9595,4.9939,4.9977,4.9671,4.864,4.7941,4.7009,0.0,4.3903,4.4051,4.1289,4.192,4.3453,4.2953,4.3415,4.4338,4.5494,4.5744,0.0,4.7586,4.8332,4.9252,5.107,5.1944,5.2915,5.4599,5.5206,5.5817,5.7134,5.8263,5.9307,6.0265,6.0408,6.0399,6.0387,6.0387,6.1438,6.4139,6.5009,6.5367,6.5413,6.4742,6.4461,6.4727,6.4519,6.4293,6.4215,6.3846,6.358,6.349,6.3014,6.2805,6.2805,6.2805,6.2805,6.2805,6.2805,6.2792,6.2815,6.2801,6.2771,6.285,6.3179,6.4835,6.7279,6.732,6.7504,6.7687,6.7687,6.7687,6.7797,4.0196,4.0309,4.0575,4.1399,4.1625,4.1984,4.2846,4.265,4.2552,4.294,4.2889,4.2661,4.2183,4.1781,4.1036,3.9774,3.8838,3.798,3.7139,3.638,3.5914,3.5898,3.6012,3.6426,3.7294,3.8092,3.8514,3.8616,3.8482,3.8257,3.7852,3.7764,3.8435,3.9621,3.949,3.9946,4.0708,4.0019,4.0254,4.1253,4.2662,0.0,4.6922,4.83,4.9425,5.0283,5.0283,5.0283,5.0092,4.8853,4.7941,0.0,4.5822,4.5188,4.4551,4.2437,4.2684,4.3624,4.3201,4.3393,4.4124,4.5781,4.5858,0.0,0.0,4.8009,4.8603,5.0692,5.1392,5.2211,5.392,5.474,5.5379,5.6273,5.7768,5.8843,5.8872,5.975,6.0399,6.0405,6.0061,6.1264,6.5019,6.5397,6.5405,6.5413,6.4582,6.4104,6.4133,6.4105,6.3975,6.3803,6.3624,6.34,6.3158,6.2953,6.2805,6.2805,6.2805,6.2805,6.2805,6.3246,6.3466,6.3525,6.4134,6.4302,6.4071,6.4945,6.6186,6.7667,6.7741,6.7687,6.7687,6.7687,6.7687,6.776,4.0291,4.0442,4.0784,4.1418,4.1895,4.2427,4.3061,4.3248,4.3282,4.323,4.4001,4.4039,4.2603,4.2967,4.247,4.0405,3.9794,3.9144,3.8282,3.7507,3.7064,3.7009,3.6151,3.6373,3.7871,3.7916,3.8278,3.9046,3.8936,3.8558,3.7885,3.7627,3.8605,4.0593,3.985,4.0386,4.1876,4.0898,4.067,4.1246,0.0,4.5603,4.6768,4.8991,4.9824,4.9862,5.0168,5.0283,5.0168,4.9373,4.8171,4.7141,4.7434,4.6474,4.4994,4.353,4.3662,4.4201,4.3701,4.3816,4.4509,4.6432,4.6355,4.6355,0.0,0.0,0.0,5.0598,5.1245,5.1913,5.3338,5.414,0.0,5.5455,0.0,0.0,0.0,5.8883,0.0,6.0399,5.9817,6.1019,6.5019,6.541,6.5238,6.4925,6.4557,6.4176,6.3725,6.3796,6.3718,6.3354,6.3354,6.3205,6.2805,6.2805,6.2805,6.2805,6.2805,6.2915,6.3062,6.3759,6.4237,6.453,6.5506,6.5856,6.5856,6.7173,6.7687,6.7687,6.7687,6.7687,6.7687,6.7687,6.7687,6.7724,4.0307,4.0991,4.1562,4.1589,4.2908,4.4036,4.4058,4.4058,4.4058,4.3963,4.5321,4.6219,4.5965,4.5434,4.4977,4.4709,4.2604,4.0976,4.0147,3.9303,3.8821,3.8908,3.7401,3.6978,3.7871,3.7894,3.7932,3.8078,3.8047,3.8009,3.7871,3.7095,3.6872,3.7309,4.0057,4.023,3.8546,4.136,4.2967,4.3673,4.486,4.4534,0.0,4.686,4.8105,4.8296,4.9786,5.0283,5.0168,0.0,4.8952,4.846,0.0,4.7088,4.7991,4.4222,4.574,4.8202,4.5932,4.6394,4.7432,4.7009,4.6817,4.6624,4.6124,0.0,4.8183,4.8452,0.0,5.0794,5.0985,0.0,0.0,5.3168,5.4549,0.0,5.7035,5.8247,5.9338,6.0279,6.034,6.1629,6.5061,6.5399,6.4747,6.3192,6.4444,6.4786,6.3759,6.3214,6.2953,6.2904,6.2904,6.2855,6.2805,6.2805,6.2805,6.2805,6.2805,6.3209,6.3943,6.4053,6.4751,6.5836,6.5527,6.615,6.743,6.7614,6.7687,6.7687,6.7687,6.7687,6.7687,6.7687,6.7687,6.7797,4.0283,4.0701,4.1157,4.1586,4.2696,4.3673,4.4135,4.4595,4.4902,4.4883,4.5476,4.5706,4.5227,4.4901,4.448,4.4001,0.0,4.2008,0.0,4.0372,3.9682,3.9144,3.8024,3.754,3.7871,3.7909,3.8155,3.8723,3.8178,3.7909,3.7871,3.7517,3.7901,3.8914,4.0799,4.1855,4.2276,4.3234,4.3522,4.3367,0.0,4.4231,0.0,4.7886,4.9669,5.0205,5.0887,5.1423,5.1813,0.0,5.0374,0.0,4.9674,4.8872,4.7569,4.6376,4.6586,4.6971,4.5893,4.6471,4.7432,4.7548,4.7586,4.7509,4.7124,4.724,4.7702,4.8663,0.0,0.0,0.0,0.0,0.0,0.0,5.3861,5.5174,0.0,0.0,5.8907,0.0,0.0,0.0,6.5065,6.5389,6.3917,6.0312,6.3364,6.4762,6.3227,6.2973,6.2805,6.2805,6.2805,6.2805,6.2805,6.2805,6.2805,6.2805,6.2828,6.2961,6.3364,6.4369,6.5087,6.5673,6.6386,6.7046,6.7687,6.7687,6.7687,6.7687,6.7707,6.767,6.7687,6.7687,6.7687,6.7724,4.0279,4.0658,4.0927,4.1259,4.2161,4.3158,4.4058,4.471,4.517,4.5381,4.5649,4.5534,4.494,4.5112,4.4997,4.4345,4.4307,4.398,0.0,0.0,4.1558,4.1579,3.9445,3.8616,3.9307,3.8424,3.8131,3.8584,3.7901,3.7694,3.7924,3.7686,3.8492,4.023,4.1502,4.2905,4.4422,4.4747,4.4499,4.3962,4.4902,4.5649,4.655,4.9388,5.1152,5.211,5.2066,5.2449,5.2954,5.2656,5.1392,0.0,5.1759,5.0363,4.8181,4.8644,4.826,4.7586,4.7124,4.7625,4.824,4.8125,4.8086,4.8048,4.7817,4.7663,4.8009,4.9471,5.0086,0.0,0.0,0.0,5.2034,5.1859,0.0,5.4618,5.3926,5.5911,0.0,0.0,0.0,0.0,0.0,6.5123,6.3345,5.8351,6.2172,6.4123,6.2888,6.2793,6.2805,6.2805,6.2805,6.2805,6.2805,6.2805,6.2792,6.2792,6.2815,6.302,6.3533,6.4741,6.5563,6.6003,6.721,6.7687,6.7687,6.7687,6.7687,6.7687,6.7707,6.8238,6.8914,6.8017,6.7724,6.7724,4.0329,4.1135,4.1387,4.0516,4.1723,4.312,4.4058,4.4211,4.4537,4.5399,4.6244,4.6724,0.0,0.0,0.0,0.0,0.0,4.7607,4.6799,0.0,4.5263,4.7702,4.2316,4.0392,4.2893,3.97,3.7584,3.6776,3.6738,3.7161,3.7969,3.7117,3.7655,3.9431,4.1899,4.2518,4.2019,4.5322,4.6647,4.6647,4.7588,4.9433,5.1567,0.0,5.1519,5.2954,5.2954,0.0,0.0,5.2005,5.1676,0.0,0.0,5.0993,5.148,5.0717,5.17,5.2587,5.0971,5.1125,5.1164,4.8702,4.8086,4.7894,4.7124,4.8163,4.9586,5.0471,5.1933,5.3087,5.3126,5.3164,5.3144,5.3144,5.322,0.0,0.0,5.572,0.0,0.0,0.0,0.0,0.0,6.4436,6.3341,0.0,6.1023,6.2873,6.2814,6.2793,6.2805,6.2805,6.2805,6.2805,6.2805,6.2805,6.2792,6.2801,6.2801,6.3643,6.5217,6.5254,6.6113,6.7614,6.7687,6.7687,6.7687,6.7687,6.7687,6.7687,6.7687,6.9593,7.1965,6.8879,6.7707,6.7834,4.0329,4.0663,4.0705,4.0419,4.1282,4.2489,4.3925,4.4193,4.4729,0.0,4.6628,0.0,0.0,4.7895,4.8068,0.0,0.0,4.776,4.6971,4.5799,0.0,0.0,0.0,4.1931,0.0,4.0546,3.9238,3.843,3.7853,3.8007,3.8854,3.8569,3.8723,3.9392,4.1953,4.3513,4.4323,4.6127,4.7434,4.8488,0.0,5.147,5.2721,0.0,5.2965,5.3985,5.3964,5.4309,0.0,5.438,5.3491,5.2702,5.3545,5.2449,5.107,5.1962,5.189,5.147,5.149,5.2125,5.2279,5.0317,4.9817,4.9586,4.874,4.8971,4.9663,5.051,5.201,5.301,5.2472,5.2818,5.3203,5.3203,5.3664,5.3664,0.0,5.428,0.0,0.0,0.0,0.0,0.0,0.0,0.0,0.0,6.1562,0.0,6.2814,6.2793,6.2805,6.2805,6.2805,6.2805,6.2805,6.2805,6.2792,6.2801,6.2823,6.3085,6.3742,6.593,6.721,6.7687,6.7687,6.7687,6.7687,6.7687,6.7687,6.7687,6.7707,6.8385,6.9228,6.8091,6.7724,6.7907,4.0317,4.0342,4.0307,4.0342,4.1052,4.2068,4.3465,4.425,0.0,0.0,4.7069,0.0,4.8048,0.0,4.8548,0.0,4.8856,4.8663,4.7855,4.6971,0.0,4.7394,4.5201,0.0,0.0,4.2316,4.0854,3.9738,3.8892,3.8738,3.9277,3.9277,3.9431,3.9815,4.1777,4.3722,4.5609,4.6837,4.8433,5.0294,5.2103,5.3182,0.0,0.0,5.422,5.4549,0.0,5.522,5.5703,5.5638,5.4841,5.4066,5.5178,5.3981,5.2426,5.3612,5.3234,5.2427,5.2721,5.3241,0.0,5.1548,5.1125,0.0,5.0048,5.0087,5.0625,5.1818,5.2895,5.378,5.4126,5.4126,5.4087,5.4087,5.4049,5.3259,0.0,5.3587,0.0,0.0,0.0,0.0,0.0,0.0,0.0,0.0,0.0,0.0,0.0,6.2835,6.2769,6.2805,6.2805,6.2805,6.2805,6.3209,6.3195,6.2823,6.3393,6.3978,6.4636,6.6753,6.7687,6.7687,6.7687,6.7687,6.7687,6.7687,6.7687,6.7687,6.7707,6.7726,6.7671,6.7689,6.7726,6.8019,4.0345,4.0384,4.0422,4.0422,4.1034,4.1875,4.2831,0.0,4.5801,0.0,4.7663,4.8202,4.824,4.8971,4.9471,4.9471,5.0202,5.0356,4.951,4.8663,0.0,0.0,4.7509,4.6471,4.8086,0.0,0.0,4.07,3.9854,3.9431,3.9431,3.9392,3.9777,4.0546,4.1393,4.3239,4.5701,4.7394,4.9625,5.2202,5.3895,5.4549,5.4587,5.5395,5.5203,5.4626,5.5395,5.5703,5.5703,5.5638,5.557,5.5485,5.5485,5.5437,5.5413,5.5531,5.5615,5.5445,5.4759,5.4549,5.4164,5.2472,5.201,0.0,0.0,0.0,5.251,5.4203,5.4626,5.5395,5.7703,5.678,5.5703,5.5665,5.428,5.2682,5.1162,5.3549,5.4336,0.0,0.0,0.0,0.0,0.0,0.0,0.0,0.0,6.4704,0.0,6.2859,6.2817,6.2818,6.2805,6.2805,6.2805,6.3833,6.3892,6.2829,6.4542,6.6239,6.7687,6.7687,6.7687,6.7687,6.7687,6.7687,6.7687,6.7687,6.7687,6.7687,6.7687,6.7817,6.7927,6.7945,6.7943,6.8215,4.1131,4.1762,4.2144,4.2144,4.1377,4.1451,0.0,0.0,0.0,0.0,4.8548,4.9317,4.9971,5.024,5.0356,5.0356,5.0548,0.0,0.0,0.0,0.0,5.0625,4.8625,4.7663,4.8086,4.6047,0.0,4.3316,4.1854,4.1162,4.1123,4.0508,4.0277,4.0546,4.1393,4.3239,4.5701,4.7394,5.0317,5.3933,5.4972,5.5011,5.4587,0.0,5.5203,5.4626,5.5395,5.5703,5.5703,5.5682,5.5638,5.5554,5.5554,5.5547,5.5461,5.5593,5.5615,5.5561,5.5412,5.5395,5.5126,5.4087,5.3356,5.2972,0.0,0.0,0.0,0.0,0.0,0.0,0.0,5.5588,5.5511,5.4895,5.3913,5.349,5.4297,0.0,0.0,5.4199,0.0,0.0,0.0,0.0,0.0,0.0,0.0,0.0,6.4741,0.0,6.2792,6.2798,6.2781,6.2805,6.2805,6.3122,6.3094,6.2829,6.5689,6.73,6.7687,6.7687,6.7687,6.7687,6.7687,6.7687,6.7687,6.7687,6.7687,6.7687,6.7707,6.9137,7.1267,7.125,7.1267,7.1358,4.157,4.2565,4.3388,4.3407,4.2984,4.3136,4.4592,4.5166,0.0,4.7855,4.8856,0.0,5.0087,5.0471,5.0702,5.0702,5.0702,0.0,5.0164,0.0,0.0,5.0125,4.9548,4.924,4.924,4.7932,0.0,4.5432,4.3739,4.2508,4.1777,4.0893,4.0508,4.0508,4.1008,4.2662,4.524,4.8432,5.1395,5.4049,5.5203,5.5434,0.0,5.5511,5.5434,5.5088,5.5549,5.5703,5.5703,5.5703,5.566,5.5615,5.5638,5.5593,5.5547,5.5638,5.5638,5.5638,5.5682,5.5703,5.5665,5.5588,5.5203,5.4972,5.5472,5.5588,5.5818,0.0,5.7319,5.7627,0.0,0.0,5.5318,5.4126,5.4126,5.4357,0.0,0.0,0.0,0.0,5.5703,0.0,0.0,0.0,0.0,0.0,0.0,0.0,0.0,0.0,6.3725,6.2844,6.2798,6.2826,6.2825,6.2769,6.2792,6.2829,6.6132,6.7694,6.7687,6.7731,6.7679,6.7687,6.7687,6.7687,6.7687,6.7687,6.7724,6.7853,6.9247,7.0937,7.25,7.252,7.25,7.248,4.2086,4.3312,4.448,4.4518,4.5188,4.5763,0.0,4.6606,0.0,4.8163,0.0,4.9586,4.9586,5.024,5.0702,5.0702,0.0,5.0356,4.9625,5.0279,5.0356,4.9586,5.0279,5.0702,5.0702,4.9856,4.8586,0.0,4.5163,4.3431,4.1777,4.0893,4.0508,4.0508,4.0623,4.2277,4.5278,4.9817,5.2433,5.3664,5.5126,5.5703,5.5703,5.5703,5.5703,5.5703,5.5703,5.5703,5.5703,5.5703,5.5682,5.5638,5.5682,5.5638,5.5531,5.5682,5.566,5.5638,5.5818,5.5857,5.6088,5.6934,5.7088,5.7049,5.728,5.7242,5.7434,5.8434,5.8011,5.8088,6.0089,0.0,5.528,5.349,5.4608,0.0,0.0,0.0,0.0,0.0,0.0,0.0,0.0,0.0,0.0,0.0,0.0,0.0,0.0,0.0,6.5095,6.3275,6.3238,6.3416,6.3792,6.3132,6.3014,6.3466,6.6371,6.7827,6.8025,6.7827,6.7691,6.7684,6.7704,6.7687,6.7687,6.7687,6.7927,6.8605,7.1414,7.25,7.25,7.2459,7.2496,7.2496,4.3618,4.5151,4.634,4.634,4.6531,4.7106,4.8491,4.824,4.8202,4.9048,4.9933,5.0471,5.0471,5.0587,5.0702,5.0702,5.0702,0.0,0.0,0.0,0.0,5.0471,5.0625,5.0702,5.0702,4.9856,4.8586,0.0,4.5163,4.3431,4.1777,4.0893,4.0508,4.0508,4.1239,4.4162,4.8625,5.024,5.2587,5.528,5.5588,5.5703,5.5703,5.5703,5.5703,5.5703,5.5703,5.5703,5.5703,5.5703,5.5703,5.5703,5.5703,5.5682,5.5682,5.5703,5.5703,5.5857,5.6549,5.678,5.6973,5.7857,5.7511,5.7357,5.8742,5.855,5.8511,6.005,6.0242,5.9858,5.8896,0.0,0.0,0.0,0.0,0.0,0.0,0.0,0.0,0.0,0.0,0.0,0.0,0.0,0.0,0.0,0.0,0.0,0.0,0.0,6.5703,0.0,6.5383,6.656,0.0,0.0,6.4159,6.6838,6.7411,6.8502,6.9873,6.8399,6.7703,6.7716,6.7715,6.7687,6.7687,6.7689,6.9247,7.1708,7.2279,7.248,7.2496,7.2496,7.2496,7.2496,4.6052,4.6916,4.7473,0.0,0.0,0.0,0.0,4.9433,4.9433,4.9394,4.9779,5.001,5.001,5.0433,5.0702,5.0702,5.0702,5.0702,5.0702,5.0702,5.0702,5.0702,5.0702,5.0702,5.0702,5.0279,4.9009,4.6894,0.0,4.3893,4.1777,4.0893,4.0508,4.0585,4.2777,4.5124,4.7625,5.0702,5.2933,5.4472,5.5357,5.5703,5.5703,5.5703,5.5972,5.6357,5.6357,5.6665,5.6973,5.6511,5.6665,5.6973,5.6511,5.6357,5.628,5.5818,5.5703,5.578,5.6203,5.6319,5.6511,5.7396,5.7319,5.7319,5.8588,5.8896,5.9165,5.9973,6.0473,6.0281,5.8627,5.7973,0.0,0.0,0.0,0.0,0.0,0.0,0.0,0.0,0.0,0.0,0.0,0.0,0.0,0.0,0.0,0.0,0.0,0.0,6.5904,0.0,0.0,0.0,6.8057,0.0,6.7351,6.8146,6.8973,6.9721,7.0361,6.9524,6.8578,6.7688,6.7691,6.7694,6.7851,6.9486,7.112,7.25,7.248,7.2516,7.2516,7.2503,7.3185,7.3887,4.7722,4.7991,4.8145,4.8337,4.8952,4.9471,4.9663,5.024,5.0433,4.9779,4.9663,4.9663,4.9663,5.0279,5.0702,5.0702,5.0702,5.0702,5.0702,5.0702,5.0702,5.0702,5.0702,5.0702,5.0702,5.0702,4.9548,0.0,0.0,4.447,4.2316,4.1085,4.0777,4.1431,4.4316,4.6086,4.7201,5.1241,5.3241,5.3857,5.5164,5.5818,5.5972,5.5972,5.6511,5.728,5.728,5.7819,5.8434,5.7742,5.7742,5.7896,5.7203,5.6857,5.6588,5.5895,5.5703,5.5742,5.5934,5.5972,5.6203,5.7049,5.7126,5.7242,5.8088,5.8665,5.9011,5.9204,5.9935,6.0127,5.8819,5.8704,0.0,0.0,0.0,0.0,0.0,0.0,0.0,0.0,0.0,0.0,0.0,0.0,0.0,0.0,0.0,0.0,6.0863,0.0,0.0,0.0,0.0,6.5876,6.5902,0.0,6.9538,6.9017,7.0299,7.076,7.0496,7.0422,6.9623,6.8264,6.8017,6.8208,6.8916,7.147,7.25,7.25,7.252,7.2483,7.2502,7.2489,7.3764,7.5282,4.6991,4.7606,4.8355,4.9163,0.0,4.9663,5.0471,5.0625,5.0664,5.0587,5.0587,5.0587,5.0587,5.0625,5.0702,5.0702,5.0702,5.0702,5.0702,5.0702,5.0702,5.0702,5.0702,5.0702,5.0702,5.0702,4.9817,0.0,0.0,4.5047,4.4008,4.1623,4.1739,4.397,4.5086,4.774,0.0,5.1818,5.3356,5.5472,5.5626,5.6165,5.6857,5.6857,5.7434,5.8165,5.8165,5.8704,5.9396,5.9281,5.8319,5.7088,5.7011,5.6472,5.5818,5.5703,5.5703,5.5857,5.6665,5.6857,5.7088,5.7973,5.7588,5.7242,5.8088,5.7742,5.7473,5.8242,5.905,5.9588,5.9435,6.0012,5.9181,0.0,0.0,0.0,0.0,0.0,6.0795,6.0811,0.0,0.0,0.0,6.0316,0.0,0.0,6.3676,0.0,0.0,0.0,0.0,6.5897,6.5923,6.5897,6.5897,6.62,6.7837,7.0689,7.0828,7.091,7.0823,7.0548,7.0302,7.0079,6.8952,6.9776,7.2059,7.2389,7.248,7.2516,7.2499,7.2473,7.2489,7.247,7.3766,7.5408,4.9163,4.9009,4.9163,5.001,4.974,4.9702,0.0,5.0702,5.0702,5.0702,5.0702,5.0702,5.0702,5.0702,5.0702,5.0702,5.0702,5.0702,5.0702,5.0702,5.0702,5.0702,5.0702,5.0702,5.0702,5.0702,5.0087,0.0,0.0,4.5932,4.5047,4.3508,4.3893,4.597,4.8317,5.0317,5.201,5.3549,5.478,5.5742,5.628,5.6665,5.7049,5.7588,5.8319,5.9011,5.9011,5.955,6.0281,6.0281,5.9473,5.8434,5.7934,5.7165,5.6357,5.5857,5.5703,5.578,5.6126,5.6203,5.628,5.6665,5.6472,5.6319,5.6665,5.6857,5.7088,5.7434,5.8588,5.9665,6.0165,6.0127,5.9588,5.8296,0.0,0.0,0.0,0.0,0.0,5.524,0.0,5.9219,0.0,0.0,0.0,0.0,0.0,0.0,0.0,0.0,0.0,6.29,0.0,6.5897,6.591,6.5904,6.7582,7.0887,7.0911,7.092,7.0902,7.0754,7.0724,7.072,7.0814,7.1537,7.2484,7.2534,7.2508,7.2508,7.2484,7.3228,7.4308,7.4319,7.4795,7.5447,5.0664,5.0394,5.0317,5.0933,5.0548,5.024,5.0625,5.0702,5.0702,5.0702,5.0702,5.0702,5.0702,5.0702,5.0702,5.0702,5.0702,5.0702,5.0702,5.0933,5.1048,5.1048,5.1279,0.0,5.1433,5.1433,5.1125,5.051,4.8856,4.7817,4.7432,4.6586,4.6971,4.8471,5.1125,5.2549,5.3126,5.4934,5.5857,5.6126,5.6742,5.728,5.778,5.8434,5.9165,5.9896,5.9896,6.0281,6.0781,6.0781,6.005,5.905,5.8473,5.7703,5.6857,5.6242,5.6088,5.6088,5.6088,5.6088,5.6011,5.5742,5.5703,5.5703,5.5703,5.6165,5.6665,5.6934,5.8165,5.9396,6.0242,6.0127,5.9935,6.005,0.0,0.0,0.0,6.105,0.0,5.5715,5.8496,5.9326,5.5538,6.38,0.0,0.0,0.0,0.0,0.0,0.0,0.0,0.0,0.0,0.0,6.591,6.6872,6.8564,7.0887,7.0898,7.0909,7.0892,7.0892,7.1452,7.2465,7.3192,7.3477,7.3364,7.3379,7.3409,7.3363,7.3349,7.4274,7.5501,7.5506,7.5513,7.5513,5.051,5.1318,5.1895,5.1895,5.1895,5.1625,5.0818,5.0702,5.0702,5.0702,5.0702,5.0702,5.0702,5.0702,5.0702,5.0702,5.0702,5.0702,5.0702,5.1433,5.1895,0.0,0.0,5.3164,5.3164,5.3164,5.3164,5.3164,0.0,0.0,5.1818,5.101,5.1048,5.1895,5.2779,5.4087,5.5665,5.5703,5.6203,5.6973,5.6973,5.7973,5.9473,5.9473,6.0012,6.0781,6.0781,6.0781,6.0781,6.0781,5.9704,5.8319,5.8319,5.7703,5.6973,5.6973,5.6973,5.6973,5.6973,5.6973,5.678,5.5934,5.5703,5.5703,5.5703,5.5703,5.5972,5.6819,5.7703,5.855,5.9358,6.0204,6.0242,5.8588,0.0,0.0,0.0,6.1597,0.0,6.572,6.2827,6.2073,6.5404,6.5859,0.0,0.0,0.0,0.0,0.0,0.0,0.0,6.5743,6.5884,0.0,6.591,6.9155,7.0875,7.0887,7.0898,7.0898,7.0898,7.0909,7.2732,7.5959,7.5962,7.5778,7.5449,7.5449,7.5434,7.5426,7.5452,7.5466,7.5469,7.5472,7.5501,7.5501,5.2356,5.2626,5.2779,5.2779,5.2279,5.1818,5.1548,5.1048,5.0702,5.0702,5.0702,5.0702,5.0702,5.0702,5.0933,0.0,5.151,5.1779,0.0,5.2626,5.2779,5.2779,5.3049,5.3203,5.3203,5.3203,5.351,5.4087,0.0,0.0,5.1933,5.2241,5.2856,5.3703,5.4549,5.5203,5.5742,5.6319,5.6742,5.7088,5.8242,5.9011,5.955,6.0165,6.055,6.0781,6.0781,6.0781,6.0781,6.0781,6.0435,5.9896,5.9319,5.7742,5.6088,5.6088,5.6088,5.6088,5.6088,5.6088,5.6049,5.578,5.5703,5.5703,5.5703,5.5703,5.6126,5.7588,5.8127,5.8896,6.0896,6.1512,6.1704,6.1704,6.2166,0.0,6.1017,6.3806,6.5895,6.5895,5.8818,5.5222,0.0,6.3152,0.0,0.0,0.0,0.0,0.0,0.0,0.0,0.0,6.5923,0.0,6.5897,6.9232,7.0914,7.0898,7.0898,7.0898,7.0909,7.0882,7.2775,7.5979,7.5993,7.5944,7.5814,7.5588,7.5513,7.5513,7.5475,7.5472,7.5506,7.5497,7.5527,7.5527,5.3723,5.3933,5.4049,5.3741,5.3263,5.2724,5.201,5.151,5.1105,5.076,5.0971,5.1164,5.1164,5.1433,5.1702,5.1895,5.2202,5.2626,5.3164,5.351,5.3703,5.3703,5.3972,5.4126,5.4126,5.4126,0.0,5.4934,5.3857,5.3318,5.3356,5.3895,5.4434,5.4972,5.5472,5.5857,5.6203,5.678,5.7357,5.8011,5.9088,5.9704,6.005,6.0589,6.0781,6.0781,6.0781,6.0781,6.0781,6.0781,6.0589,6.0204,5.9665,5.7973,5.6319,5.6934,5.6896,5.6665,5.6665,5.6434,5.6088,5.578,5.5703,5.5703,5.5703,5.5703,5.6203,5.7934,5.8319,5.9088,6.1627,6.2089,6.2358,6.3166,6.3295,6.3372,6.3603,6.4936,6.5884,6.5895,0.0,0.0,0.0,6.3397,6.5909,0.0,0.0,0.0,0.0,0.0,0.0,6.5884,6.5897,6.591,6.5897,6.9232,7.0914,7.0898,7.0898,7.0898,7.0948,7.2217,7.3976,7.6005,7.6024,7.601,7.5955,7.566,7.5523,7.5532,7.5532,7.5493,7.5523,7.5633,7.5704,7.5671,5.459,5.5203,5.5472,5.4724,5.4669,5.4066,5.2262,5.2138,5.1863,5.0914,5.1471,5.201,5.201,5.2779,5.2972,5.2164,5.2818,5.3318,5.3356,5.4126,5.4587,5.4587,5.528,5.5703,5.5703,5.5703,5.5703,5.5703,5.5703,5.5703,5.5703,5.5703,5.5703,5.5703,5.5742,5.6242,5.7011,5.7126,5.805,5.9511,5.9588,6.0089,6.0781,6.0781,6.0781,6.0781,6.0781,6.0781,6.0781,6.0781,6.0242,5.9588,5.9588,5.8511,5.755,5.8934,5.8742,5.8127,5.8127,5.7511,5.6703,5.5895,5.5742,5.5818,5.5857,5.5895,5.6357,5.805,5.8434,5.9242,6.1704,6.2204,6.2551,6.3358,6.4166,6.4589,6.4359,6.5243,6.5884,6.5881,0.0,0.0,6.5881,6.5895,6.5884,0.0,0.0,0.0,0.0,0.0,6.5909,6.5897,6.5897,6.591,6.5897,6.9232,7.0914,7.0898,7.0898,7.0898,7.1025,7.4427,7.5995,7.6005,7.5976,7.5994,7.5972,7.5648,7.5545,7.5485,7.5485,7.5485,7.5595,7.5884,7.5993,7.5955,5.5416,5.5549,5.5689,5.5575,5.5105,5.4343,5.3349,5.3135,5.2763,5.1885,5.2415,5.2895,5.2895,5.3664,5.4126,5.3895,5.4087,5.4434,5.5049,5.528,5.5434,5.5434,5.5588,5.5703,5.5703,5.5703,5.5703,5.5703,5.5703,5.5703,5.5703,5.5703,5.5703,5.5742,5.6395,5.6819,5.7088,5.8357,5.9127,5.955,6.0204,6.0627,6.0781,6.0781,6.0781,6.0781,6.0781,6.0781,6.0781,6.0781,6.0666,6.0473,6.0473,6.0204,5.9588,5.805,5.6973,5.6319,5.6319,5.6165,5.5972,5.5742,5.6203,5.6857,5.755,5.7665,5.7973,5.9011,5.9742,6.0781,6.2666,6.3551,6.4282,6.5166,6.5474,6.5551,6.5513,6.5743,6.5897,6.5884,6.5884,6.5884,6.5884,6.5884,6.5923,0.0,0.0,6.7397,6.4834,6.5461,6.5884,6.5897,6.5897,6.591,6.5897,6.9232,7.0914,7.0898,7.0898,7.0909,7.1007,7.4427,7.5995,7.5976,7.6015,7.5994,7.601,7.5902,7.5724,7.5507,7.5507,7.5654,7.5871,7.5979,7.5979,7.5979,5.5769,5.5769,5.5808,5.5879,5.5637,5.5009,5.3805,5.3922,5.3676,5.2276,5.3142,5.3861,5.38,5.4549,5.5049,5.5049,5.5049,5.5241,5.5665,5.5703,5.5703,5.5703,5.5703,5.5703,5.5703,5.5703,5.5703,5.5703,5.5703,5.5895,5.628,5.5895,5.6126,5.6896,5.6973,5.7434,5.8204,5.9127,5.9742,6.0127,6.0589,6.0781,6.0781,6.0781,6.0781,6.0781,6.0781,6.0781,6.0781,6.0781,6.0781,6.0781,6.0781,6.0781,6.0512,5.9127,5.7857,5.678,5.6395,5.628,5.6395,5.678,5.7242,5.7703,5.8204,5.8319,5.8627,5.9858,6.0473,6.1435,6.3512,6.4282,6.4897,6.5743,6.5897,6.5897,6.5897,6.5897,6.5897,6.5897,6.5897,6.5897,6.5897,6.5897,6.5897,6.5897,6.7589,0.0,6.5974,6.5923,6.5923,6.5897,6.5897,6.591,6.5897,6.9244,7.0898,7.0871,7.0871,7.0882,7.1017,7.4466,7.6005,7.6015,7.6015,7.5985,7.5994,7.5972,7.5902,7.5756,7.5756,7.5864,7.601,7.6002,7.5994,7.5994,5.593,5.593,5.5946,5.5962,5.6146,5.5745,5.4108,5.4675,5.4616,5.2763,5.3901,5.4821,5.4685,5.528,5.5703,5.5703,5.5703,5.5703,5.5703,5.5703,5.5703,5.5703,5.5703,5.5703,5.5703,5.5703,5.5703,5.5703,5.5703,5.6088,5.678,5.6165,5.6703,5.8088,5.7588,5.8165,5.9511,5.9627,6.0127,6.0781,6.0781,6.0781,6.0781,6.0781,6.0781,6.0781,6.0781,6.0781,6.0781,6.0781,6.0896,6.1012,6.1012,6.1089,6.1127,6.0858,5.9896,5.8665,5.7627,5.728,5.7396,5.828,5.8588,5.8704,5.8858,5.8973,5.9473,6.0896,6.1281,6.2012,6.4205,6.4705,6.5013,6.559,6.582,6.5859,6.5705,6.582,6.5897,6.5897,6.5897,6.5897,6.5897,6.5897,6.5897,6.591,6.5897,6.5897,6.591,6.5897,6.5897,6.5897,6.5897,6.6141,6.6653,6.9459,7.114,7.1668,7.164,7.1381,7.1017,7.4437,7.6005,7.6015,7.6015,7.6015,7.6015,7.6002,7.6002,7.6002,7.6002,7.6002,7.6002,7.5985,7.6015,7.6015,5.6057,5.6057,5.6097,5.6212,5.6251,5.602,5.5171,5.5645,5.5726,5.4595,5.5203,5.5671,5.5532,5.5626,5.5703,5.5703,5.5703,5.5703,5.5703,5.5703,5.5703,5.5703,5.5703,5.5703,5.5703,5.5703,5.5703,5.5703,5.5703,5.578,5.5895,5.6511,5.6934,5.7242,5.855,5.9242,5.955,6.0281,6.0666,6.0781,6.0781,6.0781,6.0781,6.0781,6.0781,6.0781,6.0781,6.0781,6.0781,6.0781,6.1281,6.1897,6.1897,6.2358,6.2627,6.1204,6.1127,6.1166,5.955,5.8627,5.828,5.9127,5.9858,6.0589,6.132,6.205,6.2589,6.2858,6.3512,6.4128,6.4551,6.5205,6.5513,6.4897,6.5436,6.5628,6.4897,6.5436,6.5897,6.5897,6.5897,6.5897,6.5897,6.5897,6.5897,6.5897,6.5897,6.5897,6.5897,6.5897,6.5897,6.5897,6.5897,6.7269,7.0105,7.0629,7.2322,7.5215,7.5187,7.3707,7.1017,7.4437,7.6005,7.6015,7.6015,7.6015,7.6015,7.6015,7.5985,7.5985,7.5985,7.5985,7.5985,7.6015,7.6015,7.6015,5.6191,5.6202,5.6212,5.6299,5.6386,5.6185,5.543,5.5854,5.596,5.5009,5.549,5.5864,5.5686,5.5703,5.5703,5.5703,5.5703,5.5703,5.5703,5.5703,5.5703,5.5703,5.6126,5.6626,5.7088,5.7088,5.7088,5.7088,5.7088,5.7319,5.7742,5.7703,5.8165,5.905,5.9358,5.9742,6.0242,6.0627,6.0781,6.0781,6.0781,6.0781,6.0781,6.0781,6.0781,6.0858,6.132,6.1512,6.155,6.2012,6.2397,6.2743,6.2743,6.332,6.3858,6.3051,6.1512,6.005,6.0165,5.9588,5.9165,5.9973,6.0512,6.1012,6.1897,6.2397,6.2781,6.3205,6.4012,6.4589,6.4589,6.532,6.5782,6.5359,6.5628,6.5743,6.5359,6.5628,6.5897,6.5897,6.5897,6.5897,6.5897,6.5897,6.5897,6.5897,6.5897,6.5897,6.5897,6.5897,6.5897,6.5897,6.591,6.7487,7.0875,7.0909,7.2629,7.6013,7.5995,7.5197,7.3716,7.5284,7.6005,7.6015,7.6015,7.6015,7.6015,7.6015,7.6015,7.6015,7.6015,7.6015,7.6015,7.6015,7.6015,7.6015,5.6363,5.6379,5.6379,5.6379,5.6503,5.6372,5.5708,5.601,5.6038,5.5294,5.5606,5.5864,5.5686,5.5703,5.5703,5.5703,5.5703,5.578,5.5972,5.6011,5.6011,5.6011,5.6819,5.7627,5.828,5.8319,5.8319,5.8319,5.8319,5.8627,5.9204,5.8781,5.9281,6.0473,6.0012,6.0165,6.0781,6.0781,6.0781,6.0781,6.0781,6.0781,6.0781,6.0781,6.0781,6.0896,6.1781,6.2089,6.2204,6.3051,6.3435,6.3589,6.3589,6.4205,6.4859,6.4666,6.2166,5.9742,6.1012,6.0896,6.055,6.1204,6.1512,6.1858,6.2512,6.282,6.3166,6.3782,6.4436,6.4897,6.4897,6.5436,6.582,6.5628,6.5782,6.582,6.5628,6.5782,6.5897,6.5897,6.5897,6.5897,6.5897,6.5897,6.5897,6.5897,6.5897,6.5897,6.5897,6.5897,6.5897,6.5872,6.6679,6.8294,7.0848,7.0882,7.2601,7.5975,7.5197,7.5207,7.6005,7.6005,7.6005,7.6015,7.6015,7.6015,7.6015,7.6015,7.6015,7.6015,7.6015,7.6015,7.6015,7.6015,7.6015,7.6015,5.6602,5.6563,5.6563,5.6563,5.6602,5.6567,5.6528,5.64,5.6232,5.6032,5.5955,5.5864,5.5686,5.5703,5.5703,5.5703,5.5703,5.6049,5.6857,5.6896,5.6896,5.6896,5.7742,5.8242,5.8319,5.8319,5.8319,5.8319,5.8319,5.8319,5.8396,5.9088,5.9473,5.9627,6.0358,6.0742,6.0781,6.0781,6.0781,6.0781,6.0781,6.0781,6.0781,6.0781,6.0781,6.0896,6.1781,6.2089,6.2204,6.3051,6.3858,6.4512,6.4512,6.5089,6.5628,6.4859,6.382,6.2974,6.3089,6.3089,6.3051,6.3089,6.3743,6.4359,6.4397,6.5051,6.5628,6.5705,6.5743,6.5782,6.5782,6.5859,6.5628,6.482,6.5359,6.5628,6.482,6.5397,6.5897,6.5897,6.5897,6.5897,6.5897,6.5897,6.5897,6.5897,6.5897,6.5897,6.5897,6.5897,6.591,6.5897,6.8898,7.0644,7.0887,7.0882,7.2601,7.5975,7.2803,7.2928,7.6005,7.5976,7.6015,7.6015,7.6015,7.6015,7.6015,7.6015,7.6015,7.6015,7.6015,7.6015,7.6015,7.6015,7.6015,7.6015,5.6606,5.6606,5.6606,5.6606,5.6606,5.6606,5.6606,5.6439,5.6232,5.611,5.5955,5.5864,5.5686,5.5703,5.5703,5.5703,5.6203,5.6626,5.6973,5.7511,5.8011,5.8511,5.8858,5.9319,5.9858,5.9858,5.9858,5.9858,5.9858,5.9858,5.9858,6.0165,6.0319,6.0319,6.0666,6.0781,6.0781,6.0781,6.0781,6.0781,6.0781,6.0781,6.0858,6.1396,6.1589,6.1781,6.3166,6.3666,6.3782,6.4628,6.5128,6.5397,6.5397,6.5628,6.582,6.5513,6.5166,6.4897,6.4897,6.4128,6.332,6.332,6.3551,6.3935,6.4474,6.4859,6.5243,6.5782,6.5897,6.5897,6.5897,6.5897,6.5782,6.5474,6.5667,6.5782,6.5436,6.5705,6.5897,6.5897,6.5897,6.5897,6.5897,6.5897,6.5897,6.5897,6.5897,6.5897,6.5897,6.5897,6.591,6.5897,6.9155,7.0914,7.0925,7.0882,7.2629,7.5964,7.2534,7.2698,7.5995,7.6005,7.6015,7.6015,7.6015,7.6015,7.6015,7.6015,7.6015,7.6015,7.6015,7.6015,7.6015,7.6015,7.6015,7.6015,5.6606,5.6606,5.6606,5.6606,5.6606,5.6606,5.6606,5.6439,5.6232,5.611,5.5955,5.5864,5.5686,5.5934,5.6088,5.6088,5.6896,5.7511,5.778,5.8588,5.9204,5.9473,5.9742,6.0204,6.0781,6.0781,6.0781,6.0781,6.0781,6.0781,6.0781,6.0781,6.0781,6.0781,6.0781,6.0781,6.0781,6.0781,6.0781,6.0781,6.0781,6.0781,6.0896,6.1781,6.2089,6.232,6.4012,6.4589,6.4743,6.559,6.5897,6.5897,6.5897,6.5897,6.5897,6.5897,6.5897,6.5897,6.5897,6.5013,6.4128,6.4128,6.4128,6.4282,6.4859,6.5013,6.5166,6.5782,6.5897,6.5897,6.5897,6.5897,6.5897,6.5897,6.5897,6.5897,6.5897,6.5897,6.5897,6.5897,6.5897,6.5897,6.5897,6.5897,6.5897,6.5897,6.5897,6.5897,6.5897,6.5897,6.591,6.5897,6.9155,7.0914,7.0898,7.092,7.2629,7.5964,7.2534,7.2698,7.5995,7.6005,7.6015,7.6015,7.6015,7.6015,7.6015,7.6015,7.6015,7.6015,7.6015,7.6015,7.6015,7.6015,7.6015,7.6015,5.6606,5.6606,5.6606,5.6606,5.6606,5.6606,5.6606,5.6439,5.6232,5.6122,5.5971,5.5864,5.5724,5.6472,5.6973,5.7011,5.7819,5.8665,5.9473,6.0319,6.0396,5.955,6.0319,6.0781,6.0781,6.0781,6.0781,6.0781,6.0781,6.0781,6.0781,6.0781,6.0781,6.0781,6.0781,6.0781,6.0781,6.0781,6.0781,6.0781,6.0781,6.0781,6.0896,6.1781,6.2089,6.232,6.4012,6.4628,6.4743,6.559,6.5897,6.5897,6.5897,6.5897,6.5897,6.5897,6.5897,6.5897,6.5897,6.5897,6.5897,6.5897,6.5897,6.5897,6.5897,6.5897,6.5897,6.5897,6.5897,6.5897,6.5897,6.5897,6.5897,6.5897,6.5897,6.5897,6.5897,6.5897,6.5897,6.5897,6.5897,6.5897,6.5897,6.5897,6.5897,6.5897,6.5897,6.5897,6.5897,6.5897,6.591,6.5897,6.9155,7.0887,7.0909,7.0958,7.264,7.5975,7.2534,7.2698,7.5995,7.6005,7.6015,7.6015,7.6015,7.6015,7.6015,7.6015,7.6015,7.6015,7.6015,7.6015,7.6015,7.6015,7.6015,7.6015,5.6606,5.7035,5.727,5.6684,5.7074,5.7231,5.6684,5.6553,5.6439,5.6281,5.6122,5.6203,5.6714,5.6925,5.7242,5.7857,5.8665,5.9511,6.0358,6.0666,6.0666,6.0435,6.0666,6.0781,6.0781,6.0781,6.0781,6.0781,6.0781,6.0781,6.0781,6.0781,6.0781,6.0781,6.0781,6.0781,6.0781,6.0781,6.0781,6.0781,6.0781,6.1166,6.1781,6.2627,6.332,6.4012,6.5089,6.5513,6.5551,6.582,6.5897,6.5897,6.5897,6.5897,6.5897,6.5897,6.5897,6.5897,6.5897,6.5897,6.5897,6.5897,6.5897,6.5897,6.5897,6.5897,6.5897,6.5897,6.5897,6.5897,6.5897,6.5897,6.5897,6.5897,6.5897,6.5897,6.5897,6.5897,6.5897,6.5897,6.5897,6.5897,6.5897,6.5897,6.5897,6.5897,6.5897,6.5897,6.591,6.5897,6.591,6.5897,6.9155,7.0887,7.0892,7.3283,7.4994,7.5975,7.2534,7.2698,7.5995,7.6005,7.6015,7.6015,7.6015,7.6015,7.6015,7.6015,7.6015,7.6015,7.6015,7.6015,7.6015,7.6015,7.6015,7.6015,5.6606,5.6996,5.7153,5.6684,5.6996,5.7153,5.6684,5.6606,5.6665,5.6792,5.6729,5.6977,5.773,5.7969,5.8315,5.8834,5.9557,6.0242,6.0781,6.0781,6.0781,6.0781,6.0781,6.0781,6.0781,6.0781,6.0781,6.0781,6.0781,6.0781,6.0781,6.0781,6.0781,6.0781,6.0781,6.0781,6.0781,6.0781,6.0781,6.0819,6.1166,6.1627,6.2204,6.3397,6.4128,6.4705,6.559,6.5897,6.5897,6.5897,6.5897,6.5897,6.5897,6.5897,6.5897,6.5897,6.5897,6.5897,6.5897,6.5897,6.5897,6.5897,6.5897,6.5897,6.5897,6.5897,6.5897,6.5897,6.5897,6.5897,6.5897,6.5897,6.5897,6.5897,6.5897,6.5897,6.5897,6.5897,6.5897,6.5897,6.5897,6.5897,6.5897,6.5897,6.5897,6.5897,6.7141,6.7269,6.5949,6.5897,6.591,6.5897,6.9155,7.0925,7.0892,7.4312,7.6024,7.5947,7.2506,7.2698,7.5995,7.6005,7.6015,7.6015,7.6015,7.6015,7.6015,7.6015,7.6015,7.6015,7.6015,7.6015,7.6015,7.6015,7.6015,7.6015,5.6606,5.6645,5.6684,5.6606,5.6645,5.6684,5.6606,5.6645,5.6938,5.7541,5.768,5.7994,5.8752,5.942,5.9841,5.9919,6.0453,6.0781,6.0781,6.0781,6.0781,6.0781,6.0781,6.0781,6.0781,6.0781,6.0781,6.0781,6.0781,6.0781,6.0781,6.0781,6.0781,6.0781,6.0781,6.0781,6.0781,6.0781,6.0781,6.0858,6.1743,6.2127,6.2358,6.3974,6.4666,6.482,6.5628,6.5897,6.5897,6.5897,6.5897,6.5897,6.5897,6.5897,6.5897,6.5897,6.5897,6.5897,6.5897,6.5897,6.5897,6.5897,6.5897,6.5897,6.5897,6.5897,6.5897,6.5897,6.5897,6.5897,6.5897,6.5897,6.5897,6.5897,6.5897,6.5897,6.5897,6.5897,6.5897,6.5897,6.5897,6.5897,6.5897,6.5897,6.5897,6.5897,6.8706,6.9117,6.6051,6.5897,6.591,6.5897,6.9155,7.0925,7.0892,7.4312,7.5995,7.5957,7.2544,7.2698,7.5995,7.6005,7.6015,7.6015,7.6015,7.6015,7.6015,7.6015,7.6015,7.6015,7.6015,7.6015,7.6015,7.6015,7.6015,7.6053,5.6606,5.7113,5.7348,5.6723,5.7113,5.7348,5.6684,5.7113,5.7577,5.7724,5.8265,5.8957,5.9786,5.9832,6.0035,6.0692,6.0762,6.0781,6.0781,6.0781,6.0781,6.0781,6.0781,6.0781,6.0781,6.0781,6.0781,6.0781,6.0781,6.0781,6.0781,6.0781,6.0781,6.0781,6.0781,6.0781,6.0781,6.0781,6.0781,6.0858,6.1743,6.2474,6.3166,6.4205,6.5013,6.5628,6.582,6.5897,6.5897,6.5897,6.5897,6.5897,6.5897,6.5897,6.5897,6.5897,6.5897,6.5897,6.5897,6.5897,6.5897,6.5897,6.5897,6.5897,6.5897,6.5897,6.5897,6.5897,6.5897,6.5897,6.5897,6.5897,6.5897,6.5897,6.5897,6.5897,6.5897,6.5897,6.5897,6.5897,6.5897,6.5897,6.5897,6.5897,6.5897,6.591,6.659,6.6667,6.5949,6.5884,6.5897,6.5897,6.9167,7.0925,7.0882,7.4273,7.5995,7.5957,7.2544,7.2698,7.5995,7.6005,7.6015,7.6015,7.6015,7.6015,7.6015,7.6015,7.6015,7.6015,7.6015,7.6015,7.6015,7.6015,7.6015,7.637,5.6606,5.6957,5.7074,5.6684,5.727,5.766,5.7231,5.7894,5.8558,5.8987,5.9391,5.9903,6.0711,6.0617,6.061,6.0864,6.085,6.0781,6.0781,6.0781,6.0781,6.0781,6.0781,6.0781,6.0781,6.0781,6.0781,6.0781,6.0781,6.0781,6.0781,6.0781,6.0781,6.0781,6.0781,6.0781,6.0781,6.0781,6.105,6.1473,6.232,6.3166,6.4012,6.4897,6.5513,6.5897,6.5897,6.5897,6.5897,6.5897,6.5897,6.5897,6.5897,6.5897,6.5897,6.5897,6.5897,6.5897,6.5897,6.5897,6.5897,6.5897,6.5897,6.5897,6.5897,6.5897,6.5897,6.5897,6.5897,6.5897,6.5897,6.5897,6.5897,6.5897,6.5897,6.5897,6.5897,6.5897,6.5897,6.5897,6.5897,6.5897,6.5897,6.5897,6.5897,6.5872,6.591,6.659,6.818,6.6795,6.6653,6.8244,7.0002,7.0898,7.0909,7.264,7.4389,7.5947,7.2506,7.2698,7.5995,7.6005,7.6015,7.6015,7.6015,7.6015,7.6015,7.6015,7.6015,7.6015,7.6015,7.6015,7.6015,7.6015,7.7015,7.8699,5.6606,5.6723,5.6801,5.6801,5.7465,5.8011,5.8011,5.8753,5.9573,6.0315,6.0549,6.0846,6.1487,6.1328,6.1103,6.0827,6.0781,6.0781,6.0781,6.0781,6.0781,6.0781,6.0781,6.0781,6.0781,6.0781,6.0781,6.0781,6.0781,6.0781,6.0781,6.0781,6.0781,6.0781,6.0781,6.0781,6.0781,6.0781,6.1281,6.2166,6.2974,6.382,6.4705,6.5551,6.5897,6.5897,6.5897,6.5897,6.5897,6.5897,6.5897,6.5897,6.5897,6.5897,6.5897,6.5897,6.5897,6.5897,6.5897,6.5897,6.5897,6.5897,6.5897,6.5897,6.5897,6.5897,6.5897,6.5897,6.5897,6.5897,6.5897,6.5897,6.5897,6.5897,6.5897,6.5897,6.5897,6.5897,6.5897,6.5897,6.5897,6.5897,6.5897,6.5897,6.5897,6.5897,6.591,6.7346,7.0722,6.7705,6.7422,7.0798,7.0914,7.0898,7.0909,7.092,7.2629,7.5936,7.2534,7.2659,7.5995,7.6005,7.6015,7.6015,7.6015,7.6015,7.6015,7.6015,7.6015,7.6015,7.6015,7.6015,7.6015,7.6015,7.816,8.1107,5.6606,5.7153,5.7621,5.7621,5.8363,5.8909,5.8909,5.9651,6.0276,6.0393,6.1056,6.1559,6.1671,6.1373,6.1103,6.0827,6.0781,6.0781,6.0781,6.0781,6.0781,6.0781,6.0781,6.0781,6.0781,6.0781,6.0781,6.0781,6.0781,6.0781,6.0781,6.0781,6.0781,6.0781,6.0781,6.0781,6.0781,6.0781,6.1281,6.2166,6.2974,6.382,6.4705,6.5551,6.5897,6.5897,6.5897,6.5897,6.5897,6.5897,6.5897,6.5897,6.5897,6.5897,6.5897,6.5897,6.5897,6.5897,6.5897,6.5897,6.5897,6.5897,6.5897,6.5897,6.5897,6.5897,6.5897,6.5897,6.5897,6.5897,6.5897,6.5897,6.5897,6.5897,6.5897,6.5897,6.5897,6.5897,6.5897,6.5897,6.5897,6.5897,6.5897,6.5897,6.5897,6.5897,6.591,6.7385,7.0696,6.7718,6.746,7.0771,7.0925,7.0898,7.0898,7.0909,7.2619,7.5964,7.2524,7.2688,7.5995,7.6005,7.6015,7.6015,7.6015,7.6015,7.6015,7.6015,7.6015,7.6015,7.6015,7.6015,7.6015,7.5994,7.8169,8.1077,5.7894,5.8285,5.8519,5.8519,5.9261,5.9846,5.9846,6.0588,6.1134,6.1134,6.1447,6.1666,6.1595,6.1279,6.102,6.0804,6.0781,6.0781,6.0781,6.0781,6.0781,6.0781,6.0781,6.0781,6.0781,6.0781,6.0781,6.0781,6.0781,6.0781,6.0781,6.0781,6.0781,6.0781,6.0781,6.105,6.1512,6.1512,6.2281,6.3512,6.3897,6.4551,6.5359,6.5743,6.5897,6.5897,6.5897,6.5897,6.5897,6.5897,6.5897,6.5897,6.5897,6.5897,6.5897,6.5897,6.5897,6.5897,6.5897,6.5897,6.5897,6.5897,6.5897,6.5897,6.5897,6.5897,6.5897,6.5897,6.5897,6.5897,6.5897,6.5897,6.5897,6.5897,6.5897,6.5897,6.5897,6.5897,6.5897,6.5897,6.5897,6.5897,6.5897,6.5897,6.5897,6.5897,6.591,6.6551,6.8039,6.8475,6.9398,7.0848,7.0898,7.0898,7.0898,7.0909,7.1668,7.3147,7.1612,7.2688,7.5995,7.6005,7.6015,7.6015,7.6015,7.6015,7.6015,7.6015,7.6015,7.6015,7.6015,7.6015,7.5985,7.5994,7.8139,8.1116]},{"header":{"parameterUnit":"m.s-1","parameterCategory":1,"la1":30.6,"la2":28.766,"lo1":-90.7593,"lo2":-88.6598,"dx":0.0162,"dy":0.0183,"nx":116,"ny":114,"refTime":"2022-12-14T06:00:00:Z","depth":0,"parameterNumber":3,"parameterNumberName":"V-component_of_WINDS"},"data":[0.0,0.0,0.0,0.0,0.0,0.0,0.0,0.0,0.0,0.0,0.0,0.0,0.0,0.0,0.0,0.0,0.0,0.0,0.0,0.0,0.0,0.0,0.0,0.0,0.0,0.0,0.0,0.0,0.0,0.0,0.0,0.0,0.0,0.0,0.0,0.0,0.0,0.0,0.0,0.0,0.0,0.0,0.0,0.0,0.0,0.0,0.0,0.0,0.0,0.0,0.0,0.0,0.0,0.0,0.0,0.0,0.0,0.0,0.0,0.0,0.0,0.0,0.0,0.0,0.0,0.0,0.0,0.0,0.0,0.0,0.0,0.0,0.0,0.0,0.0,0.0,0.0,0.0,0.0,0.0,0.0,0.0,0.0,0.0,0.0,0.0,0.0,0.0,0.0,0.0,0.0,0.0,0.0,0.0,0.0,0.0,0.0,0.0,0.0,0.0,0.0,0.0,0.0,0.0,0.0,0.0,0.0,0.0,0.0,0.0,0.0,0.0,0.0,0.0,0.0,0.0,0.0,0.0,0.0,0.0,0.0,0.0,0.0,0.0,0.0,0.0,0.0,0.0,0.0,0.0,0.0,0.0,0.0,0.0,0.0,0.0,0.0,0.0,0.0,0.0,0.0,0.0,0.0,0.0,0.0,0.0,0.0,0.0,0.0,0.0,0.0,0.0,0.0,0.0,0.0,0.0,0.0,0.0,0.0,0.0,0.0,0.0,0.0,0.0,0.0,0.0,0.0,0.0,0.0,0.0,0.0,0.0,0.0,0.0,0.0,0.0,0.0,0.0,0.0,0.0,0.0,0.0,0.0,0.0,0.0,0.0,0.0,0.0,0.0,0.0,0.0,0.0,0.0,0.0,0.0,0.0,0.0,0.0,0.0,0.0,0.0,0.0,0.0,0.0,0.0,0.0,0.0,0.0,0.0,0.0,0.0,0.0,0.0,0.0,0.0,0.0,0.0,0.0,0.0,0.0,0.0,0.0,0.0,0.0,0.0,0.0,0.0,0.0,0.0,0.0,0.0,0.0,0.0,0.0,0.0,0.0,0.0,0.0,0.0,0.0,0.0,0.0,0.0,0.0,0.0,0.0,0.0,0.0,0.0,0.0,0.0,0.0,0.0,0.0,0.0,0.0,0.0,0.0,0.0,0.0,0.0,0.0,0.0,0.0,0.0,0.0,0.0,0.0,0.0,0.0,0.0,0.0,0.0,0.0,0.0,0.0,0.0,0.0,0.0,0.0,0.0,0.0,0.0,0.0,0.0,0.0,0.0,0.0,0.0,0.0,0.0,0.0,0.0,0.0,0.0,0.0,0.0,0.0,0.0,0.0,0.0,0.0,0.0,0.0,0.0,0.0,0.0,0.0,0.0,0.0,0.0,0.0,0.0,0.0,0.0,0.0,0.0,0.0,0.0,0.0,0.0,0.0,0.0,0.0,0.0,0.0,0.0,0.0,0.0,0.0,0.0,0.0,0.0,0.0,0.0,0.0,0.0,0.0,0.0,0.0,0.0,0.0,0.0,0.0,0.0,0.0,0.0,0.0,0.0,0.0,0.0,0.0,0.0,0.0,0.0,0.0,0.0,0.0,0.0,0.0,0.0,0.0,0.0,0.0,0.0,0.0,0.0,0.0,0.0,0.0,0.0,0.0,0.0,0.0,0.0,0.0,0.0,0.0,0.0,0.0,0.0,0.0,0.0,0.0,0.0,0.0,0.0,0.0,0.0,0.0,0.0,0.0,0.0,0.0,0.0,0.0,0.0,0.0,0.0,0.0,0.0,0.0,0.0,0.0,0.0,0.0,0.0,0.0,0.0,0.0,0.0,0.0,0.0,0.0,0.0,0.0,0.0,0.0,0.0,0.0,0.0,0.0,0.0,0.0,0.0,0.0,0.0,0.0,0.0,0.0,0.0,0.0,0.0,0.0,0.0,0.0,0.0,0.0,0.0,0.0,0.0,0.0,0.0,0.0,0.0,0.0,0.0,0.0,0.0,0.0,0.0,0.0,0.0,0.0,0.0,0.0,0.0,0.0,0.0,0.0,0.0,0.0,0.0,0.0,0.0,0.0,0.0,0.0,0.0,0.0,0.0,0.0,0.0,0.0,0.0,0.0,0.0,0.0,0.0,0.0,0.0,0.0,0.0,0.0,0.0,0.0,0.0,0.0,0.0,0.0,0.0,0.0,0.0,0.0,0.0,0.0,0.0,0.0,0.0,0.0,0.0,0.0,0.0,0.0,0.0,0.0,0.0,0.0,0.0,0.0,0.0,0.0,0.0,0.0,0.0,0.0,0.0,0.0,0.0,0.0,0.0,0.0,0.0,0.0,0.0,0.0,0.0,0.0,0.0,0.0,0.0,0.0,0.0,0.0,0.0,0.0,0.0,0.0,0.0,0.0,0.0,0.0,0.0,0.0,0.0,0.0,0.0,0.0,0.0,0.0,0.0,0.0,0.0,0.0,0.0,0.0,0.0,0.0,0.0,0.0,0.0,0.0,0.0,0.0,0.0,0.0,0.0,0.0,0.0,0.0,0.0,0.0,0.0,0.0,0.0,0.0,0.0,0.0,0.0,0.0,0.0,0.0,0.0,0.0,0.0,0.0,0.0,0.0,0.0,0.0,0.0,0.0,0.0,0.0,0.0,0.0,0.0,0.0,0.0,0.0,0.0,0.0,0.0,0.0,0.0,0.0,0.0,0.0,0.0,0.0,0.0,0.0,0.0,0.0,0.0,0.0,0.0,0.0,0.0,0.0,0.0,0.0,0.0,0.0,0.0,0.0,0.0,0.0,0.0,0.0,0.0,0.0,0.0,0.0,0.0,0.0,0.0,0.0,0.0,0.0,0.0,0.0,0.0,0.0,0.0,0.0,0.0,0.0,0.0,0.0,0.0,0.0,0.0,0.0,0.0,0.0,0.0,0.0,0.0,0.0,0.0,0.0,0.0,0.0,0.0,0.0,0.0,0.0,0.0,0.0,0.0,0.0,0.0,0.0,0.0,0.0,0.0,0.0,0.0,0.0,0.0,0.0,0.0,0.0,0.0,0.0,0.0,0.0,0.0,0.0,0.0,0.0,0.0,0.0,0.0,0.0,0.0,0.0,0.0,0.0,0.0,0.0,0.0,0.0,0.0,0.0,0.0,0.0,0.0,0.0,0.0,0.0,0.0,0.0,0.0,0.0,0.0,0.0,0.0,0.0,0.0,0.0,0.0,0.0,0.0,0.0,0.0,0.0,0.0,0.0,0.0,0.0,0.0,0.0,0.0,0.0,0.0,0.0,0.0,0.0,0.0,0.0,0.0,0.0,0.0,0.0,0.0,0.0,0.0,0.0,0.0,0.0,0.0,0.0,0.0,0.0,0.0,0.0,0.0,0.0,0.0,0.0,0.0,0.0,0.0,0.0,0.0,0.0,0.0,0.0,0.0,0.0,0.0,0.0,0.0,0.0,0.0,0.0,0.0,0.0,0.0,0.0,0.0,0.0,0.0,0.0,0.0,0.0,0.0,0.0,0.0,0.0,0.0,0.0,0.0,0.0,0.0,0.0,0.0,0.0,0.0,0.0,0.0,0.0,0.0,0.0,0.0,0.0,0.0,0.0,0.0,0.0,0.0,0.0,0.0,0.0,0.0,0.0,0.0,0.0,0.0,0.0,0.0,0.0,0.0,0.0,0.0,0.0,0.0,0.0,0.0,0.0,0.0,0.0,0.0,0.0,0.0,0.0,0.0,0.0,0.0,0.0,0.0,0.0,0.0,0.0,0.0,0.0,0.0,0.0,0.0,0.0,0.0,0.0,0.0,0.0,0.0,0.0,0.0,0.0,0.0,0.0,0.0,0.0,0.0,0.0,0.0,0.0,0.0,0.0,0.0,0.0,0.0,0.0,0.0,0.0,0.0,0.0,0.0,0.0,0.0,0.0,0.0,0.0,0.0,0.0,0.0,0.0,0.0,0.0,0.0,0.0,0.0,0.0,0.0,0.0,0.0,0.0,0.0,0.0,0.0,0.0,0.0,0.0,0.0,0.0,0.0,0.0,0.0,0.0,0.0,0.0,0.0,0.0,0.0,0.0,0.0,0.0,0.0,0.0,0.0,0.0,0.0,0.0,0.0,0.0,0.0,0.0,0.0,0.0,0.0,0.0,0.0,0.0,0.0,0.0,0.0,0.0,0.0,0.0,0.0,0.0,0.0,0.0,0.0,0.0,0.0,0.0,0.0,0.0,0.0,0.0,0.0,0.0,0.0,0.0,0.0,0.0,0.0,0.0,0.0,0.0,0.0,0.0,0.0,0.0,0.0,0.0,0.0,0.0,0.0,0.0,0.0,0.0,0.0,0.0,0.0,0.0,0.0,0.0,0.0,0.0,0.0,0.0,0.0,0.0,0.0,0.0,0.0,0.0,0.0,0.0,0.0,0.0,0.0,0.0,0.0,0.0,0.0,0.0,0.0,0.0,0.0,0.0,0.0,0.0,0.0,0.0,0.0,0.0,0.0,0.0,0.0,0.0,0.0,0.0,0.0,0.0,0.0,0.0,0.0,0.0,0.0,0.0,0.0,0.0,0.0,0.0,0.0,0.0,0.0,0.0,0.0,0.0,0.0,0.0,0.0,0.0,0.0,0.0,0.0,0.0,0.0,0.0,0.0,0.0,0.0,0.0,0.0,0.0,0.0,0.0,0.0,0.0,0.0,0.0,0.0,0.0,0.0,0.0,0.0,0.0,0.0,0.0,0.0,0.0,0.0,0.0,0.0,0.0,0.0,0.0,0.0,0.0,0.0,0.0,0.0,0.0,0.0,0.0,0.0,0.0,0.0,0.0,0.0,0.0,0.0,0.0,0.0,0.0,0.0,0.0,0.0,0.0,0.0,0.0,0.0,0.0,0.0,0.0,0.0,0.0,0.0,0.0,0.0,0.0,0.0,0.0,0.0,0.0,0.0,0.0,0.0,0.0,0.0,0.0,0.0,0.0,0.0,0.0,0.0,0.0,0.0,0.0,0.0,0.0,0.0,0.0,0.0,0.0,0.0,0.0,0.0,0.0,0.0,0.0,0.0,0.0,0.0,0.0,0.0,0.0,0.0,0.0,0.0,0.0,0.0,0.0,0.0,0.0,0.0,0.0,0.0,0.0,0.0,0.0,0.0,0.0,0.0,0.0,0.0,0.0,0.0,0.0,0.0,0.0,0.0,0.0,0.0,0.0,0.0,0.0,0.0,0.0,0.0,0.0,0.0,0.0,0.0,0.0,0.0,0.0,0.0,0.0,0.0,0.0,0.0,0.0,0.0,0.0,0.0,0.0,0.0,0.0,0.0,0.0,0.0,0.0,0.0,0.0,0.0,0.0,0.0,0.0,0.0,0.0,0.0,0.0,0.0,0.0,0.0,0.0,0.0,0.0,0.0,0.0,0.0,0.0,0.0,0.0,0.0,0.0,0.0,0.0,0.0,0.0,0.0,0.0,0.0,0.0,0.0,0.0,0.0,0.0,0.0,0.0,0.0,0.0,0.0,0.0,0.0,0.0,0.0,0.0,0.0,0.0,0.0,0.0,0.0,0.0,0.0,0.0,0.0,0.0,0.0,0.0,0.0,0.0,0.0,0.0,0.0,0.0,0.0,0.0,0.0,0.0,0.0,0.0,0.0,0.0,0.0,0.0,0.0,0.0,0.0,0.0,0.0,0.0,0.0,0.0,0.0,0.0,0.0,0.0,0.0,0.0,0.0,0.0,0.0,0.0,0.0,0.0,0.0,0.0,0.0,0.0,0.0,0.0,0.0,0.0,0.0,0.0,0.0,0.0,0.0,0.0,0.0,0.0,0.0,0.0,0.0,0.0,0.0,0.0,0.0,0.0,0.0,0.0,0.0,0.0,0.0,0.0,0.0,0.0,0.0,0.0,0.0,0.0,0.0,0.0,0.0,0.0,0.0,0.0,0.0,0.0,0.0,0.0,0.0,0.0,0.0,0.0,0.0,0.0,0.0,0.0,0.0,0.0,0.0,0.0,0.0,0.0,0.0,0.0,0.0,0.0,0.0,0.0,0.0,0.0,0.0,0.0,0.0,0.0,0.0,0.0,0.0,0.0,0.0,0.0,0.0,0.0,0.0,0.0,0.0,0.0,0.0,0.0,0.0,0.0,-2.2145,-2.1975,0.0,0.0,0.0,0.0,0.0,0.0,0.0,0.0,0.0,0.0,0.0,0.0,0.0,0.0,0.0,0.0,0.0,0.0,0.0,0.0,0.0,0.0,0.0,-1.6014,-1.6819,-1.6348,-1.6325,0.0,0.0,0.0,0.0,0.0,0.0,0.0,0.0,0.0,-1.6477,-1.6705,-1.6556,-1.5696,-1.4276,-1.3823,-1.3318,-1.2804,0.0,0.0,0.0,0.0,0.0,0.0,0.0,0.0,0.0,0.0,0.0,0.0,0.0,0.0,0.0,0.0,0.0,0.0,0.0,0.0,0.0,0.0,0.0,0.0,0.0,0.0,0.0,0.0,0.0,0.0,0.0,0.0,0.0,0.0,0.0,0.0,0.0,0.0,0.0,0.0,0.0,0.0,0.0,0.0,0.0,0.0,0.0,0.0,0.0,0.0,0.0,0.0,0.0,0.0,0.0,0.0,0.0,0.0,0.0,0.0,0.0,0.0,0.0,0.0,0.0,0.0,0.0,0.0,0.0,0.0,-2.3205,-2.276,0.0,0.0,0.0,0.0,0.0,0.0,0.0,0.0,0.0,0.0,0.0,0.0,0.0,0.0,0.0,0.0,0.0,0.0,0.0,0.0,0.0,-1.3053,-1.3942,-1.5684,-1.6717,-1.6714,-1.6815,-1.6617,-1.6049,-1.6197,0.0,0.0,0.0,0.0,-1.6498,-1.6498,-1.6626,-1.6857,-1.6115,-1.5172,-1.4048,-1.3633,-1.3281,-1.2975,-1.3147,0.0,0.0,0.0,0.0,0.0,0.0,0.0,0.0,0.0,0.0,0.0,0.0,0.0,0.0,0.0,0.0,0.0,0.0,0.0,0.0,0.0,0.0,0.0,0.0,0.0,0.0,0.0,0.0,0.0,0.0,0.0,0.0,0.0,0.0,0.0,0.0,0.0,0.0,0.0,0.0,0.0,0.0,0.0,0.0,0.0,0.0,0.0,0.0,0.0,0.0,0.0,0.0,0.0,0.0,0.0,0.0,0.0,0.0,0.0,0.0,0.0,0.0,0.0,-2.4354,-2.4619,-2.4889,-2.5006,-2.5044,-2.5043,-2.4444,-2.3918,-2.3574,-2.3816,0.0,0.0,0.0,0.0,0.0,0.0,0.0,0.0,0.0,0.0,0.0,0.0,0.0,0.0,0.0,0.0,0.0,0.0,0.0,-1.2467,-1.3568,-1.5008,-1.5947,-1.6289,-1.6336,-1.6085,-1.5588,-1.5823,0.0,0.0,0.0,0.0,-1.6894,-1.6894,-1.6677,-1.6236,-1.5506,-1.547,-1.6172,-1.4604,-1.4076,-1.4241,-1.2854,-1.2639,-1.3412,0.0,0.0,0.0,0.0,0.0,0.0,0.0,0.0,0.0,0.0,0.0,0.0,0.0,0.0,0.0,0.0,0.0,0.0,0.0,0.0,0.0,0.0,0.0,0.0,0.0,0.0,0.0,0.0,0.0,0.0,0.0,0.0,0.0,0.0,0.0,0.0,0.0,0.0,0.0,0.0,0.0,-1.968,-2.0064,0.0,0.0,0.0,0.0,0.0,0.0,0.0,0.0,0.0,0.0,0.0,0.0,0.0,-2.4563,-2.5093,-2.5045,-2.5303,-2.5913,-2.552,-2.5638,-2.6275,-2.6051,-2.6091,-2.63,-2.5664,0.0,-2.5156,-2.4775,0.0,0.0,0.0,0.0,0.0,0.0,0.0,0.0,0.0,0.0,0.0,0.0,0.0,0.0,0.0,0.0,0.0,0.0,0.0,0.0,0.0,-1.5635,-1.6503,-1.7149,-1.6596,-1.6215,-1.6128,-1.598,0.0,0.0,0.0,-1.6953,-1.7348,-1.7121,-1.6497,-1.5506,-1.5794,-1.5541,-1.4932,-1.4517,-1.421,-1.4016,-1.3236,-1.3332,-1.403,-1.4507,0.0,0.0,0.0,0.0,0.0,0.0,0.0,0.0,0.0,0.0,0.0,0.0,0.0,0.0,0.0,0.0,0.0,0.0,0.0,0.0,0.0,0.0,0.0,0.0,0.0,0.0,0.0,0.0,0.0,0.0,0.0,0.0,0.0,0.0,0.0,0.0,0.0,0.0,0.0,-2.0798,-2.1116,-2.1989,-2.2675,-2.2975,0.0,0.0,0.0,0.0,0.0,0.0,0.0,0.0,0.0,-2.5067,-2.5289,-2.5583,-2.5764,-2.59,-2.631,-2.6832,-2.6465,-2.6465,-2.6968,-2.6648,-2.6754,-2.7134,-2.6878,-2.6861,-2.6961,-2.5948,-2.5565,-2.5551,0.0,0.0,0.0,0.0,-2.5623,-2.5756,0.0,0.0,0.0,0.0,0.0,0.0,0.0,0.0,0.0,0.0,0.0,0.0,-1.5601,-1.6189,-1.6934,-1.791,-1.7092,-1.6581,-1.6792,-1.6409,-1.6417,-1.6977,-1.6873,-1.708,-1.7657,-1.7022,-1.6272,-1.5408,-1.5782,-1.5423,-1.4362,-1.4689,-1.4741,-1.4562,-1.4363,-1.4446,-1.4724,-1.481,-1.5522,-1.6645,0.0,0.0,0.0,0.0,0.0,0.0,0.0,0.0,0.0,0.0,0.0,0.0,0.0,0.0,0.0,0.0,0.0,0.0,0.0,0.0,0.0,0.0,0.0,0.0,0.0,0.0,0.0,0.0,0.0,0.0,0.0,0.0,0.0,0.0,0.0,0.0,0.0,-2.1973,-2.2244,-2.3449,-2.388,-2.3978,0.0,0.0,0.0,0.0,0.0,0.0,-2.5033,-2.5465,-2.5732,-2.588,-2.6074,-2.6268,-2.6384,-2.6579,-2.6853,-2.7262,-2.7195,-2.718,-2.7469,-2.7236,-2.7329,-2.786,-2.7635,-2.7798,-2.8246,-2.708,-2.6617,-2.6526,-2.6526,-2.6526,-2.6526,-2.6526,-2.6601,-2.6894,0.0,0.0,0.0,0.0,0.0,0.0,0.0,0.0,0.0,0.0,0.0,-1.3802,-1.5525,-1.6065,-1.6778,-1.793,-1.7559,-1.7239,-1.7285,-1.7082,-1.6977,-1.6977,-1.6643,-1.6829,-1.7657,-1.649,-1.6071,-1.6515,-1.4944,-1.4899,-1.6408,-1.5936,-1.6206,-1.7089,-1.6477,-1.5614,-1.4741,-1.5068,-1.6296,-1.7986,-1.7958,0.0,0.0,0.0,0.0,0.0,0.0,0.0,0.0,0.0,0.0,0.0,0.0,0.0,0.0,0.0,0.0,0.0,0.0,0.0,0.0,0.0,0.0,0.0,0.0,0.0,0.0,0.0,0.0,0.0,0.0,0.0,0.0,0.0,0.0,0.0,0.0,0.0,0.0,-2.3639,-2.3308,0.0,0.0,0.0,0.0,-2.4977,-2.5418,-2.5678,-2.5792,-2.5979,-2.6187,-2.618,-2.6176,-2.6434,-2.6845,-2.6927,-2.6989,-2.7262,-2.7455,-2.7699,-2.7873,-2.7696,-2.788,-2.8466,-2.7638,-2.7699,-2.8507,-2.8246,-2.8225,-2.8404,-2.8404,-2.8404,-2.8404,-2.8404,-2.8504,-2.8404,0.0,0.0,0.0,-1.1805,-1.1567,-1.1376,-1.1042,-1.1436,-1.2055,-1.2896,-1.3816,-1.487,-1.6355,-1.6446,-1.6722,-1.7691,-1.7523,-1.7464,-1.7585,-1.7176,-1.7165,-1.7613,-1.7116,-1.6953,-1.7224,-1.6779,-1.6227,-1.5589,-1.5638,-1.5707,-1.5698,-1.5716,-1.6251,-1.6992,-1.6309,-1.6287,-1.6768,-1.6151,-1.6607,-1.773,-1.7986,-1.861,0.0,0.0,0.0,0.0,0.0,0.0,0.0,0.0,0.0,0.0,0.0,0.0,0.0,0.0,0.0,0.0,0.0,0.0,0.0,0.0,0.0,0.0,0.0,0.0,0.0,0.0,0.0,0.0,0.0,0.0,0.0,0.0,0.0,0.0,0.0,0.0,0.0,-2.4968,-2.4655,0.0,-2.5411,-2.5189,-2.5219,-2.5551,-2.547,-2.5623,-2.6072,-2.6145,-2.6372,-2.663,-2.6868,-2.6919,-2.6873,-2.7321,-2.7603,-2.7713,-2.8084,-2.8307,-2.8322,-2.7934,-2.828,-2.9042,-2.8366,-2.8613,-2.9497,-2.9394,-2.9044,-2.8607,-2.8607,-2.8607,-2.8607,-2.8607,-2.8794,-2.9063,0.0,0.0,0.0,-1.1598,-1.1487,-1.1376,-1.1042,-1.1931,-1.3028,-1.3992,-1.4763,-1.5713,-1.6961,-1.6894,-1.7062,-1.7735,-1.7843,-1.8075,-1.8414,-1.7714,-1.7532,-1.8197,-1.7573,-1.708,-1.6829,-1.6618,-1.6208,-1.5526,-1.5918,-1.598,-1.5789,-1.633,-1.6802,-1.7285,-1.701,-1.7491,-1.8287,-1.7589,-1.7617,-1.8282,-1.8382,-1.8893,-1.9541,0.0,0.0,0.0,0.0,0.0,0.0,0.0,0.0,0.0,0.0,0.0,0.0,0.0,0.0,0.0,0.0,0.0,0.0,0.0,0.0,0.0,0.0,0.0,0.0,0.0,0.0,0.0,0.0,0.0,0.0,0.0,0.0,0.0,0.0,-2.4358,-2.4691,-2.5888,-2.564,-2.5591,-2.6238,-2.6054,-2.5808,-2.5906,-2.5805,-2.5939,-2.6411,-2.6557,-2.6681,-2.6989,-2.7357,-2.7414,-2.7218,-2.7823,-2.8146,-2.8086,-2.8594,-2.8796,-2.8607,-2.8297,-2.8483,-2.9042,-2.8587,-2.8814,-2.9539,-2.9539,-2.9166,-2.8649,-2.8959,-2.9083,-2.9083,-2.9083,-2.927,-2.9518,0.0,0.0,-1.1916,-1.1567,-1.1503,-1.1408,-1.1074,-1.2147,-1.3374,-1.4414,-1.5166,-1.6045,-1.7119,-1.7392,-1.765,-1.8148,-1.8638,-1.9126,-1.9573,-1.8617,-1.8176,-1.8617,-1.8009,-1.7305,-1.6415,-1.5961,-1.6045,-1.6617,-1.5716,-1.5857,-1.6941,-1.7628,-1.7969,-1.8037,-1.8731,-1.9085,-1.9085,-1.9127,-1.9396,-1.9837,-1.936,-1.9624,-2.0348,0.0,0.0,0.0,0.0,0.0,0.0,0.0,0.0,0.0,0.0,0.0,0.0,0.0,0.0,0.0,0.0,0.0,0.0,0.0,0.0,0.0,0.0,0.0,0.0,0.0,0.0,0.0,0.0,0.0,0.0,0.0,0.0,0.0,-2.4778,-2.4859,-2.5206,-2.6084,-2.5819,-2.592,-2.6537,-2.6393,-2.6227,-2.6247,-2.6656,-2.69,-2.69,-2.7187,-2.7357,-2.7357,-2.7767,-2.7873,-2.7963,-2.8371,-2.8631,-2.8635,-2.9064,-2.9042,-2.8607,-2.8607,-2.8607,-2.8587,-2.8131,-2.8193,-2.8607,-2.8607,-2.8628,-2.8752,-2.9622,-2.9953,-2.9953,-2.9953,-2.9973,-2.9911,-1.2629,-1.2488,-1.2297,-1.1932,-1.1868,-1.1837,-1.1757,-1.2075,-1.2712,-1.4021,-1.3984,-1.4357,-1.5861,-1.6619,-1.7317,-1.7864,-1.902,-1.9814,-1.9944,-1.9105,-1.828,-1.7511,-1.7305,-1.7059,-1.687,-1.6739,-1.6792,-1.7129,-1.6854,-1.7073,-1.7696,-1.7354,-1.7765,-1.8818,-1.8783,-1.9081,-1.9692,-2.0265,-2.0617,-2.0679,-1.9893,-1.9727,-1.9934,0.0,0.0,0.0,0.0,0.0,0.0,0.0,0.0,0.0,0.0,0.0,0.0,0.0,0.0,0.0,0.0,0.0,0.0,0.0,0.0,0.0,0.0,0.0,0.0,0.0,0.0,0.0,0.0,0.0,0.0,0.0,-2.4819,-2.4877,-2.4584,-2.4939,-2.5248,-2.5496,-2.5681,-2.597,-2.6517,-2.6579,-2.661,-2.696,-2.7105,-2.7167,-2.7167,-2.7535,-2.7767,-2.7767,-2.8179,-2.8411,-2.8396,-2.8533,-2.8631,-2.8635,-2.8734,-2.8731,-2.8607,-2.8276,-2.8297,-2.8587,-2.8131,-2.8193,-2.8607,-2.8607,-2.9001,-2.958,-2.9145,-2.898,-2.898,-2.898,-2.9208,-2.958,-1.2629,-1.244,-1.2266,-1.2059,-1.2011,-1.2011,-1.2011,-1.2376,-1.3036,-1.4149,-1.393,-1.4123,-1.525,-1.6011,-1.6627,-1.6991,-1.8385,-1.9233,-1.9426,-1.9126,-1.8448,-1.7488,-1.7512,-1.7512,-1.7286,-1.7185,-1.7342,-1.778,-1.7368,-1.7446,-1.7969,-1.756,-1.793,-1.8947,-1.9072,-1.9605,-2.0369,-2.0886,-2.1217,-2.1362,-2.0824,-2.0741,-2.0907,-2.0907,-2.0617,-2.0182,-1.9996,-1.9975,-2.0058,-2.012,0.0,0.0,0.0,0.0,0.0,0.0,0.0,0.0,0.0,0.0,0.0,0.0,0.0,0.0,0.0,0.0,0.0,0.0,0.0,0.0,0.0,0.0,0.0,0.0,-2.5047,-2.5192,-2.5109,-2.5502,-2.5792,-2.5792,-2.6185,-2.6558,-2.6827,-2.6848,-2.6972,-2.7241,-2.7262,-2.7378,-2.7514,-2.7767,-2.8007,-2.8219,-2.8661,-2.8853,-2.8573,-2.8755,-2.8832,-2.8592,-2.8569,-2.8504,-2.8317,-2.8048,-2.8069,-2.8317,-2.8048,-2.8297,-2.8897,-2.8897,-2.9332,-2.9932,0.0,0.0,0.0,0.0,-2.9932,-3.0243,-1.2629,-1.2297,-1.2075,-1.2075,-1.2043,-1.2027,-1.2075,-1.2778,-1.361,-1.4473,-1.4425,-1.4555,-1.5068,-1.5548,-1.5951,-1.6158,-1.7262,-1.8134,-1.8617,-1.8892,-1.8701,-1.8133,-1.8301,-1.8195,-1.7823,-1.7536,-1.7735,-1.8464,-1.7504,-1.7423,-1.8104,-1.8076,-1.8311,-1.8844,-1.9573,-2.0389,-2.1197,-2.13,-2.159,-2.1963,-2.2066,-2.2232,-2.2418,-2.2418,-2.217,-2.1756,-2.1342,-2.0969,-2.0596,-2.0265,0.0,0.0,0.0,0.0,0.0,0.0,0.0,0.0,0.0,0.0,0.0,0.0,0.0,0.0,0.0,0.0,0.0,0.0,0.0,0.0,0.0,0.0,0.0,0.0,-2.5337,-2.5523,-2.5896,-2.6351,-2.662,-2.6579,-2.6972,-2.7262,-2.7262,-2.7262,-2.7262,-2.7262,-2.7357,-2.7514,-2.7905,-2.8042,0.0,0.0,0.0,-2.9065,-2.8628,-2.8948,-2.8906,-2.8524,-2.8483,-2.8276,-2.7924,-2.7924,-2.7986,-2.809,-2.809,-2.8566,-2.9373,-2.9373,-2.9684,-3.0139,-3.0036,-3.0491,-3.1236,-3.1278,-3.1298,-3.1319,-1.2629,-1.2565,-1.2456,-1.2456,-1.2218,-1.2123,-1.2409,-1.2386,-1.2655,-1.3655,-1.3364,-1.3459,-1.4597,-1.5195,-1.5993,-1.7057,-1.7938,-1.8617,-1.9062,-1.934,-1.921,-1.8617,-1.8468,-1.834,-1.8257,-1.8212,-1.8417,-1.894,-1.82,-1.8172,-1.8865,-1.8685,-1.8954,-1.9651,-2.0463,-2.1155,-2.1714,-2.248,-2.2832,-2.2977,-2.3722,-2.3184,-2.1942,-2.1942,-2.188,-2.1797,-2.1714,-2.1859,-2.2149,-2.2418,-2.2397,-2.2315,-2.277,-2.2729,0.0,0.0,0.0,0.0,0.0,0.0,0.0,0.0,0.0,0.0,0.0,0.0,0.0,0.0,0.0,0.0,0.0,0.0,0.0,-2.5689,-2.6061,-2.633,-2.6434,-2.6827,-2.6993,-2.662,-2.6972,-2.7262,-2.7262,-2.7262,-2.7262,-2.7262,-2.763,-2.7788,-2.7905,-2.8593,-2.8908,-2.8645,-2.909,-2.9027,-2.8607,-2.83,-2.8111,-2.8048,-2.7696,0.0,-2.7924,-2.7924,-2.8338,-2.9042,-2.9042,-2.9352,-2.987,-2.987,-3.0346,-3.1029,-3.0284,-3.0098,-3.0305,-3.0677,-3.0822,-3.0926,-1.2822,-1.2757,-1.2629,-1.2629,-1.2409,-1.2361,-1.2597,-1.2409,-1.2599,-1.3473,-1.3282,-1.3411,-1.4251,-1.4816,-1.5296,-1.5776,-1.6947,-1.805,-1.8884,-1.9126,-1.9189,-1.9145,-1.8864,-1.8733,-1.8733,-1.8733,-1.8837,-1.9065,-1.8375,-1.8494,-1.9417,-1.8934,-1.9344,-2.0452,-2.0907,-2.1507,-2.219,-2.2646,-2.2977,-2.3246,-2.3929,-2.366,-2.2873,-2.308,-2.3039,-2.2811,-2.2584,-2.2646,-2.2832,-2.2832,-2.2998,-2.3225,-2.3453,-2.3536,-2.3619,0.0,0.0,0.0,0.0,0.0,0.0,0.0,0.0,0.0,0.0,0.0,0.0,0.0,0.0,-2.5026,-2.5482,0.0,-2.5709,-2.6144,-2.6413,-2.6641,-2.6889,-2.7117,-2.7179,-2.6931,-2.7117,-2.7262,-2.7262,-2.7262,-2.7378,-2.763,-2.7788,-2.8063,-2.8593,-2.8847,-2.8929,-2.8935,-2.8915,-2.8689,-2.8202,-2.8019,-2.7881,-2.7924,-2.7696,-2.7945,-2.8607,-2.8607,-2.9125,-2.9994,-2.9994,-3.0387,-3.1029,-3.1278,-3.1629,-3.1981,-3.1298,-3.1153,-3.1402,-3.1629,-3.1712,-3.1774,-1.3092,-1.2806,-1.2629,-1.2629,-1.2629,-1.2567,-1.2567,-1.2567,-1.2806,-1.3505,-1.3537,-1.368,-1.4156,-1.4437,-1.4614,-1.4507,-1.6019,-1.7407,-1.8495,-1.8848,-1.9147,-1.9528,-1.9264,-1.9065,-1.9065,-1.9065,-1.9065,-1.9065,-1.861,-1.8831,-1.9768,-1.9374,-1.9889,-2.1114,-2.1217,-2.1714,-2.2501,-2.2501,-2.2708,-2.3101,-2.3557,-2.3743,-2.3784,-2.424,-2.4324,-2.4033,-2.3742,-2.3617,-2.3554,-2.3099,-2.3473,-2.4096,-2.4012,-2.426,-2.4654,-2.5192,-2.5088,0.0,0.0,0.0,0.0,0.0,0.0,0.0,0.0,-2.6165,-2.5896,-2.544,-2.5357,-2.5482,-2.5937,-2.602,-2.6165,-2.662,-2.6703,-2.6827,-2.72,-2.7262,-2.7262,-2.7262,-2.7262,-2.7262,-2.7262,-2.7345,-2.7598,-2.7905,-2.7956,-2.837,-2.9146,-2.8796,-2.8718,-2.9003,-2.8684,-2.8264,-2.7902,-2.7935,-2.7986,-2.8069,-2.8152,-2.8628,-2.9435,-2.9539,-3.0036,-3.0822,-3.0905,-3.136,-3.2064,-3.2437,-3.254,-3.2437,-3.2064,-3.2147,-3.2457,-3.2457,-3.2457,-3.2457,-1.3092,-1.2806,-1.2629,-1.2629,-1.2629,-1.2567,-1.2367,-1.249,-1.2822,-1.3322,-1.3281,-1.3505,-1.4403,-1.4372,-1.462,-1.5538,-1.6987,-1.7986,-1.8211,-1.8892,-1.9288,-1.9351,-1.9198,-1.9065,-1.9065,-1.9065,-1.9065,-1.9065,-1.9411,-1.9637,-1.9858,-2.0504,-2.0937,-2.1135,-2.1549,-2.2004,-2.2501,-2.2501,-2.2522,-2.2625,-2.308,-2.3267,-2.3308,-2.4012,-2.4493,-2.4787,-2.4893,-2.4956,-2.4956,-2.4724,-2.4703,-2.4787,-2.4553,-2.4509,-2.4716,-2.5564,-2.5771,-2.5834,-2.6351,-2.6413,-2.6268,-2.602,-2.6537,-2.6806,0.0,-2.5958,-2.6372,-2.5896,-2.5813,-2.5937,-2.6413,-2.6496,-2.6641,-2.7117,-2.7179,-2.72,-2.7262,-2.7262,-2.7262,-2.7262,-2.7262,-2.7262,-2.7262,-2.7614,-2.7835,-2.7926,-2.8286,-2.853,-2.8635,-2.8652,-2.8452,-2.8124,-2.801,-2.791,-2.7901,-2.7909,-2.809,-2.8545,-2.8959,-2.9415,-2.9932,-3.0346,-3.0822,-3.1319,-3.1712,-3.194,-3.2043,-3.2106,-3.1878,-3.1526,-3.1485,-3.1485,-3.1526,-3.1526,-3.1526,-3.1526,-1.3278,-1.3202,-1.3155,-1.3155,-1.2996,-1.2806,-1.2601,-1.2664,-1.2774,-1.2941,-1.2848,-1.3146,-1.3902,-1.4008,-1.428,-1.5123,-1.6048,-1.6883,-1.7599,-1.7888,-1.8339,-1.896,-1.865,-1.8664,-1.9065,-1.8664,-1.8643,-1.9065,-1.9109,-1.9524,-2.0162,-2.0803,-2.1259,-2.1528,-2.1714,-2.1921,-2.2087,-2.2087,-2.2252,-2.2542,-2.2998,-2.335,-2.3722,-2.4326,-2.4788,-2.5126,-2.5189,-2.5189,0.0,-2.5105,-2.5105,-2.5105,-2.5505,-2.5082,-2.4851,-2.6907,-2.6844,-2.626,-2.6836,-2.6999,-2.6931,-2.6724,-2.6765,-2.6786,-2.6475,-2.6496,-2.6434,-2.5978,-2.5875,-2.5937,-2.6123,-2.6392,-2.6641,-2.6827,-2.7076,-2.7262,-2.7262,-2.7262,-2.7262,-2.7262,-2.7489,-2.7552,-2.7282,-2.7903,-2.8235,-2.793,-2.828,-2.8613,-2.8635,-2.8362,-2.8188,-2.8338,-2.8036,-2.8074,-2.8325,-2.8301,-2.869,-2.9415,-2.9622,-3.0098,-3.0801,-3.1008,-3.1195,-3.1381,-3.1567,-3.165,-3.165,-3.165,-3.1547,-3.136,-3.1091,-3.1133,-3.1381,-3.1381,-3.1381,-3.1381,-1.3209,-1.3337,-1.3549,-1.3644,-1.3454,-1.3168,-1.2786,-1.2755,-1.269,-1.2497,-1.2561,-1.2856,-1.3454,-1.3716,-1.3986,-1.4521,-1.5115,-1.5836,-1.6875,-1.6986,-1.7436,-1.8363,-1.8134,-1.824,-1.8798,-1.824,-1.8375,-1.9065,-1.8954,-1.9302,-2.0073,-2.0884,-2.1336,-2.1415,-2.1721,-2.1797,-2.1797,-2.1797,-2.2004,-2.2335,-2.2666,-2.3163,-2.3805,-2.4367,-2.4724,-2.5019,-2.5082,-2.5166,-2.5166,-2.4954,-2.4975,-2.5166,-2.5727,-2.5435,-2.5317,-2.7634,-2.7458,-2.6737,-2.7295,-2.7281,-2.7096,-2.722,-2.691,-2.6662,-2.6993,-2.6703,-2.6289,-2.5937,-2.5875,-2.5916,-2.6041,-2.6351,-2.662,-2.6744,-2.7034,-2.7262,-2.7262,-2.7262,-2.7303,-2.7427,-2.7841,-2.7945,-2.7489,-2.8152,-2.8466,-2.8084,-2.8325,-2.8375,-2.8381,-2.8021,-2.7902,-2.8404,-2.8084,-2.8168,-2.8837,-2.8755,-2.9208,-2.9994,-3.0118,-3.0532,-3.1195,-3.1195,-3.1257,-3.136,-3.1236,-3.1257,-3.1381,-3.1381,-3.1381,-3.134,-3.1008,-3.1091,-3.1381,-3.1381,-3.1381,-3.1381,-1.2641,-1.2983,-1.3442,-1.3754,-1.38,-1.3514,-1.2733,-1.2561,-1.2497,-1.2303,-1.2497,-1.2829,-1.3333,-1.3645,-1.389,-1.4035,-1.4761,-1.551,-1.62,-1.6652,-1.7055,-1.7458,-1.7789,-1.8037,-1.8037,-1.8037,-1.8375,-1.9065,-1.9253,-1.9238,-1.9277,-2.0968,-2.1318,-2.0547,-2.1415,-2.1797,-2.1797,-2.1797,-2.1818,-2.1838,-2.1838,-2.2397,-2.3286,-2.3668,-2.4126,-2.4551,-2.4755,-2.5022,-2.512,-2.4341,-2.4471,-2.4755,-2.4612,-2.5168,-2.6062,-2.704,-2.7429,-2.7641,-2.7835,-2.7241,-2.6703,-2.7158,-2.691,-2.6579,-2.6579,-2.6227,-2.5896,-2.5875,-2.5875,-2.602,-2.6455,-2.6558,-2.6724,-2.7158,-2.7262,-2.7262,-2.7262,-2.7262,-2.7427,-2.7862,-2.8317,-2.8421,-2.7945,-2.8338,-2.8607,-2.8607,-2.8205,-2.7934,-2.7947,-2.7514,-2.7513,-2.7885,-2.7924,-2.8356,-2.9245,-2.9229,-2.9518,-2.9994,-3.045,-3.0677,-3.0698,-3.0698,-3.0946,-3.136,-3.0905,-3.0967,-3.1381,-3.1381,-3.1381,-3.1381,-3.136,-3.136,-3.1381,-3.1381,-3.1381,-3.1381,-1.281,-1.334,-1.3909,-1.4016,-1.3889,-1.361,-1.3172,-1.2848,-1.2542,-1.2137,-1.2557,0.0,0.0,0.0,0.0,0.0,-1.4525,-1.4795,-1.5146,-1.5263,-1.5681,-1.6298,-1.6456,-1.6802,-1.7285,-1.6802,-1.6941,-1.7628,-1.8237,-1.8507,-1.8544,-2.0762,-2.1339,-2.0547,-2.1415,-2.1797,-2.1797,-2.1797,-2.1983,-2.2273,-2.2273,-2.2625,-2.3246,-2.4013,-2.4136,-2.3861,0.0,-2.4583,-2.4705,-2.427,-2.4313,-2.4567,-2.5355,-2.5278,-2.5317,-2.7085,-2.78,-2.8136,-2.8348,-2.7483,-2.6599,-2.6765,-2.6455,-2.6103,-2.6103,-2.5999,-2.5875,-2.5875,-2.6123,-2.6392,-2.6537,-2.6827,-2.7076,-2.7241,-2.7262,-2.7365,-2.7655,-2.7696,-2.7862,-2.8317,-2.8794,-2.8897,-2.8421,-2.8794,-2.869,-2.7779,-2.7856,-2.7934,-2.7947,-2.7767,-2.8069,-2.879,-2.883,-2.912,-2.9723,-2.9704,-2.9994,-3.045,-2.9823,-2.9904,-3.0677,-2.9581,-2.952,-3.047,-3.0615,-3.0781,-3.0967,-3.1567,-3.165,-3.1402,-3.1692,-3.1816,-3.1816,-3.1816,-3.2023,-3.2188,-1.2773,-1.3389,-1.4,-1.4,-1.3855,0.0,0.0,0.0,0.0,0.0,0.0,0.0,0.0,0.0,0.0,0.0,0.0,-1.4346,-1.4418,-1.4418,-1.4768,-1.5458,-1.5627,-1.5965,-1.6524,-1.6035,-1.6246,-1.7092,-1.7806,-1.8063,-1.785,-2.0215,-2.0702,-1.9668,-2.0857,-2.1339,-2.1339,-2.1645,-2.217,-2.2708,-2.2377,-2.2729,-2.3453,-2.3805,-2.3617,0.0,-2.3671,-2.3801,-2.3729,-2.363,-2.3767,-2.4169,-2.501,-2.5278,-2.5594,-2.719,-2.7836,-2.8073,-2.7964,-2.7252,-2.6537,-2.6372,-2.5978,-2.5689,-2.5854,-2.5841,-2.5778,-2.5854,-2.6339,-2.6713,-2.6879,-2.7055,-2.7365,-2.7696,-2.7738,-2.7841,-2.8131,-2.8317,-2.8524,-2.8835,-2.898,-2.8938,-2.8649,-2.8672,-2.8445,-2.7544,-2.7729,-2.7883,-2.7926,-2.8022,-2.8489,-2.9245,-2.9286,-2.9556,-2.9994,-2.9554,-2.9252,-2.9212,-2.8416,-2.8435,-2.9212,-2.8623,-2.8985,-2.9957,-3.0751,-3.1257,-3.1464,-3.2043,-3.2126,-3.1878,-3.2168,-3.2292,-3.2292,-3.2292,-3.2478,-3.2644,-1.2555,-1.3208,-1.3797,0.0,0.0,0.0,0.0,0.0,0.0,0.0,0.0,0.0,0.0,0.0,0.0,0.0,0.0,0.0,-1.4042,-1.4114,-1.434,-1.4813,-1.5225,-1.5542,-1.5718,-1.5718,-1.6262,-1.7279,-1.7825,-1.7832,-1.7276,-1.9385,-1.959,-1.8078,-1.9668,-2.0469,-2.0547,-2.1415,-2.2237,-2.3039,-2.2149,-2.2604,-2.3681,-2.3092,-2.2835,-2.2814,-2.309,-2.2794,-2.2466,-2.2445,-2.3083,-2.3811,-2.3875,-2.5126,-2.6737,-2.7369,-2.762,-2.74,-2.6775,-2.6537,-2.6392,-2.5978,-2.5564,-2.5337,-2.5771,-2.5722,-2.5732,-2.5944,-2.6606,-2.718,-2.7378,-2.7345,-2.7614,-2.8483,-2.8566,-2.8566,-2.8607,-2.898,-2.927,-2.9311,-2.8918,-2.8628,-2.8587,-2.8078,-2.7877,-2.7862,-2.7876,-2.7947,-2.7914,-2.835,-2.885,-2.9347,-2.9306,-2.9452,-2.991,-2.8688,-2.7561,-2.6481,-2.6499,-2.6518,-2.6645,-2.8148,-2.9141,-2.9774,-3.1258,-3.2179,-3.2571,-3.2518,-3.2518,-3.2612,-3.2633,-3.2633,-3.2727,-3.2727,-3.2727,-3.2727,0.0,0.0,0.0,0.0,0.0,0.0,0.0,0.0,0.0,0.0,0.0,0.0,0.0,0.0,0.0,0.0,0.0,0.0,-1.3636,-1.392,-1.4068,-1.3828,-1.4411,-1.476,-1.4867,-1.5014,-1.5263,-1.5599,-1.6629,-1.6785,-1.6047,-1.8285,-1.8798,-1.7853,-1.9036,-1.9982,-2.0547,-2.0779,-2.1306,-2.2149,-2.1901,-2.2025,-2.2377,-2.2912,-2.287,-2.2662,-2.3429,-2.3387,-2.295,-2.2751,-2.3545,-2.4724,-2.5246,-2.602,-2.6886,-2.7285,-2.7202,-2.7003,-2.6692,-2.6264,-2.5873,-2.5903,-2.5564,-2.5357,-2.6062,-2.6172,-2.6409,-2.7302,-2.7757,-2.8229,-2.8927,-2.8603,-2.8338,-2.8566,-2.8048,-2.7841,-2.8524,-2.8711,-2.8918,-2.927,-2.9187,-2.8856,-2.8173,-2.7319,-2.71,-2.789,-2.7914,-2.8098,-2.8391,-2.8877,-2.9444,-3.0262,-2.9112,-2.8759,-2.9164,-2.7733,-2.6806,-2.6481,-2.5909,-2.6496,-2.8276,-2.8033,-2.908,-3.0942,-3.0678,-3.071,-3.0734,-3.0447,-3.076,-3.1325,-3.1662,-3.2185,-3.2727,-3.2727,-3.2727,-3.2727,0.0,0.0,0.0,0.0,0.0,0.0,0.0,0.0,0.0,0.0,0.0,0.0,0.0,0.0,0.0,0.0,0.0,0.0,0.0,-1.3678,-1.3765,-1.3656,-1.3981,-1.4237,-1.4405,-1.4421,-1.4574,-1.4836,-1.5992,-1.625,-1.5663,-1.7409,-1.7671,-1.6814,-1.7916,-1.8518,-1.8742,-1.9851,-2.0777,0.0,0.0,-2.2045,-2.2418,-2.2542,-2.2542,-2.2563,-2.308,-2.337,-2.3515,-2.3825,-2.4242,-2.4867,-2.5674,-2.6277,-2.6847,-2.7212,-2.717,-2.6972,-2.6464,-2.6131,-2.5951,-2.5627,-2.5564,-2.5689,-2.6535,-2.6773,-2.721,-2.8232,-2.8705,-2.9111,-2.9593,-2.9119,-2.869,-2.8876,-2.8317,-2.811,-2.8814,-2.8918,-2.9021,-2.927,-2.8938,-2.8284,-2.7377,-2.6565,-2.6406,-2.7186,-2.69,-2.7117,-2.8152,-2.8731,-2.8996,-2.8867,-2.8661,-2.8019,-2.7068,-2.619,-2.5604,-2.5224,-2.4771,-2.5298,-2.6816,-2.7097,-2.8077,-2.9546,-2.9735,-2.9906,-2.9827,-2.9702,-2.9766,-3.002,-3.0858,-3.1523,-3.1903,-3.2498,-3.2727,-3.2727,0.0,0.0,0.0,0.0,0.0,0.0,0.0,0.0,0.0,-1.3346,-1.3419,-1.3492,-1.3492,-1.3492,0.0,0.0,0.0,0.0,0.0,0.0,-1.3564,-1.3725,-1.3797,-1.3885,-1.4061,-1.4133,-1.4301,-1.4562,-1.5583,-1.584,-1.5503,-1.6525,-1.646,-1.5644,-1.6618,-1.6796,-1.6572,-1.8731,-2.0005,-2.0818,-2.1383,-2.2117,-2.2755,0.0,-2.219,-2.2604,-2.2791,-2.3329,-2.4095,-2.5006,-2.5047,-2.4881,-2.5771,-2.633,-2.6744,-2.7138,-2.7274,-2.7004,-2.6165,-2.6277,-2.6318,-2.5564,-2.5689,-2.6206,-2.7232,-2.7535,-2.7977,-2.9,-2.9425,-2.974,-2.9782,-2.9203,-2.8814,-2.9166,-2.8835,-2.8669,-2.9063,-2.9125,-2.9125,-2.9125,-2.8421,-2.7513,-2.6567,-2.5956,-2.5858,-2.6389,-2.5489,-2.5698,-2.7497,-2.8217,-2.7865,-2.63,-2.7713,-2.7197,-2.4573,-2.4556,-2.4199,-2.3546,-2.3594,-2.3901,-2.4472,-2.5881,-2.6815,-2.7504,-2.8684,-2.921,-2.921,-2.9089,-2.8871,-2.8801,-2.9865,-3.0353,-3.0704,-3.1787,-3.2174,-3.2214,0.0,0.0,0.0,0.0,0.0,0.0,0.0,0.0,0.0,0.0,-1.3127,-1.3492,0.0,0.0,0.0,0.0,0.0,0.0,0.0,0.0,0.0,-1.3564,-1.3725,-1.3844,-1.4037,-1.4201,-1.4366,-1.4539,-1.4739,-1.4855,-1.5021,-1.5181,-1.5412,-1.5718,-1.5851,-1.6237,-1.6879,-1.7242,-1.8046,-1.9044,-2.0178,-2.0781,-2.1036,-2.2039,0.0,0.0,-2.4343,-2.4612,-2.4571,-2.5461,-2.5709,-2.5813,-2.6724,-2.7076,-2.7158,-2.7241,-2.691,-2.6438,-2.6484,-2.6139,-2.5853,-2.6277,-2.6392,-2.6796,-2.7902,-2.8111,-2.8481,-2.9706,-2.9779,-2.9845,-3.0202,-2.9703,-2.9083,-2.8773,-2.8338,-2.8069,-2.8152,-2.8152,-2.8152,-2.8152,-2.8028,-2.7682,-2.7215,-2.5701,-2.5377,-2.6705,-2.4455,-2.435,-2.7475,-2.7137,-2.6359,-2.511,-2.5716,-2.5172,-2.3344,-2.3344,-2.3424,-2.3546,-2.3832,-2.4724,-2.6135,-2.6628,-2.7554,-2.8564,-2.7797,-2.747,-2.7349,-2.6272,-2.6482,-2.7366,-2.7607,-2.8325,-2.9275,-2.9512,-2.9718,-2.9998,0.0,0.0,0.0,0.0,0.0,0.0,0.0,-1.3609,-1.3404,-1.3191,-1.3131,-1.2838,-1.2318,-1.2599,-1.2893,0.0,0.0,0.0,0.0,0.0,0.0,-1.3492,-1.3564,-1.3638,-1.3726,-1.38,-1.3962,-1.4223,0.0,-1.4633,-1.486,-1.5036,-1.519,-1.5309,-1.5158,-1.5217,-1.5435,-1.6288,-1.6834,-1.7346,-1.8843,-1.986,-2.0582,-2.1669,0.0,0.0,-2.4902,-2.4943,-2.4716,-2.5854,-2.6082,-2.5999,-2.6682,-2.7055,-2.7262,-2.7262,-2.6858,-2.6472,-2.6609,-2.6339,-2.6201,-2.6547,-2.6744,-2.7253,-2.8286,-2.8494,-2.8744,-2.9968,-3.0076,-2.9953,-3.0349,-2.9807,-2.9228,-2.9001,-2.838,-2.7811,-2.7442,-2.708,-2.6878,-2.71,-2.6527,-2.6209,-2.6148,-2.4913,-2.4608,-2.5767,-2.3747,-2.3585,-2.6021,-2.5206,-2.4766,-2.5069,-2.449,-2.3829,-2.3292,-2.3292,-2.3562,-2.4086,-2.4245,-2.4859,-2.5803,-2.5984,-2.6294,-2.69,-2.6311,-2.6067,-2.5945,-2.5349,-2.5472,-2.6067,-2.6779,-2.7505,-2.8268,-2.8974,-2.9349,-2.9696,0.0,0.0,0.0,0.0,0.0,0.0,0.0,-1.377,-1.3637,-1.3805,-1.3223,-1.2324,-1.1301,-1.1864,-1.2371,0.0,0.0,0.0,0.0,0.0,0.0,0.0,0.0,0.0,-1.3492,0.0,0.0,-1.3989,-1.4311,0.0,0.0,0.0,0.0,0.0,-1.4786,-1.4506,-1.4285,-1.5575,-1.6105,0.0,0.0,-1.9252,-2.0255,0.0,0.0,0.0,0.0,-2.5083,-2.4902,-2.6268,-2.6475,-2.6248,-2.6724,-2.7034,-2.7262,-2.7262,-2.6931,-2.6579,-2.6682,-2.6641,-2.6599,-2.6703,-2.6993,-2.7489,-2.84,-2.8607,-2.8977,-3.0099,-3.0203,-3.0099,-3.0287,-2.9787,-2.9456,-2.9456,-2.8752,-2.7901,-2.7137,-2.6309,-2.582,-2.5875,-2.5245,-2.482,-2.4954,-2.4257,-2.4035,-2.468,-2.3595,-2.3295,-2.4378,-2.3569,-2.3618,-2.4867,-2.3861,-2.334,-2.3546,-2.3626,-2.3959,-2.4579,-2.4579,-2.477,-2.5103,-2.5103,-2.5103,-2.5103,-2.5103,-2.5103,-2.5103,-2.5103,-2.5103,-2.5242,-2.6272,-2.684,-2.7233,-2.8254,-2.8906,-2.9243,0.0,0.0,0.0,0.0,0.0,0.0,0.0,-1.396,-1.382,-1.3434,-1.3304,-1.2805,-1.1658,-1.2158,-1.251,0.0,0.0,0.0,0.0,0.0,0.0,0.0,0.0,0.0,0.0,0.0,0.0,-1.3989,-1.4311,0.0,0.0,0.0,0.0,0.0,0.0,-1.4882,-1.4882,-1.5271,0.0,0.0,0.0,0.0,0.0,0.0,0.0,0.0,0.0,-2.5735,-2.5378,-2.6744,-2.7158,-2.722,-2.7655,-2.7552,-2.7262,-2.7262,-2.6931,-2.6662,-2.7076,-2.6889,-2.6662,-2.7096,-2.722,-2.7489,-2.84,-2.8607,-2.8876,-2.9808,-2.9994,-2.9994,-2.9994,-2.9953,-2.9932,-2.9932,-2.9497,-2.8635,-2.7235,-2.6582,-2.5855,-2.4486,-2.4794,-2.4918,-2.4674,-2.4543,-2.455,-2.4613,-2.4234,-2.3698,-2.3167,-2.3331,-2.3378,-2.3183,-2.3757,-2.3816,-2.3546,-2.3848,-2.4198,-2.4579,-2.4579,-2.477,-2.5103,-2.5103,-2.5103,-2.5103,-2.5103,-2.5103,-2.5103,-2.5103,-2.5103,-2.5135,-2.5577,-2.5721,-2.5801,-2.6358,-2.6697,-2.7003,0.0,0.0,0.0,0.0,0.0,0.0,-1.3931,-1.3814,-1.3797,-1.3995,-1.3502,-1.2975,-1.2465,-1.2609,-1.2569,-1.2123,0.0,0.0,0.0,0.0,0.0,0.0,0.0,0.0,0.0,0.0,-1.4165,-1.456,-1.4692,0.0,0.0,0.0,0.0,0.0,0.0,-1.486,-1.4874,-1.5087,0.0,0.0,0.0,0.0,0.0,0.0,0.0,0.0,0.0,0.0,-2.4631,-2.6224,-2.5996,-2.5156,-2.5676,-2.5867,-2.5987,-2.7232,-2.7138,-2.6662,-2.7138,-2.6533,-2.5913,-2.7043,-2.7084,-2.7039,-2.8363,-2.8835,-2.9208,-2.987,-2.9994,-2.9994,-2.9994,-2.9994,-2.9867,-2.9367,-2.892,-2.8008,-2.6263,-2.5631,-2.5022,-2.421,-2.4088,-2.4387,-2.4872,-2.429,-2.3942,-2.3891,-2.4069,-2.3942,-2.3676,-2.3834,-2.3873,-2.3959,-2.4023,-2.4198,-2.4484,-2.4404,-2.4547,-2.4897,-2.4897,-2.4976,-2.5103,-2.5103,-2.5103,-2.5103,-2.5103,-2.5103,-2.5103,-2.5103,-2.523,-2.5437,-2.558,-2.5898,-2.6279,-2.6406,-2.6692,-2.6994,0.0,0.0,0.0,0.0,0.0,-1.3153,-1.3313,-1.3332,-1.3596,-1.4137,-1.3546,-1.3227,-1.3307,-1.3146,-1.2828,-1.2434,-1.2398,0.0,0.0,0.0,0.0,0.0,0.0,0.0,0.0,0.0,-1.4452,-1.5087,-1.5189,-1.5394,0.0,0.0,-1.557,-1.5555,0.0,0.0,0.0,0.0,0.0,0.0,0.0,0.0,0.0,0.0,0.0,0.0,0.0,0.0,0.0,0.0,0.0,-2.4038,-2.453,-2.4715,-2.5172,-2.7022,-2.7069,-2.654,-2.6982,-2.6144,-2.5503,-2.6587,-2.6623,-2.6764,-2.8304,-2.898,-2.9435,-2.9891,-2.9994,-2.9994,-2.9994,-2.9994,-2.9697,-2.8937,-2.8408,-2.7517,-2.5596,-2.4889,-2.4471,-2.3871,-2.3812,-2.3953,-2.4398,-2.3845,-2.3578,-2.3858,-2.4066,-2.4338,-2.4332,-2.4354,-2.4436,-2.4579,-2.4547,-2.4706,-2.5103,-2.4865,-2.4865,-2.5103,-2.5103,-2.5103,-2.5103,-2.5103,-2.5103,-2.5103,-2.5103,-2.5103,-2.5119,-2.523,-2.5421,-2.5659,-2.5866,-2.6247,-2.6692,-2.6787,-2.6994,-2.72,0.0,0.0,0.0,0.0,0.0,0.0,-1.1698,-1.2427,-1.3187,-1.3411,-1.3369,-1.3532,-1.4198,-1.3733,-1.3404,-1.3461,-1.1701,0.0,0.0,0.0,0.0,0.0,0.0,0.0,0.0,0.0,-1.4842,-1.5423,-1.5745,-1.6067,-1.6345,-1.6052,-1.5906,-1.5891,0.0,0.0,0.0,0.0,0.0,0.0,0.0,0.0,-2.2484,0.0,0.0,0.0,0.0,0.0,0.0,0.0,0.0,0.0,0.0,-2.488,-2.5129,-2.6538,-2.6621,-2.619,-2.6328,-2.6016,-2.5684,-2.5684,-2.6016,-2.6764,-2.8304,-2.898,-2.9435,-2.9891,-2.9994,-2.9994,-2.9994,-2.9994,-2.9802,-2.9026,-2.8516,-2.7498,-2.5613,-2.5018,-2.4334,-2.3119,-2.3927,-2.4166,-2.3117,-2.3295,-2.3845,-2.4558,-2.4553,-2.4794,-2.5103,-2.5103,-2.4944,-2.4595,-2.5262,-2.5453,-2.5119,-2.5103,-2.5103,-2.5103,-2.5103,-2.5103,-2.5103,-2.5103,-2.5103,-2.5103,-2.5103,-2.5103,-2.5135,-2.5485,-2.5628,-2.5707,-2.639,-2.6676,-2.6724,-2.7073,-2.72,-2.72,0.0,0.0,0.0,0.0,0.0,0.0,0.0,-1.145,-1.1661,-1.1944,-1.1824,-1.2055,-1.2814,-1.2184,-1.1885,-1.2301,-1.1731,0.0,0.0,0.0,0.0,0.0,0.0,0.0,0.0,0.0,-1.4792,-1.5234,-1.5505,-1.5705,-1.5828,-1.5517,-1.5461,-1.5634,-1.5317,-1.5257,0.0,0.0,0.0,0.0,0.0,-2.0364,-2.1489,0.0,0.0,0.0,0.0,0.0,0.0,0.0,0.0,0.0,0.0,0.0,0.0,-2.4419,-2.4807,-2.4831,-2.4871,-2.4207,-2.3773,-2.4746,-2.5339,-2.6161,-2.7614,-2.8899,-2.9829,-2.9973,-2.9994,-2.9784,-2.888,-2.9033,-2.861,-2.7001,-2.6839,-2.6493,-2.5386,-2.4675,-2.4266,-2.4055,-2.4372,-2.4356,-2.3785,-2.43,-2.4569,-2.463,-2.4859,-2.5103,-2.5413,-2.5413,-2.537,-2.5281,-2.5203,-2.536,-2.5469,-2.523,-2.5103,-2.5103,-2.5103,-2.5103,-2.5103,-2.5103,-2.5103,-2.5103,-2.5103,-2.5246,-2.5485,-2.5596,-2.5914,-2.6374,-2.6581,-2.6819,-2.7042,-2.7169,-2.72,-2.72,0.0,0.0,0.0,0.0,0.0,0.0,0.0,-1.0198,-1.0373,-1.054,-1.0484,-1.0695,-1.1676,-1.1146,-1.0906,-1.1524,-1.1145,0.0,0.0,0.0,0.0,0.0,0.0,0.0,-1.4433,-1.4738,-1.505,-1.5371,-1.5786,-1.5998,-1.6001,-1.5805,-1.5754,-1.5891,-1.5576,-1.5618,0.0,0.0,0.0,0.0,-1.9353,-2.0272,-2.0963,0.0,0.0,0.0,0.0,0.0,0.0,0.0,0.0,0.0,0.0,0.0,0.0,0.0,-2.2454,-2.2825,-2.344,-2.2909,-2.2502,-2.3577,-2.4275,-2.5086,-2.6559,-2.7824,-2.8668,-2.8668,-2.8668,-2.8514,-2.7898,-2.7929,-2.7512,-2.5846,-2.5625,-2.5361,-2.4309,-2.3819,-2.3732,-2.4342,-2.4295,-2.4233,-2.428,-2.4416,-2.4468,-2.4412,-2.4747,-2.4964,-2.5258,-2.5397,-2.5402,-2.5407,-2.5376,-2.5408,-2.5643,-2.5278,-2.5103,-2.5103,-2.5103,-2.5103,-2.5103,-2.5103,-2.5103,-2.5119,-2.5246,-2.5437,0.0,-2.5914,-2.6279,-2.6692,-2.6819,-2.701,-2.72,-2.72,-2.72,-2.72,0.0,0.0,0.0,0.0,0.0,0.0,0.0,-0.8864,-0.9438,-0.9291,-0.9223,-0.9617,-1.0667,-1.0359,-1.0311,-1.1134,0.0,0.0,0.0,0.0,0.0,0.0,0.0,0.0,-1.4643,-1.5035,-1.5357,-1.5665,-1.6451,-1.6749,-1.6588,-1.6466,-1.6392,-1.6401,-1.6059,-1.6094,0.0,0.0,0.0,0.0,-1.8686,-1.9592,0.0,0.0,0.0,0.0,0.0,0.0,0.0,0.0,0.0,0.0,0.0,0.0,0.0,0.0,0.0,0.0,0.0,-2.2116,-2.1775,-2.2345,-2.2904,-2.3682,-2.5236,-2.6062,0.0,-2.6444,-2.6463,-2.6591,-2.6755,-2.6846,-2.6417,-2.5309,-2.4889,-2.4236,-2.2761,-2.2667,-2.3001,-2.3902,-2.3795,-2.3886,-2.4512,-2.4053,-2.3816,-2.4055,-2.4394,-2.4564,-2.4687,-2.4964,-2.5103,-2.5119,-2.5437,-2.5596,-2.5596,-2.5278,-2.5103,-2.5103,-2.5103,-2.5103,-2.5103,-2.5103,-2.5119,-2.5167,-2.55,-2.5659,-2.5771,-2.6406,-2.6692,-2.674,-2.7073,-2.72,-2.72,-2.72,-2.72,-2.72,0.0,0.0,0.0,0.0,0.0,0.0,0.0,0.0,0.0,0.0,-0.8009,-0.8276,-0.9135,-0.8791,-0.8819,0.0,0.0,0.0,0.0,0.0,0.0,0.0,0.0,0.0,-1.4237,-1.472,-1.5021,-1.5143,-1.5691,-1.5992,-1.6008,-1.5792,-1.5735,-1.5837,-1.5403,-1.5542,0.0,0.0,0.0,0.0,-1.8935,-1.9406,0.0,0.0,0.0,0.0,-1.9776,-1.9568,0.0,0.0,0.0,0.0,0.0,0.0,0.0,0.0,-1.9802,-1.9983,-2.0377,0.0,-2.056,-2.1024,-2.1989,-2.308,0.0,-2.5005,-2.6166,-2.6166,-2.6279,-2.63,-2.5436,-2.5345,-2.4969,-2.3761,-2.374,-2.3629,-2.2806,-2.2889,-2.2986,-2.2955,-2.3566,-2.4054,-2.4207,-2.4117,-2.4147,-2.4517,-2.4255,-2.4486,-2.4937,-2.4781,-2.4841,-2.5059,-2.4967,-2.4983,-2.523,-2.5151,-2.5103,-2.5103,-2.5103,-2.5103,-2.5103,-2.5103,-2.5262,-2.5516,-2.5345,-2.5675,-2.6438,-2.6336,-2.6424,-2.6675,-2.7035,-2.7067,-2.68,-2.7067,-2.72,-2.72,0.0,0.0,0.0,0.0,0.0,0.0,0.0,0.0,0.0,0.0,0.0,-0.7667,-0.8216,-0.8087,0.0,0.0,0.0,0.0,0.0,0.0,0.0,0.0,0.0,-1.3361,-1.4082,-1.4634,-1.4933,-1.4963,-1.5575,-1.5873,-1.5832,-1.5805,-1.5752,-1.5759,-1.5521,-1.5805,0.0,0.0,0.0,-1.8364,-1.9008,0.0,0.0,0.0,0.0,0.0,-1.9111,-1.8935,0.0,-1.9506,-1.9403,-1.9038,0.0,0.0,0.0,0.0,-1.9301,-1.9535,-1.9535,-1.9835,-2.0272,-2.0574,-2.1246,-2.1964,-2.2425,-2.3278,-2.3939,-2.3939,-2.423,-2.4319,-2.3855,-2.3845,-2.3677,-2.3169,-2.3139,-2.3067,-2.2736,-2.2856,-2.2841,-2.2811,-2.3424,-2.3783,-2.3619,-2.3758,-2.3867,-2.3946,-2.4044,-2.4193,-2.4454,-2.444,-2.4409,-2.458,-2.4518,-2.4487,-2.4857,-2.4734,-2.461,-2.461,-2.461,-2.4688,-2.4844,-2.4844,-2.5031,-2.5373,-2.5401,-2.568,-2.6168,-2.6191,-2.6229,-2.6398,-2.6666,-2.6532,-2.6398,-2.6666,-2.6666,-2.6666,0.0,0.0,0.0,0.0,0.0,0.0,0.0,0.0,0.0,0.0,0.0,0.0,0.0,0.0,0.0,0.0,0.0,0.0,0.0,0.0,0.0,0.0,-1.2733,-1.3137,-1.4082,-1.4448,-1.4717,-1.4897,-1.5617,-1.5927,-1.5832,-1.6126,-1.6061,-1.5787,-1.5998,-1.6443,-1.6928,0.0,-1.8038,-1.8323,-1.9038,0.0,0.0,0.0,0.0,0.0,0.0,0.0,0.0,-1.9681,-1.955,-1.9038,-1.8994,0.0,0.0,0.0,0.0,0.0,-1.9257,-1.974,-2.0208,-2.0446,-2.0554,-2.0768,-2.1213,-2.1402,-2.1464,-2.1464,-2.1666,-2.2023,-2.243,-2.2475,-2.2594,-2.2853,-2.2631,-2.2498,-2.2506,-2.2506,-2.2637,-2.3062,-2.3354,-2.3427,-2.3208,-2.3429,-2.3399,-2.3245,-2.3681,-2.3825,-2.3613,-2.3848,-2.3973,-2.4037,-2.4007,-2.4115,-2.4487,-2.4239,-2.4115,-2.4115,-2.4161,-2.4344,-2.4619,-2.4665,-2.4879,-2.5214,-2.5373,-2.5525,-2.5733,-2.5889,-2.6011,-2.6011,-2.6145,-2.6011,-2.6011,-2.6145,-2.6145,-2.6145,0.0,0.0,0.0,0.0,0.0,0.0,0.0,0.0,0.0,0.0,0.0,0.0,0.0,0.0,0.0,0.0,0.0,0.0,0.0,0.0,0.0,-1.3828,-1.3873,-1.3957,-1.4082,-1.3659,-1.3736,-1.4589,-1.4676,-1.5153,-1.5832,-1.6126,-1.5965,-1.5497,-1.5939,-1.6278,-1.636,-1.7456,-1.8082,-1.8455,-1.9022,0.0,0.0,0.0,0.0,0.0,0.0,0.0,0.0,-1.8642,-1.835,-1.7984,-1.7721,0.0,0.0,0.0,0.0,0.0,-1.9199,-1.974,-2.0106,-1.967,-1.994,-2.0195,-2.0061,-2.0393,-2.0772,-2.0772,-2.1278,-2.1739,-2.1785,-2.1964,-2.2169,-2.2214,-2.1757,-2.1569,-2.2169,-2.2008,-2.2154,-2.3003,-2.3149,-2.3267,-2.3501,-2.3281,-2.326,-2.3539,-2.331,-2.3325,-2.3569,-2.3693,-2.3664,-2.3619,-2.3743,-2.3728,-2.3728,-2.3991,-2.4115,-2.4115,-2.4405,-2.4573,-2.4619,-2.4909,-2.523,-2.555,-2.5348,-2.5529,-2.6069,-2.5712,-2.5742,-2.5727,-2.6011,-2.5876,-2.5742,-2.6011,-2.6145,-2.6011,0.0,0.0,0.0,0.0,0.0,0.0,0.0,0.0,0.0,0.0,0.0,0.0,0.0,0.0,0.0,0.0,0.0,0.0,0.0,0.0,0.0,-1.4082,-1.4082,-1.3828,-1.3307,-1.3138,-1.3141,-1.3338,-1.4039,-1.4727,-1.5392,-1.5665,-1.5738,-1.5618,-1.5537,-1.5912,-1.6498,-1.733,-1.7895,-1.8207,0.0,0.0,0.0,0.0,0.0,0.0,0.0,0.0,0.0,0.0,-1.835,-1.8057,-1.7896,0.0,0.0,0.0,0.0,0.0,-1.8921,-1.9491,-1.9872,-1.9389,-1.9626,-1.9923,-1.9775,-1.9926,-2.0166,-2.0348,-2.0771,-2.1163,-2.1345,-2.1442,-2.1713,-2.1891,-2.1965,-2.214,-2.2623,-2.271,-2.2886,-2.3325,-2.3369,-2.3354,-2.334,-2.3193,-2.312,-2.326,-2.3245,-2.312,-2.326,-2.3384,-2.3384,-2.3355,-2.3355,-2.3355,-2.3355,-2.3658,-2.3873,-2.3873,-2.4037,-2.4291,-2.465,-2.48,-2.5054,-2.5368,-2.5234,-2.5323,-2.5592,-2.5322,-2.5322,-2.5322,-2.5457,-2.5457,-2.5322,-2.5457,-2.5607,-2.5622,0.0,0.0,0.0,0.0,0.0,0.0,0.0,0.0,0.0,0.0,0.0,0.0,0.0,0.0,0.0,0.0,0.0,0.0,0.0,0.0,-1.4082,-1.4082,-1.4082,-1.3685,-1.2795,-1.2786,-1.2598,-1.2288,-1.3221,-1.4185,-1.5052,-1.5525,-1.5752,-1.5805,-1.5431,-1.5779,-1.6701,-1.7299,-1.7806,-1.81,0.0,0.0,0.0,0.0,0.0,0.0,0.0,0.0,0.0,0.0,0.0,0.0,0.0,0.0,0.0,-1.7779,-1.7843,-1.8178,-1.8686,-1.9155,-1.9415,-1.9418,-1.9579,-1.974,-1.9667,-1.9657,-1.9643,-1.9911,-2.0223,-2.0565,-2.0966,-2.1229,-2.154,-2.1862,-2.2257,-2.2637,-2.2945,-2.3208,-2.3398,-2.3471,-2.3486,-2.3384,-2.3135,-2.3106,-2.3106,-2.3106,-2.3106,-2.3106,-2.3106,-2.3106,-2.3106,-2.3106,-2.3179,-2.3223,-2.3223,-2.3545,-2.3676,-2.3588,-2.3749,-2.4086,-2.4569,-2.4657,-2.4818,-2.5052,-2.5052,-2.5052,-2.5052,-2.5052,-2.5052,-2.5052,-2.5052,-2.5052,-2.5052,-2.5052,-2.5052,-2.511,0.0,0.0,0.0,0.0,0.0,0.0,0.0,0.0,0.0,0.0,0.0,0.0,0.0,0.0,0.0,0.0,0.0,0.0,0.0,0.0,-1.4082,-1.4082,-1.4082,-1.3775,-1.2961,-1.2338,-1.2031,-1.2089,-1.2054,-1.3099,-1.5065,-1.6134,-1.6339,-1.5845,-1.6072,-1.6366,-1.67,-1.7313,-1.7716,-1.7989,-1.8318,0.0,0.0,0.0,0.0,0.0,0.0,0.0,0.0,0.0,0.0,0.0,0.0,0.0,-1.7399,-1.7369,-1.7413,-1.7707,-1.8513,-1.8629,-1.87,-1.9579,-1.974,-1.9681,-1.9389,-1.9286,-1.939,-1.9405,-1.967,-1.9989,-2.0603,-2.1481,-2.2213,-2.2506,-2.2359,-2.2315,-2.2608,-2.2681,-2.2798,-2.3106,-2.3149,-2.3135,-2.3106,-2.3106,-2.3106,-2.3106,-2.3106,-2.3106,-2.3106,-2.3106,-2.3106,-2.3106,-2.3398,-2.3559,-2.3559,-2.3881,-2.3896,-2.3603,-2.4203,-2.4525,-2.4583,-2.4876,-2.5037,-2.5052,-2.5052,-2.5052,-2.5052,-2.5052,-2.5052,-2.5052,-2.5052,-2.5052,-2.5052,-2.5052,-2.5052,-2.511,0.0,0.0,0.0,0.0,0.0,0.0,0.0,0.0,0.0,0.0,0.0,0.0,0.0,0.0,0.0,0.0,0.0,0.0,0.0,-1.2952,-1.4082,-1.4082,-1.4082,-1.3519,-1.2192,-1.2038,-1.1952,-1.1639,-1.2567,-1.3681,-1.5065,-1.6017,-1.6219,-1.5845,-1.6139,-1.6339,-1.6473,-1.7259,-1.7531,-1.7536,-1.8144,-1.8436,0.0,0.0,0.0,0.0,0.0,0.0,0.0,0.0,-1.7047,-1.7194,-1.7077,-1.7165,-1.7326,-1.7326,-1.724,-1.7251,-1.7779,-1.8196,-1.8454,-1.8801,-1.9502,-1.9916,-1.9389,-1.9272,-1.9447,-2.0047,-1.9959,-2.0018,-2.0867,-2.1496,-2.1979,-2.2301,-2.2418,-2.2491,-2.2608,-2.2798,-2.2974,-2.3091,-2.3106,-2.3106,-2.3106,-2.3106,-2.3106,-2.3106,-2.3106,-2.3106,-2.3106,-2.3106,-2.3106,-2.3106,-2.3427,-2.3588,-2.3588,-2.4115,-2.432,-2.4203,-2.4452,-2.4671,-2.4876,-2.4993,-2.5052,-2.5052,-2.5052,-2.5052,-2.5052,-2.5052,-2.5052,-2.5052,-2.5052,-2.5052,-2.5052,-2.5052,-2.5183,-2.5403,0.0,0.0,0.0,0.0,0.0,0.0,0.0,0.0,0.0,0.0,0.0,0.0,0.0,0.0,0.0,0.0,0.0,0.0,-1.0522,-1.2421,-1.3516,-1.36,-1.3607,-1.3176,-1.2104,-1.2124,-1.1732,-1.0887,-1.2832,-1.4149,-1.4843,-1.5862,-1.6166,-1.5979,-1.6179,-1.6326,-1.6433,-1.7049,-1.7279,-1.7271,-1.7784,-1.8025,0.0,0.0,0.0,0.0,0.0,0.0,0.0,0.0,-1.64,-1.6675,-1.6675,-1.6892,-1.7044,-1.7044,-1.7037,-1.7003,-1.7315,-1.7782,-1.8221,-1.8409,-1.9012,-1.9599,-1.9269,-1.936,-1.9594,-2.015,-2.0237,-2.0428,-2.1086,-2.1715,-2.2184,-2.2301,-2.2579,-2.2769,-2.2769,-2.2974,-2.3106,-2.3106,-2.3106,-2.3106,-2.3106,-2.3106,-2.3106,-2.3106,-2.3106,-2.3106,-2.3106,-2.3106,-2.3164,-2.3252,-2.3574,-2.3793,-2.391,-2.4452,-2.473,-2.473,-2.473,-2.4847,-2.5052,-2.5052,-2.5052,-2.5052,-2.5052,-2.5052,-2.5052,-2.5052,-2.5052,-2.5052,-2.5052,-2.5052,-2.5066,-2.5169,-2.5344,-2.5593,0.0,0.0,0.0,0.0,0.0,0.0,0.0,0.0,0.0,0.0,0.0,0.0,0.0,0.0,0.0,0.0,0.0,0.0,-0.9481,-1.1243,-1.2312,-1.2383,-1.2554,-1.2831,-1.3085,-1.24,-1.1356,-0.9884,-1.2417,-1.4059,-1.458,-1.5771,-1.6273,-1.6273,-1.6273,-1.6433,-1.67,-1.67,-1.6874,-1.7141,-1.7141,-1.7536,-1.7948,0.0,0.0,0.0,0.0,0.0,0.0,0.0,-1.5861,-1.6113,-1.6127,-1.6337,-1.6588,-1.6588,-1.6621,-1.6842,-1.7315,-1.7535,-1.775,-1.8234,-1.8422,-1.8541,-1.8869,-1.9324,-1.9667,-1.936,-2.0311,-2.1203,-2.1203,-2.2242,-2.2988,-2.2681,-2.2901,-2.3106,-2.3106,-2.3106,-2.3106,-2.3106,-2.3106,-2.3106,-2.3106,-2.3106,-2.3106,-2.3106,-2.3106,-2.3106,-2.3106,-2.3106,-2.3267,-2.3588,-2.391,-2.4247,-2.4569,-2.4891,-2.5052,-2.5052,-2.5052,-2.5052,-2.5052,-2.5052,-2.5052,-2.5052,-2.5052,-2.5052,-2.5052,-2.5052,-2.5052,-2.5052,-2.5052,-2.5052,-2.5096,-2.5418,-2.5535,-2.5637,0.0,0.0,0.0,0.0,0.0,0.0,0.0,0.0,0.0,0.0,0.0,0.0,0.0,0.0,0.0,0.0,0.0,0.0,-0.9471,-1.1243,-1.2052,-1.146,-1.1623,-1.1446,-1.0814,-1.0399,-1.0565,-1.1205,-1.2658,-1.379,-1.458,-1.5978,-1.6353,-1.5992,-1.6607,-1.6593,-1.6112,-1.6526,-1.6633,-1.6553,-1.6754,-1.7123,-1.7427,0.0,0.0,0.0,0.0,0.0,0.0,0.0,0.0,0.0,-1.5805,-1.6309,-1.6854,-1.6644,-1.6621,-1.6648,-1.6622,-1.7117,-1.7538,-1.7516,-1.8331,-1.8968,-1.864,-1.8992,-1.9584,-1.9823,-2.0618,-2.1203,-2.1203,-2.1891,-2.2491,-2.2608,-2.2901,-2.3106,-2.3106,-2.2856,-2.2355,-2.1447,-2.2215,-2.2341,-2.1447,-2.2466,-2.3106,-2.3106,-2.3106,-2.3106,-2.3106,-2.3261,-2.3449,-2.3603,-2.413,-2.4466,-2.4569,-2.4891,-2.5052,-2.5052,-2.5052,-2.5052,-2.5052,-2.5052,-2.5052,-2.5052,-2.5052,-2.5052,-2.5052,-2.5052,-2.5052,-2.5052,-2.5052,-2.5198,-2.5403,-2.5491,-2.5827,-2.6237,0.0,0.0,0.0,0.0,0.0,0.0,0.0,0.0,-0.8357,-0.8544,-0.8568,-0.8568,0.0,0.0,0.0,-0.83,-0.9358,0.0,-0.8792,-1.0203,-1.0821,-1.0398,-1.0716,-1.0671,-1.021,-0.9733,-1.0306,-1.2062,-1.2756,-1.3777,-1.5118,-1.598,-1.6299,-1.6206,-1.674,-1.662,-1.6019,-1.6259,-1.6259,-1.6126,-1.642,-1.678,-1.719,0.0,0.0,0.0,0.0,0.0,0.0,0.0,0.0,0.0,-1.5576,-1.603,-1.6553,-1.6498,-1.6607,-1.6643,-1.6576,-1.7035,-1.7599,-1.7306,-1.8016,-1.8739,-1.8828,-1.907,-1.9427,-2.0055,-2.075,-2.1203,-2.1203,-2.195,-2.2399,-2.1704,-2.2157,-2.223,-2.1335,-2.1069,-2.0676,-1.9649,-2.0803,-2.1321,-2.0423,-2.195,-2.2952,-2.2952,-2.2966,-2.3208,-2.333,-2.3493,-2.3666,-2.3984,-2.4364,-2.4627,-2.4759,-2.4964,-2.5052,-2.5052,-2.5052,-2.5052,-2.5052,-2.5052,-2.5052,-2.5052,-2.5052,-2.5052,-2.5052,-2.5052,-2.5052,-2.5052,-2.5052,-2.5242,-2.5549,-2.5681,-2.6047,-2.653,0.0,0.0,0.0,0.0,0.0,0.0,0.0,-0.8276,-0.8349,-0.8519,-0.856,-0.856,0.0,0.0,0.0,-0.8308,-0.8861,-0.8837,-0.7868,-0.8729,-0.9318,-0.9308,-0.9826,-1.0259,-1.0564,-0.9998,-1.0672,-1.2694,-1.2619,-1.3692,-1.5832,-1.5858,-1.6152,-1.666,-1.666,-1.65,-1.6206,-1.5885,-1.5752,-1.5778,-1.6072,-1.6513,-1.6941,-1.642,0.0,0.0,0.0,0.0,0.0,0.0,0.0,0.0,-1.5391,-1.5618,-1.5912,-1.6166,-1.646,-1.6754,-1.7007,-1.7301,-1.7542,-1.7542,-1.7582,-1.7968,-1.9069,-1.9368,-1.9513,-2.0143,-2.0764,-2.1174,-2.1203,-2.2078,-2.2196,-2.0362,-2.077,-2.0721,-1.8768,-1.8489,-1.8244,-1.7848,-1.9012,-1.9789,-1.9661,-2.1281,-2.2395,-2.2395,-2.2827,-2.3243,-2.3595,-2.3652,-2.3941,-2.4554,-2.4598,-2.4759,-2.5052,-2.5052,-2.5052,-2.5052,-2.5052,-2.5052,-2.5052,-2.5052,-2.5052,-2.5052,-2.5052,-2.5052,-2.5052,-2.5052,-2.5052,-2.5066,-2.5096,-2.5286,-2.5622,-2.5944,-2.6266,-2.6588,0.0,0.0,0.0,0.0,0.0,0.0,-0.804,-0.8195,-0.8308,-0.8349,-0.8479,-0.8511,-0.8365,-0.8479,0.0,-0.8308,-0.8861,-0.881,-0.8041,-0.9452,-0.9715,-0.8336,-0.879,-0.9259,-0.9627,-1.035,-1.122,-1.2363,-1.2534,-1.3692,-1.5832,-1.6072,-1.6246,-1.6366,-1.6366,-1.6206,-1.5885,-1.5378,-1.515,-1.5177,-1.5471,-1.5658,-1.5778,-1.5885,-1.5778,0.0,0.0,0.0,0.0,0.0,0.0,0.0,-1.5391,-1.5752,-1.6139,-1.5979,-1.6299,-1.6673,-1.65,-1.6847,-1.7248,-1.7248,-1.7582,-1.8064,-1.8536,-1.9002,-1.971,-2.0714,-2.0911,-2.0911,-2.1159,-2.0991,-2.051,-1.992,-1.9722,-1.9279,-1.8356,-1.8128,-1.7613,-1.6183,-1.7216,-1.7602,-1.6571,-1.8951,-2.0797,-2.0967,-2.2381,-2.3243,-2.3595,-2.407,-2.4405,-2.4569,-2.4818,-2.4979,-2.5052,-2.5052,-2.5052,-2.5052,-2.5052,-2.5052,-2.5052,-2.5052,-2.5052,-2.5052,-2.5052,-2.5052,-2.5052,-2.5052,-2.5052,-2.5081,-2.533,-2.5622,-2.5944,-2.6281,-2.6603,-2.6896,0.0,0.0,0.0,0.0,0.0,0.0,0.0,0.0,-0.839,-0.83,-0.8373,-0.8398,-0.83,-0.83,0.0,0.0,-0.8401,-0.8414,-0.8008,-0.8828,-0.9081,-0.8519,-0.8804,-0.912,-0.9478,-1.035,-1.1342,-1.2288,-1.2648,-1.374,-1.5618,-1.5778,-1.6005,-1.6273,-1.6273,-1.6032,-1.5591,-1.515,-1.4883,-1.4776,-1.507,-1.5271,-1.5391,-1.5404,-1.5404,-1.5378,-1.5244,0.0,0.0,0.0,0.0,0.0,0.0,0.0,-1.548,-1.5949,-1.6259,-1.6427,-1.5946,-1.6088,-1.6342,-1.6573,-1.6398,-1.6733,-1.8319,-1.8584,-1.8971,-2.0444,-2.0715,-2.0643,-2.0357,-2.0164,-1.9494,-1.8034,-1.7871,-1.7446,-1.6146,-1.5992,-1.5554,-1.4259,-1.5424,-1.5934,-1.5294,-1.7953,-1.9663,-1.9136,-2.1617,-2.2865,-2.243,-2.3651,-2.4357,-2.452,-2.4694,-2.4781,-2.4781,-2.5052,-2.5052,-2.4781,-2.5052,-2.5052,-2.5052,-2.5052,-2.5052,-2.5052,-2.5052,-2.5052,-2.5052,-2.5052,-2.5052,-2.5096,-2.5403,-2.5725,-2.6061,-2.6383,-2.6705,-2.6983,0.0,0.0,0.0,0.0,0.0,0.0,0.0,0.0,0.0,-0.826,-0.8268,-0.8276,-0.8243,-0.8105,-0.8,0.0,0.0,0.0,-0.7959,-0.8,-0.841,-0.9292,-0.914,-0.9202,-0.9527,-1.0428,-1.1358,-1.216,-1.2944,-1.3976,-1.5324,-1.5378,-1.5712,-1.6273,-1.6166,-1.5858,-1.5378,-1.4977,-1.4669,-1.4469,-1.4763,-1.5003,-1.515,-1.5017,-1.5084,-1.519,-1.4803,-1.479,-1.5003,-1.5114,0.0,0.0,0.0,0.0,-1.4459,-1.5564,-1.6095,-1.617,-1.5515,-1.5184,-1.521,-1.547,-1.5006,-1.5166,-1.7955,-1.8043,-1.7982,-1.9869,-2.05,-2.0371,-1.9679,-1.9325,-1.8501,-1.6241,-1.6045,-1.5553,-1.3518,-1.3578,-1.3621,-1.284,-1.3875,-1.452,-1.452,-1.7098,-1.8314,-1.7252,-2.0371,-2.1951,-2.112,-2.27,-2.3884,-2.436,-2.4495,-2.4495,-2.436,-2.4781,-2.4781,-2.436,-2.4781,-2.5052,-2.5052,-2.5052,-2.5052,-2.5052,-2.5052,-2.5052,-2.5052,-2.5052,-2.5096,-2.5169,-2.5432,-2.5769,-2.6135,-2.6398,-2.6705,-2.6983,0.0,0.0,0.0,0.0,0.0,0.0,0.0,0.0,0.0,0.0,-0.8187,-0.8227,-0.8065,-0.8024,-0.7951,-0.7805,-0.7772,-0.7772,-0.7789,0.0,0.0,-0.9993,-0.9306,-0.8958,-0.9161,-1.0891,-1.178,-1.1668,-1.3485,-1.4595,-1.503,-1.5284,-1.5712,-1.6246,-1.5738,-1.5471,-1.5351,-1.4549,-1.4175,-1.4175,-1.4469,-1.4456,-1.4309,-1.479,-1.483,-1.4696,-1.5124,-1.5137,-1.4913,-1.4364,-1.3921,0.0,0.0,0.0,-1.4048,-1.4259,-1.5287,-1.6091,-1.5072,-1.4412,-1.4173,-1.4287,-1.4581,-1.5266,-1.6782,-1.7285,-1.799,-1.9564,-2.0155,-2.027,-2.0155,-1.8488,-1.7051,-1.6521,-1.5102,-1.3806,-1.3029,-1.3164,-1.3367,-1.284,-1.2964,-1.3095,-1.3095,-1.452,-1.5654,-1.5961,-1.7753,-1.9495,-2.1132,-2.1667,-2.2589,-2.3952,-2.436,-2.4374,-2.4088,-2.4374,-2.4374,-2.4088,-2.4374,-2.4631,-2.4631,-2.4631,-2.4781,-2.5052,-2.5052,-2.5052,-2.5052,-2.5052,-2.5213,-2.5476,-2.552,-2.59,-2.6442,-2.6486,-2.6705,-2.6983,0.0,0.0,0.0,0.0,0.0,0.0,0.0,0.0,0.0,0.0,0.0,-0.7959,-0.7878,-0.778,-0.7683,-0.761,-0.7602,-0.765,-0.7756,-0.7918,-0.8379,-0.927,-0.8941,-0.8812,-0.9088,-1.0351,-1.1079,-1.1292,-1.2781,-1.3896,-1.4723,-1.5017,-1.5471,-1.6005,-1.5418,-1.515,-1.511,-1.4389,-1.4082,-1.4095,-1.4229,-1.4043,-1.3586,-1.3698,-1.3699,-1.376,-1.3875,-1.3774,-1.3711,-1.353,-1.2733,-1.1754,-1.2075,0.0,0.0,0.0,-1.345,-1.3826,-1.3073,-1.2412,-1.2172,-1.2901,-1.3038,-1.3538,-1.5343,-1.6136,-1.6912,-1.8194,-1.9229,-1.9461,-1.8389,-1.6701,-1.5241,-1.4439,-1.3803,-1.3317,-1.2706,-1.3068,-1.3235,-1.284,-1.284,-1.284,-1.284,-1.4119,-1.4754,-1.4232,-1.6657,-1.8542,-1.9379,-2.0707,-2.2069,-2.3584,-2.383,-2.3816,-2.3679,-2.4088,-2.4088,-2.3966,-2.4088,-2.4224,-2.4224,-2.4224,-2.4374,-2.4781,-2.4781,-2.4916,-2.5052,-2.5052,-2.514,-2.5301,-2.5666,-2.5974,-2.6281,-2.6647,-2.6866,-2.6983,0.0,0.0,0.0,0.0,0.0,0.0,0.0,0.0,0.0,0.0,0.0,-0.7836,-0.7836,0.0,0.0,0.0,-0.748,-0.7561,-0.7748,-0.7878,-0.8089,-0.8328,-0.8384,-0.8537,-0.8794,-0.9553,-1.027,-1.0706,-1.1997,-1.3199,-1.4161,-1.4728,-1.5271,-1.5805,-1.5297,-1.503,-1.4937,-1.4416,-1.4202,-1.4202,-1.3926,-1.3586,-1.3188,-1.275,-1.2811,-1.2974,-1.2657,-1.247,-1.2482,-1.2353,-1.1321,-1.0286,-1.1081,-1.098,0.0,0.0,0.0,-1.1703,-1.1452,-1.087,-1.0567,-1.1693,-1.1733,-1.1979,-1.4063,-1.4928,-1.5654,-1.6785,-1.7818,-1.7935,-1.6149,-1.5322,-1.4451,-1.3101,-1.2923,-1.2995,-1.2668,-1.2988,-1.3104,-1.284,-1.284,-1.284,-1.284,-1.3857,-1.4119,-1.3244,-1.5604,-1.7378,-1.808,-1.9646,-2.1183,-2.2625,-2.3147,-2.3119,-2.2709,-2.3406,-2.3816,-2.3816,-2.3816,-2.3816,-2.3816,-2.3816,-2.3952,-2.4224,-2.436,-2.451,-2.4781,-2.4781,-2.496,-2.5077,-2.5469,-2.5775,-2.6193,-2.6588,-2.6852,-2.6983,0.0,0.0,0.0,0.0,0.0,0.0,0.0,0.0,0.0,0.0,0.0,-0.7836,-0.7836,-0.7594,-0.748,-0.748,-0.748,-0.7561,-0.7748,-0.7772,-0.7773,-0.771,-0.7873,0.0,-0.8084,-0.8913,-0.9489,-0.9817,-1.1566,-1.2747,-1.3361,-1.4461,-1.5271,-1.5818,-1.5511,-1.5217,-1.4937,-1.4629,-1.4496,-1.4435,-1.3619,-1.3188,-1.3168,-1.2596,-1.2383,-1.2437,-1.2074,-1.1903,-1.1748,-1.0534,-0.996,-0.9786,-0.9024,-0.95,-1.0452,0.0,0.0,0.0,-1.1075,-1.0562,-1.0038,-1.0666,-1.0964,-1.162,-1.3073,-1.3641,-1.4152,-1.5451,-1.5806,-1.5451,-1.4143,-1.4738,-1.5168,-1.407,-1.3047,-1.2369,-1.254,-1.2718,-1.284,-1.284,-1.284,-1.284,-1.284,-1.3104,-1.3244,-1.3392,-1.3647,-1.5115,-1.8244,-1.8432,-1.9278,-2.0678,-2.2461,-2.2572,-2.0768,-2.216,-2.3133,-2.3406,-2.3406,-2.3406,-2.3406,-2.3406,-2.3406,-2.3543,-2.3816,-2.4102,-2.4102,-2.4102,-2.4408,-2.4925,-2.4653,-2.5374,-2.6442,-2.6164,-2.6457,-2.6983,0.0,0.0,0.0,0.0,0.0,0.0,0.0,0.0,0.0,0.0,0.0,0.0,0.0,-0.7521,-0.748,-0.748,-0.7411,-0.7366,-0.743,-0.7274,-0.7265,-0.7273,-0.7447,-0.7674,-0.7773,-0.8199,-0.8649,-0.9183,-1.0148,-1.1383,-1.2759,-1.3474,-1.4244,-1.499,-1.5084,-1.5057,-1.4937,-1.4442,-1.3887,-1.3336,-1.3405,-1.2714,-1.1758,-1.1766,-1.1764,-1.1822,-1.1395,-1.1169,-1.0905,-1.0486,-0.9723,-0.8999,-0.8744,-0.8874,-0.9279,-0.9279,-0.9405,-0.9673,-0.9811,-0.987,-0.9957,-1.0274,-1.0785,-1.1356,-1.1876,-1.294,-1.3946,-1.4291,-1.4976,-1.5256,-1.4086,-1.4237,-1.4135,-1.2873,-1.2532,-1.2491,-1.2556,-1.2718,-1.284,-1.284,-1.284,-1.2881,-1.2994,-1.3038,-1.3211,-1.3443,-1.3538,-1.4955,-1.8275,-1.7518,-1.8122,-2.0471,-2.0388,-2.034,-2.0629,-2.216,-2.2996,-2.3133,-2.3133,-2.3133,-2.3133,-2.3133,-2.3133,-2.3133,-2.327,-2.3543,-2.3966,-2.3966,-2.4158,-2.4422,-2.4996,-2.5466,-2.5939,-2.6085,-2.6344,-2.6546,0.0,0.0,0.0,0.0,0.0,0.0,0.0,0.0,-0.748,-0.748,0.0,0.0,0.0,0.0,-0.7403,-0.7326,-0.7257,-0.718,-0.718,-0.7103,-0.6994,-0.7029,-0.7163,-0.7326,-0.7436,-0.7665,-0.8034,-0.8509,-0.9211,-1.0221,-1.1555,-1.2576,-1.3411,-1.4216,-1.4674,-1.4816,-1.479,-1.4295,-1.3796,-1.325,-1.3136,-1.2395,-1.1327,-1.1198,-1.1043,-1.0946,-1.0689,-1.0529,-1.0296,-1.0233,-0.9673,-0.8901,-0.8787,-0.8666,-0.8568,-0.8568,-0.8731,-0.8834,-0.8898,-0.9252,-0.9694,-1.0056,-1.0647,-1.111,-1.1354,-1.2226,-1.3036,-1.3093,-1.4023,-1.457,-1.346,-1.3674,-1.3615,-1.2449,-1.241,-1.2588,-1.2645,-1.2759,-1.284,-1.284,-1.284,-1.2881,-1.3136,-1.3178,-1.3352,-1.3595,-1.3636,-1.4802,-1.7521,-1.6695,-1.7317,-1.9749,-1.8843,-1.9089,-2.0629,-2.216,-2.2859,-2.2859,-2.2859,-2.2859,-2.2859,-2.2859,-2.2859,-2.2859,-2.2859,-2.3133,-2.3679,-2.3679,-2.3749,-2.401,-2.4707,-2.513,-2.5513,-2.5926,-2.6154,-2.6093,0.0,0.0,0.0,0.0,0.0,0.0,-0.7764,-0.7618,-0.7496,-0.7496,0.0,0.0,0.0,0.0,0.0,-0.6949,-0.7111,-0.7188,-0.718,-0.718,-0.7103,-0.6865,-0.6936,-0.7026,-0.7109,-0.7436,-0.7605,-0.7687,-0.8819,-0.9495,-0.9798,-1.1878,-1.3051,-1.3549,-1.419,-1.4422,-1.4396,-1.4202,-1.4255,-1.4327,-1.2803,-1.2067,-1.1848,-1.1011,-1.0363,-0.9908,-0.9908,-0.99,-0.9868,-0.9697,-0.9632,-0.9551,-0.9194,-0.8844,-0.8568,-0.8568,-0.8384,-0.8247,0.0,0.0,0.0,-0.991,-1.0434,-1.0867,-1.1581,-1.1614,-1.1541,-1.1727,-1.2715,-1.325,-1.225,-1.3163,-1.3852,-1.2797,-1.2572,-1.2629,-1.2808,-1.284,-1.284,-1.284,-1.284,-1.284,-1.3112,-1.3252,-1.3401,-1.3558,-1.38,-1.45,-1.6007,-1.6103,-1.6737,-1.8239,-1.8379,-1.9089,-2.0491,-2.216,-2.2859,-2.2859,-2.2859,-2.2859,-2.2859,-2.2859,-2.2859,-2.2859,-2.2859,-2.2859,-2.2859,-2.2873,-2.3322,-2.3872,-2.3885,-2.4524,-2.5338,-2.5338,-2.5534,-2.58,0.0,0.0,0.0,0.0,0.0,-0.7706,-0.7706,-0.7504,-0.7384,0.0,0.0,0.0,-0.7462,-0.7525,-0.7525,-0.7288,-0.7281,-0.7305,-0.7188,-0.6949,-0.6718,-0.6718,-0.6781,-0.6778,-0.6785,-0.7352,-0.7521,-0.7447,-0.809,-0.8773,-0.9567,-1.0282,-1.1059,-1.1958,-1.2843,-1.3163,-1.3236,-1.3867,-1.3814,-1.3498,-1.3275,-1.2502,-1.15,-1.1545,-1.1022,0.0,0.0,-1.0306,-1.0079,0.0,-0.9673,-0.9185,-0.8828,-0.8464,-0.812,-0.8288,-0.8205,-0.8133,-0.8185,0.0,0.0,0.0,0.0,0.0,-1.0891,-1.1053,-1.12,-1.1516,-1.1811,-1.2183,-1.215,-1.2515,-1.2783,-1.271,-1.2759,-1.2775,-1.2832,-1.284,-1.284,-1.284,-1.284,-1.2972,-1.3252,-1.3392,-1.3478,0.0,-1.3932,-1.45,-1.6007,-1.6102,-1.5772,-1.5168,-1.7268,-1.8659,-1.8949,-2.1596,-2.2859,-2.2859,-2.2859,-2.2859,-2.2859,-2.2859,-2.2859,-2.2859,-2.2859,-2.301,-2.3187,-2.3252,-2.3287,-2.3588,-2.4222,-2.4754,-2.4933,-2.5167,-2.5304,-2.5373,0.0,0.0,-0.8373,-0.826,-0.8018,-0.7803,-0.7803,-0.7492,-0.7364,0.0,0.0,0.0,-0.7554,-0.7772,-0.7682,-0.7293,-0.735,-0.7359,-0.7196,-0.6872,-0.671,-0.671,-0.6638,-0.6634,-0.6702,-0.7267,-0.7436,-0.7191,-0.7769,-0.8254,-0.8664,-0.9275,-0.9986,-1.0722,-1.1671,-1.21,-1.2186,-1.3137,-1.3493,-1.3436,-1.309,-1.2374,-1.157,-1.144,-1.089,0.0,0.0,0.0,-1.0184,-1.0331,-0.9908,0.0,-0.8792,-0.8344,-0.7944,-0.8025,-0.8012,-0.784,-0.7898,-0.8102,-0.8468,-0.8862,0.0,0.0,-1.0564,-1.0835,-1.098,-1.1524,-1.1614,-1.176,-1.2223,-1.2304,-1.2426,-1.2783,-1.284,-1.284,-1.284,-1.284,-1.284,-1.284,-1.284,-1.3112,-1.3392,-1.3394,-1.3595,-1.3872,-1.3904,-1.4349,-1.5105,-1.5248,-1.5079,-1.4893,-1.7127,-1.8659,-1.9367,-2.1734,-2.2859,-2.2859,-2.2859,-2.2859,-2.2859,-2.2859,-2.2859,-2.2859,-2.301,-2.3174,-2.3351,-2.3633,-2.3708,-2.3776,-2.4282,-2.4671,-2.4688,-2.4864,-2.4931,-2.4931,0.0,-0.8455,-0.8568,-0.8593,-0.8202,-0.7842,-0.7865,-0.755,-0.7453,0.0,-0.7788,-0.7788,-0.7803,-0.7997,-0.7858,-0.7303,-0.7396,-0.7383,-0.7297,-0.7034,-0.6865,-0.6865,-0.6627,-0.6539,-0.6675,-0.7253,-0.7436,-0.7026,-0.7687,-0.7851,-0.7687,-0.8746,-0.934,-0.9702,-1.0702,-1.1133,-1.1198,-1.2174,-1.3076,-1.3754,-1.2774,-1.2162,0.0,0.0,-1.0461,-1.0014,-1.0347,-1.0363,-1.0266,-1.0542,-1.0007,0.0,-0.8894,-0.84,-0.7945,-0.7878,-0.7716,-0.752,-0.7633,-0.7873,-0.8101,-0.8542,-0.8853,0.0,-1.0331,-1.0521,-1.0689,-1.143,-1.1671,-1.1792,-1.215,-1.2357,-1.248,-1.2694,-1.2906,-1.2947,-1.2832,-1.284,-1.284,-1.298,-1.3112,-1.3285,-1.3643,-1.3669,-1.3745,-1.3904,-1.403,-1.4173,-1.4181,-1.4324,-1.5026,-1.6291,-1.783,-1.9228,-2.0629,-2.216,-2.2859,-2.2859,-2.2859,-2.2859,-2.2859,-2.2859,-2.2859,-2.301,-2.3174,-2.3324,-2.3379,-2.3923,-2.4222,-2.4201,-2.4219,-2.4342,-2.4636,-2.4636,-2.4636,-2.4636,-0.8487,-0.836,-0.8336,-0.8387,-0.802,-0.7771,-0.7901,-0.7786,-0.7728,-0.7956,-0.8223,-0.8364,-0.8496,-0.848,-0.8305,-0.806,-0.7963,-0.7805,-0.7715,-0.7173,-0.6865,-0.6865,-0.6627,-0.6572,-0.6767,-0.7286,-0.7521,-0.7281,-0.7604,-0.7769,-0.7694,-0.7934,-0.8131,-0.8463,-0.9619,-1.0105,-1.0119,-1.1155,-1.1893,-1.2361,-1.2825,-1.2447,-1.1449,-1.1353,-1.1,-1.0542,-1.0615,-1.0623,-1.0558,-1.0339,-0.9863,-0.9351,0.0,-0.8335,-0.7966,-0.7652,-0.7675,-0.776,-0.767,-0.7753,-0.7918,-0.8329,-0.8478,0.0,-0.925,-0.9504,-0.9685,-1.0158,-1.0568,-1.0886,-1.1232,-1.2492,-1.3143,-1.2274,-1.3317,-1.3829,-1.2947,-1.284,-1.3252,-1.4358,-1.3664,-1.362,-1.4955,-1.4115,-1.3745,-1.3904,-1.4947,-1.5625,-1.5689,-1.6836,-1.7679,-1.7959,-1.9367,-2.0352,-2.0629,-2.216,-2.2859,-2.2859,-2.2859,-2.2859,-2.2859,-2.2859,-2.301,-2.3174,-2.3324,-2.3625,-2.3969,-2.4094,-2.4241,-2.4156,-2.4502,-2.4569,-2.4636,-2.4636,-2.4636,-2.4676,-0.8544,-0.8384,-0.8255,-0.8517,-0.8185,-0.7971,-0.8038,-0.7809,-0.7695,-0.7959,-0.8434,-0.8776,-0.8774,-0.8786,-0.8723,-0.8273,-0.8167,-0.8073,-0.7894,-0.7319,-0.7062,-0.7141,-0.6756,-0.6669,-0.6912,-0.7318,-0.7399,-0.707,-0.7567,-0.7697,-0.7529,-0.7769,-0.7995,-0.8241,-0.8845,-0.9131,-0.9305,-1.0163,-1.0504,-1.0381,-1.1631,0.0,-1.1373,-1.1151,-1.0957,-1.0688,-1.0688,-1.0688,-1.0647,-1.0273,-0.9863,0.0,-0.8907,-0.8477,-0.8056,-0.7674,-0.7622,-0.7692,-0.7617,-0.7651,-0.778,-0.8279,-0.8292,0.0,0.0,-0.9115,-0.9338,-0.9853,-1.0339,-1.0623,-1.0848,-1.1885,-1.2785,-1.2733,-1.3204,-1.3585,-1.3456,-1.311,-1.3252,-1.4781,-1.3866,-1.3863,-1.531,-1.4349,-1.3753,-1.3904,-1.5953,-1.6877,-1.6139,-1.7627,-1.8798,-1.9507,-2.0213,-2.0906,-2.1747,-2.2448,-2.2859,-2.2859,-2.2859,-2.2859,-2.2859,-2.302,-2.31,-2.3278,-2.366,-2.3882,-2.4274,-2.4282,-2.4417,-2.4462,-2.4488,-2.4636,-2.4636,-2.4636,-2.4636,-2.4663,-0.8472,-0.832,-0.8205,-0.8615,-0.8428,-0.8151,-0.837,-0.8015,-0.7827,-0.811,-0.8653,-0.906,-0.9056,-0.9035,-0.893,-0.8496,-0.8368,-0.8231,-0.7963,-0.7461,-0.7288,-0.7362,-0.6863,-0.6741,-0.7019,-0.7199,-0.7181,-0.6885,-0.748,-0.7582,-0.7364,-0.7655,-0.7942,-0.8167,-0.8289,-0.84,-0.852,-0.9348,-0.9296,-0.8861,0.0,-1.0843,-1.1012,-1.0749,-1.059,-1.0599,-1.0664,-1.0688,-1.0664,-1.027,-0.991,-0.9484,-0.9006,-0.8613,-0.8238,-0.7773,-0.7699,-0.7794,-0.7706,-0.7726,-0.7848,-0.8187,-0.8174,-0.8174,0.0,0.0,0.0,-0.9721,-1.0077,-1.0326,-1.0368,-1.1138,0.0,-1.2803,0.0,0.0,0.0,-1.3054,0.0,-1.464,-1.4223,-1.4228,-1.531,-1.4651,-1.4164,-1.3948,-1.6846,-1.81,-1.6629,-1.8293,-1.9785,-2.1044,-2.1044,-2.1609,-2.2859,-2.2859,-2.2859,-2.2859,-2.2859,-2.2899,-2.2953,-2.3207,-2.338,-2.3487,-2.4004,-2.4296,-2.4296,-2.4449,-2.4636,-2.4636,-2.4636,-2.4636,-2.4636,-2.4636,-2.4636,-2.4649,-0.8201,-0.7968,-0.7891,-0.8367,-0.834,-0.8261,-0.8564,-0.8564,-0.8564,-0.8844,-0.9221,-0.9509,-0.977,-0.945,-0.9151,-0.9096,-0.8668,-0.8244,-0.7804,-0.764,-0.7458,-0.7211,-0.6763,-0.6687,-0.7019,-0.7109,-0.7116,-0.6971,-0.7138,-0.713,-0.7019,-0.7127,-0.7251,-0.7252,-0.8059,-0.8185,-0.7842,-0.8509,-0.9035,-0.9283,-0.9331,-0.9364,0.0,-1.0067,-1.0225,-1.0266,-1.0582,-1.0688,-1.0664,0.0,-1.0182,-0.9859,0.0,-0.894,-0.8786,-0.7897,-0.8065,-0.8499,-0.8099,-0.818,-0.8364,-0.8289,-0.8255,-0.8221,-0.8133,0.0,-0.8604,-0.8652,0.0,-0.9529,-0.9565,0.0,0.0,-1.0817,-1.1844,0.0,-1.1604,-1.1718,-1.2613,-1.4472,-1.5044,-1.5366,-1.547,-1.5399,-1.5097,-1.4009,-1.7721,-1.9498,-1.8282,-2.0845,-2.2448,-2.2585,-2.2585,-2.2722,-2.2859,-2.2859,-2.2859,-2.2859,-2.2859,-2.3006,-2.3273,-2.3313,-2.3567,-2.4125,-2.4174,-2.4404,-2.4543,-2.4609,-2.4636,-2.4636,-2.4636,-2.4636,-2.4636,-2.4636,-2.4636,-2.4676,-0.7921,-0.7819,-0.7721,-0.8178,-0.8203,-0.8292,-0.8579,-0.8668,-0.8728,-0.8826,-0.9046,-0.9091,-0.9099,-0.8931,-0.8848,-0.8653,0.0,-0.8261,0.0,-0.7665,-0.7534,-0.7432,-0.7047,-0.6873,-0.7019,-0.7026,-0.6986,-0.6915,-0.7076,-0.7026,-0.7019,-0.7208,-0.7281,-0.7388,-0.793,-0.8231,-0.8313,-0.8502,-0.8855,-0.9218,0.0,-0.8898,0.0,-0.9743,-0.9992,-1.01,-1.0469,-1.0579,-1.0424,0.0,-1.0249,0.0,-0.9768,-0.9389,-0.8924,-0.8282,-0.8214,-0.8282,-0.8092,-0.8194,-0.8364,-0.8384,-0.8391,-0.8377,-0.8309,-0.833,-0.8411,-0.8581,0.0,0.0,0.0,0.0,0.0,0.0,-1.1326,-1.1727,0.0,0.0,-1.2387,0.0,0.0,0.0,-1.5621,-1.7215,-1.7426,-1.5317,-1.907,-2.0886,-1.9784,-2.1683,-2.2859,-2.2859,-2.2859,-2.2859,-2.2859,-2.2859,-2.2859,-2.2859,-2.3023,-2.3228,-2.3376,-2.3588,-2.4012,-2.4228,-2.4327,-2.4569,-2.4636,-2.4636,-2.4636,-2.4636,-2.4811,-2.4797,-2.4636,-2.4636,-2.4636,-2.4649,-0.7738,-0.7627,-0.7678,-0.802,-0.8291,-0.8487,-0.8564,-0.8691,-0.878,-0.8718,-0.877,-0.8748,-0.8735,-0.8667,-0.8645,-0.8519,-0.8512,-0.835,0.0,0.0,-0.7702,-0.78,-0.7311,-0.707,-0.7197,-0.7035,-0.6895,-0.6803,-0.6854,-0.6901,-0.6943,-0.7155,-0.7308,-0.7365,-0.7786,-0.8146,-0.8534,-0.8496,-0.8751,-0.9044,-0.8728,-0.877,-0.9048,-0.96,-0.9943,-1.0129,-1.0357,-1.0433,-1.0293,-1.0593,-1.0339,0.0,-1.0296,-0.9904,-0.9256,-0.8906,-0.8618,-0.8391,-0.8309,-0.8397,-0.8506,-0.8486,-0.8479,-0.8472,-0.8431,-0.8404,-0.8465,-0.8723,-0.9057,0.0,0.0,0.0,-1.0114,-1.0787,0.0,-1.074,-1.1585,-1.1248,0.0,0.0,0.0,0.0,0.0,-1.7755,-1.8164,-1.6732,-1.9752,-2.1455,-2.0585,-2.2082,-2.2859,-2.2859,-2.2859,-2.2859,-2.2859,-2.2859,-2.301,-2.301,-2.3174,-2.3406,-2.3596,-2.4045,-2.4188,-2.435,-2.4462,-2.4636,-2.4636,-2.4636,-2.4636,-2.4636,-2.4811,-2.4836,-2.4573,-2.4756,-2.4649,-2.4649,-0.7474,-0.7624,-0.7764,-0.8151,-0.8489,-0.8675,-0.8564,-0.8594,-0.8556,-0.8414,-0.8571,-0.8765,0.0,0.0,0.0,0.0,0.0,-0.8716,-0.8357,0.0,-0.8287,-0.8411,-0.7461,-0.7122,-0.7563,-0.7,-0.6627,-0.6485,-0.6478,-0.6552,-0.6695,-0.6796,-0.6894,-0.6953,-0.7576,-0.788,-0.7788,-0.84,-0.8751,-0.8962,-0.882,-0.8939,-0.9209,0.0,-0.9898,-1.0293,-1.0293,0.0,0.0,-1.0462,-1.0514,0.0,0.0,-1.0143,-0.989,-0.9514,-0.9349,-0.9273,-0.8988,-0.9015,-0.9022,-0.8587,-0.8479,-0.8445,-0.8309,-0.8492,-0.8743,-0.8899,-0.9157,-0.9361,-0.9367,-0.9374,-0.949,-0.949,-0.9504,0.0,0.0,-0.995,0.0,0.0,0.0,0.0,0.0,-1.6215,-1.6086,0.0,-1.924,-2.0126,-2.0561,-2.2082,-2.2859,-2.2859,-2.2859,-2.2859,-2.2859,-2.2859,-2.301,-2.3324,-2.3324,-2.3637,-2.4222,-2.4235,-2.439,-2.4609,-2.4636,-2.4636,-2.4636,-2.4636,-2.4636,-2.4636,-2.4636,-2.4644,-2.4604,-2.49,-2.4811,-2.469,-0.7474,-0.7812,-0.8004,-0.804,-0.8305,-0.8644,-0.8837,-0.869,-0.8593,0.0,-0.8642,0.0,0.0,-0.8661,-0.8584,0.0,0.0,-0.8529,-0.8282,-0.8179,0.0,0.0,0.0,-0.7394,0.0,-0.7149,-0.6919,-0.6776,-0.6675,-0.6702,-0.6851,-0.6888,-0.6915,-0.6946,-0.7492,-0.7868,-0.8215,-0.8341,-0.8791,-0.9315,0.0,-0.9307,-0.9415,0.0,-0.9816,-0.9884,-1.0002,-1.0066,0.0,-1.0324,-1.0398,-1.0364,-1.0529,-1.0433,-1.0158,-0.9865,-0.9617,-0.9307,-0.9195,-0.9191,-0.9218,-0.8872,-0.8784,-0.8743,-0.8594,-0.8635,-0.8757,-0.8906,-0.9171,-0.9347,-0.9252,-0.9313,-0.9381,-0.9381,-0.9462,-0.9462,0.0,-0.9571,0.0,0.0,0.0,0.0,0.0,0.0,0.0,0.0,-1.8821,0.0,-2.0561,-2.2082,-2.2859,-2.2859,-2.2859,-2.2859,-2.2859,-2.2859,-2.301,-2.3324,-2.3488,-2.3901,-2.415,-2.4323,-2.4462,-2.4636,-2.4636,-2.4636,-2.4636,-2.4636,-2.4636,-2.4636,-2.4811,-2.489,-2.4855,-2.4783,-2.4649,-2.4716,-0.7746,-0.8025,-0.8201,-0.8025,-0.8259,-0.8559,-0.8744,-0.8601,0.0,0.0,-0.8618,0.0,-0.8472,0.0,-0.856,0.0,-0.8615,-0.8581,-0.8438,-0.8282,0.0,-0.8357,-0.797,0.0,0.0,-0.7461,-0.7204,-0.7007,-0.6858,-0.6831,-0.6926,-0.6926,-0.6953,-0.7021,-0.7366,-0.7808,-0.835,-0.8364,-0.8758,-0.9435,-0.9539,-0.9497,0.0,0.0,-0.9683,-0.9618,0.0,-0.9861,-0.9822,-1.0186,-1.0412,-1.0509,-1.0726,-1.0738,-1.0547,-1.0179,-0.9866,-0.9717,-0.9415,-0.9388,0.0,-0.9089,-0.9015,0.0,-0.8825,-0.8832,-0.8927,-0.9137,-0.9327,-0.9483,-0.9544,-0.9544,-0.9537,-0.9537,-0.953,-0.9511,0.0,-0.9449,0.0,0.0,0.0,0.0,0.0,0.0,0.0,0.0,0.0,0.0,0.0,-2.1483,-2.2382,-2.2859,-2.2859,-2.2859,-2.2859,-2.3006,-2.3157,-2.3488,-2.3859,-2.408,-2.4327,-2.4461,-2.4636,-2.4636,-2.4636,-2.4636,-2.4636,-2.4636,-2.4636,-2.4636,-2.4811,-2.4985,-2.5133,-2.4972,-2.4985,-2.5093,-0.8208,-0.8216,-0.8224,-0.8224,-0.8349,-0.8329,-0.8326,0.0,-0.8385,0.0,-0.8404,-0.8499,-0.8506,-0.8635,-0.8723,-0.8723,-0.8852,-0.8879,-0.873,-0.8581,0.0,0.0,-0.8377,-0.8194,-0.8479,0.0,0.0,-0.7177,-0.7027,-0.6953,-0.6953,-0.6946,-0.7014,-0.7149,-0.7299,-0.7624,-0.8058,-0.8357,-0.875,-0.9205,-0.9503,-0.9618,-0.9625,-0.9768,-0.9734,-0.9632,-0.9768,-0.9822,-0.9822,-1.0186,-1.055,-1.0785,-1.0785,-1.1027,-1.1148,-1.0543,-1.0308,-1.0151,-0.9779,-0.9618,-0.9551,-0.9252,-0.9171,0.0,0.0,0.0,-0.9259,-0.9557,-0.9632,-0.9768,-1.0175,-1.0012,-0.9822,-0.9815,-0.9571,-0.9408,-0.9252,-0.9442,-0.9703,0.0,0.0,0.0,0.0,0.0,0.0,0.0,0.0,-1.6433,0.0,-2.0424,-2.1171,-2.2709,-2.2859,-2.2859,-2.2859,-2.3233,-2.3413,-2.3804,-2.4131,-2.4273,-2.4636,-2.4636,-2.4636,-2.4636,-2.4636,-2.4636,-2.4636,-2.4636,-2.4636,-2.4636,-2.4636,-2.4851,-2.5228,-2.5404,-2.5741,-2.6015,-0.8462,-0.8496,-0.8574,-0.8574,-0.823,-0.8057,0.0,0.0,0.0,0.0,-0.856,-0.8696,-0.8811,-0.8859,-0.8879,-0.8879,-0.8913,0.0,0.0,0.0,0.0,-0.8927,-0.8574,-0.8404,-0.8479,-0.8119,0.0,-0.7638,-0.738,-0.7258,-0.7251,-0.7143,-0.7102,-0.7149,-0.7299,-0.7624,-0.8058,-0.8357,-0.8872,-0.951,-0.9693,-0.97,-0.9625,0.0,-0.9734,-0.9632,-0.9768,-0.9822,-0.9822,-0.9943,-1.0186,-1.0422,-1.0422,-1.0671,-1.0906,-1.0429,-1.0308,-1.0172,-0.9895,-0.9768,-0.972,-0.9537,-0.9408,-0.934,0.0,0.0,0.0,0.0,0.0,0.0,0.0,-0.9802,-0.9788,-0.968,-0.9628,-0.9552,-0.9696,0.0,0.0,-0.9801,0.0,0.0,0.0,0.0,0.0,0.0,0.0,0.0,-1.6442,0.0,-2.0251,-2.086,-2.2232,-2.2859,-2.2859,-2.3131,-2.3433,-2.3804,-2.4071,-2.4329,-2.4636,-2.4636,-2.4636,-2.4636,-2.4636,-2.4636,-2.4636,-2.4636,-2.4636,-2.4636,-2.4811,-2.5335,-2.5763,-2.5581,-2.5763,-2.5972,-0.8458,-0.866,-0.8729,-0.8634,-0.8355,-0.819,-0.8265,-0.8167,0.0,-0.8438,-0.8615,0.0,-0.8832,-0.8899,-0.894,-0.894,-0.894,0.0,-0.8845,0.0,0.0,-0.8838,-0.8737,-0.8682,-0.8682,-0.8452,0.0,-0.8011,-0.7712,-0.7495,-0.7366,-0.721,-0.7143,-0.7143,-0.7231,-0.7522,-0.7977,-0.854,-0.9062,-0.953,-0.9734,-0.9774,0.0,-0.9788,-0.9774,-0.9713,-0.9795,-0.9822,-0.9822,-0.9822,-1.0065,-1.0308,-1.0186,-1.0429,-1.0671,-1.0186,-1.0186,-1.0186,-0.9943,-0.9822,-0.9815,-0.9802,-0.9734,-0.9693,-0.9781,-0.9802,-0.9842,0.0,-1.0107,-1.0161,0.0,0.0,-0.9754,-0.9544,-0.9544,-0.9585,0.0,0.0,0.0,0.0,-0.9822,0.0,0.0,0.0,0.0,0.0,0.0,0.0,0.0,0.0,-1.7972,-1.8765,-2.0102,-2.1021,-2.1632,-2.2382,-2.301,-2.3804,-2.3419,-2.3806,-2.4636,-2.3819,-2.3966,-2.4636,-2.4636,-2.4636,-2.4636,-2.4636,-2.4649,-2.4864,-2.5375,-2.5644,-2.603,-2.5859,-2.603,-2.6201,-0.8467,-0.8714,-0.8848,-0.8653,-0.8477,-0.8378,0.0,-0.8323,0.0,-0.8492,0.0,-0.8743,-0.8743,-0.8859,-0.894,-0.894,0.0,-0.8879,-0.875,-0.8866,-0.8879,-0.8743,-0.8866,-0.894,-0.894,-0.8791,-0.8567,0.0,-0.7963,-0.7658,-0.7366,-0.721,-0.7143,-0.7143,-0.7163,-0.7455,-0.7984,-0.8784,-0.9245,-0.9462,-0.972,-0.9822,-0.9822,-0.9822,-0.9822,-0.9822,-0.9822,-0.9822,-0.9822,-0.9822,-0.9943,-1.0186,-0.9943,-1.0186,-1.0543,-0.9943,-1.0065,-1.0186,-0.9842,-0.9849,-0.989,-1.0039,-1.0066,-1.0059,-1.01,-1.0093,-1.0127,-1.0304,-1.0229,-1.0243,-1.0595,0.0,-0.9747,-0.9552,-0.9506,0.0,0.0,0.0,0.0,0.0,0.0,0.0,0.0,0.0,0.0,0.0,0.0,0.0,0.0,0.0,-1.5328,-1.6807,-1.7537,-1.8484,-1.9808,-2.097,-2.216,-2.31,-2.2369,-2.2695,-2.3922,-2.2695,-2.2978,-2.4301,-2.4475,-2.4636,-2.4636,-2.4636,-2.4891,-2.531,-2.5816,-2.603,-2.603,-2.6373,-2.6386,-2.6386,-0.8577,-0.8674,-0.8693,-0.8693,-0.8519,-0.8412,-0.8659,-0.8506,-0.8499,-0.8648,-0.8804,-0.8899,-0.8899,-0.892,-0.894,-0.894,-0.894,0.0,0.0,0.0,0.0,-0.8899,-0.8927,-0.894,-0.894,-0.8791,-0.8567,0.0,-0.7963,-0.7658,-0.7366,-0.721,-0.7143,-0.7143,-0.7272,-0.7787,-0.8574,-0.8859,-0.9273,-0.9747,-0.9802,-0.9822,-0.9822,-0.9822,-0.9822,-0.9822,-0.9822,-0.9822,-0.9822,-0.9822,-0.9822,-0.9822,-0.9822,-0.9943,-0.9943,-0.9822,-0.9822,-0.9849,-0.9971,-1.0012,-1.0046,-1.0202,-1.0141,-1.0114,-1.0358,-1.0324,-1.0317,-1.0588,-1.0622,-1.0555,-1.0385,0.0,0.0,0.0,0.0,0.0,0.0,0.0,0.0,0.0,0.0,0.0,0.0,0.0,0.0,0.0,0.0,0.0,0.0,0.0,-1.4416,0.0,-1.6453,-1.7524,0.0,0.0,-2.0075,-1.9165,-2.0932,-2.1107,-2.0201,-2.1566,-2.2325,-2.2657,-2.3979,-2.4636,-2.4636,-2.4972,-2.5375,-2.5923,-2.5951,-2.6201,-2.6386,-2.6386,-2.6386,-2.6386,-0.8743,-0.8801,-0.8799,0.0,0.0,0.0,0.0,-0.8716,-0.8716,-0.871,-0.8777,-0.8818,-0.8818,-0.8893,-0.894,-0.894,-0.894,-0.894,-0.894,-0.894,-0.894,-0.894,-0.894,-0.894,-0.894,-0.8866,-0.8642,-0.8269,0.0,-0.774,-0.7366,-0.721,-0.7143,-0.7156,-0.7543,-0.7957,-0.8397,-0.894,-0.9334,-0.9605,-0.9761,-0.9822,-0.9822,-0.9822,-0.9869,-0.9937,-0.9937,-0.9992,-1.0046,-0.9964,-0.9992,-1.0046,-0.9964,-0.9937,-0.9924,-0.9842,-0.9822,-0.9836,-0.991,-0.993,-0.9964,-1.012,-1.0107,-1.0107,-1.0331,-1.0385,-1.0432,-1.0575,-1.0663,-1.0629,-1.0337,-1.0222,0.0,0.0,0.0,0.0,0.0,0.0,0.0,0.0,0.0,0.0,0.0,0.0,0.0,0.0,0.0,0.0,0.0,0.0,-1.2661,0.0,0.0,0.0,-1.5869,0.0,-1.8047,-1.7941,-1.8481,-1.9008,-1.9183,-1.9281,-2.0314,-2.1993,-2.2978,-2.3806,-2.4528,-2.5291,-2.571,-2.603,-2.6201,-2.6215,-2.6215,-2.5319,-2.5021,-2.5261,-0.8737,-0.8786,-0.8815,-0.885,-0.8742,-0.8723,-0.8757,-0.8859,-0.8893,-0.8777,-0.8757,-0.8757,-0.8757,-0.8866,-0.894,-0.894,-0.894,-0.894,-0.894,-0.894,-0.894,-0.894,-0.894,-0.894,-0.894,-0.894,-0.8737,0.0,0.0,-0.7841,-0.7461,-0.7244,-0.719,-0.7305,-0.7814,-0.8126,-0.8323,-0.9035,-0.9388,-0.9496,-0.9727,-0.9842,-0.9869,-0.9869,-0.9964,-1.01,-1.01,-1.0195,-1.0304,-1.0181,-1.0181,-1.0209,-1.0086,-1.0025,-0.9978,-0.9856,-0.9822,-0.9829,-0.9863,-0.9869,-0.991,-1.0059,-1.0073,-1.0093,-1.0243,-1.0344,-1.0405,-1.0439,-1.0568,-1.0602,-1.0371,-1.0351,0.0,0.0,0.0,0.0,0.0,0.0,0.0,0.0,0.0,0.0,0.0,0.0,0.0,0.0,0.0,0.0,-1.1143,0.0,0.0,0.0,0.0,-1.2805,-1.3858,0.0,-1.6054,-1.6729,-1.623,-1.6662,-1.7904,-1.7069,-1.8006,-2.0545,-2.1609,-2.3154,-2.4913,-2.566,-2.603,-2.603,-2.5859,-2.5846,-2.5674,-2.3903,-2.3258,-2.3376,-0.8392,-0.8501,-0.8526,-0.8669,0.0,-0.8757,-0.8899,-0.8927,-0.8933,-0.892,-0.892,-0.892,-0.892,-0.8927,-0.894,-0.894,-0.894,-0.894,-0.894,-0.894,-0.894,-0.894,-0.894,-0.894,-0.894,-0.894,-0.8784,0.0,0.0,-0.7943,-0.776,-0.7339,-0.736,-0.7753,-0.795,-0.8418,0.0,-0.9137,-0.9408,-0.9781,-0.9808,-0.9903,-1.0025,-1.0025,-1.0127,-1.0256,-1.0256,-1.0351,-1.0473,-1.0453,-1.0283,-1.0066,-1.0053,-0.9958,-0.9842,-0.9822,-0.9822,-0.9849,-0.9992,-1.0025,-1.0066,-1.0222,-1.0154,-1.0093,-1.0243,-1.0181,-1.0134,-1.027,-1.0412,-1.0507,-1.048,-1.0582,-1.0568,0.0,0.0,0.0,0.0,0.0,-1.0174,-1.0313,0.0,0.0,0.0,-0.9958,0.0,0.0,-1.0942,0.0,0.0,0.0,0.0,-1.1619,-1.1476,-1.1619,-1.2065,-1.377,-1.3956,-1.2783,-1.4732,-1.4911,-1.3767,-1.5479,-1.6392,-1.6824,-2.0425,-2.3516,-2.5872,-2.599,-2.6201,-2.6215,-2.461,-2.4074,-2.3903,-2.2156,-2.1501,-2.1445,-0.8669,-0.8642,-0.8669,-0.8818,-0.8771,-0.8764,0.0,-0.894,-0.894,-0.894,-0.894,-0.894,-0.894,-0.894,-0.894,-0.894,-0.894,-0.894,-0.894,-0.894,-0.894,-0.894,-0.894,-0.894,-0.894,-0.894,-0.8832,0.0,0.0,-0.8099,-0.7943,-0.7672,-0.774,-0.8106,-0.852,-0.8872,-0.9171,-0.9442,-0.9659,-0.9829,-0.9924,-0.9992,-1.0059,-1.0154,-1.0283,-1.0405,-1.0405,-1.05,-1.0629,-1.0629,-1.0487,-1.0304,-1.0215,-1.008,-0.9937,-0.9849,-0.9822,-0.9836,-0.9897,-0.991,-0.9924,-0.9992,-0.9958,-0.993,-0.9992,-1.0025,-1.0066,-1.0127,-1.0331,-1.0521,-1.0609,-1.0602,-1.0507,-1.041,0.0,0.0,0.0,0.0,0.0,-1.0612,0.0,-1.0575,0.0,0.0,0.0,0.0,0.0,0.0,0.0,0.0,0.0,-1.1516,0.0,-1.1619,-1.177,-1.2661,-1.2831,-1.234,-1.3303,-1.3465,-1.3141,-1.3913,-1.5033,-1.649,-1.9306,-2.119,-2.2507,-2.287,-2.321,-2.321,-2.2507,-2.2214,-2.2011,-2.0262,-1.9692,-1.9512,-0.8933,-0.8886,-0.8872,-0.8981,-0.8913,-0.8859,-0.8927,-0.894,-0.894,-0.894,-0.894,-0.894,-0.894,-0.894,-0.894,-0.894,-0.894,-0.894,-0.894,-0.8981,-0.9001,-0.9001,-0.9042,0.0,-0.9069,-0.9069,-0.9015,-0.8906,-0.8615,-0.8431,-0.8364,-0.8214,-0.8282,-0.8547,-0.9015,-0.9266,-0.9367,-0.9686,-0.9849,-0.9897,-1.0005,-1.01,-1.0188,-1.0304,-1.0432,-1.0561,-1.0561,-1.0629,-1.0717,-1.0717,-1.0588,-1.0412,-1.031,-1.0175,-1.0025,-0.9917,-0.989,-0.989,-0.989,-0.989,-0.9876,-0.9829,-0.9822,-0.9822,-0.9822,-0.9903,-0.9992,-1.0039,-1.0256,-1.0473,-1.0622,-1.0602,-1.0568,-1.0588,0.0,0.0,0.0,-1.0765,0.0,-1.083,-1.0842,-1.0862,-1.0921,-1.0676,0.0,0.0,0.0,0.0,0.0,0.0,0.0,0.0,0.0,0.0,-1.177,-1.1942,-1.2244,-1.234,-1.2501,-1.2663,-1.2979,-1.2979,-1.4213,-1.6397,-1.791,-1.9174,-2.0346,-2.0868,-2.105,-2.121,-2.0687,-2.0424,-2.023,-1.8476,-1.7781,-1.7607,-0.8906,-0.9049,-0.915,-0.915,-0.915,-0.9103,-0.896,-0.894,-0.894,-0.894,-0.894,-0.894,-0.894,-0.894,-0.894,-0.894,-0.894,-0.894,-0.894,-0.9069,-0.915,0.0,0.0,-0.9374,-0.9374,-0.9374,-0.9374,-0.9374,0.0,0.0,-0.9137,-0.8994,-0.9001,-0.915,-0.9306,-0.9537,-0.9815,-0.9822,-0.991,-1.0046,-1.0046,-1.0222,-1.0487,-1.0487,-1.0582,-1.0717,-1.0717,-1.0717,-1.0717,-1.0717,-1.0527,-1.0283,-1.0283,-1.0175,-1.0046,-1.0046,-1.0046,-1.0046,-1.0046,-1.0046,-1.0012,-0.9863,-0.9822,-0.9822,-0.9822,-0.9822,-0.9869,-1.0019,-1.0175,-1.0324,-1.0466,-1.0616,-1.0622,-1.0331,0.0,0.0,0.0,-1.0584,0.0,-1.0556,-1.0091,-1.0109,-1.0798,-1.0431,0.0,0.0,0.0,0.0,0.0,0.0,0.0,-1.1592,-1.1469,0.0,-1.177,-1.2038,-1.2179,-1.234,-1.2501,-1.2501,-1.2501,-1.2663,-1.3973,-1.6146,-1.6319,-1.8018,-2.057,-2.057,-2.092,-2.1095,-1.9338,-1.8641,-1.8467,-1.6732,-1.6048,-1.6048,-0.9232,-0.9279,-0.9306,-0.9306,-0.9218,-0.9137,-0.9089,-0.9001,-0.894,-0.894,-0.894,-0.894,-0.894,-0.894,-0.8981,0.0,-0.9083,-0.913,0.0,-0.9279,-0.9306,-0.9306,-0.9354,-0.9381,-0.9381,-0.9381,-0.9435,-0.9537,0.0,0.0,-0.9157,-0.9211,-0.932,-0.9469,-0.9618,-0.9734,-0.9829,-0.993,-1.0005,-1.0066,-1.027,-1.0405,-1.05,-1.0609,-1.0677,-1.0717,-1.0717,-1.0717,-1.0717,-1.0717,-1.0656,-1.0561,-1.046,-1.0181,-0.989,-0.989,-0.989,-0.989,-0.989,-0.989,-0.9883,-0.9836,-0.9822,-0.9822,-0.9822,-0.9822,-0.9897,-1.0154,-1.0249,-1.0385,-1.0738,-1.0846,-1.088,-1.088,-1.0962,0.0,-1.1171,-1.1107,-1.1175,-1.1175,-1.1034,-1.111,0.0,-1.0993,0.0,0.0,0.0,0.0,0.0,0.0,0.0,0.0,-1.1476,0.0,-1.2065,-1.2052,-1.2185,-1.2501,-1.2501,-1.2501,-1.2663,-1.2817,-1.3324,-1.4253,-1.46,-1.5451,-1.6634,-1.6931,-1.726,-1.7607,-1.7078,-1.6732,-1.6394,-1.5875,-1.5538,-1.5538,-0.9352,-0.951,-0.953,-0.9476,-0.9033,-0.8705,-0.9171,-0.862,-0.8437,-0.8836,-0.8988,-0.9022,-0.9022,-0.9069,-0.9117,-0.915,-0.9205,-0.9279,-0.9374,-0.9435,-0.9469,-0.9469,-0.9517,-0.9544,-0.9544,-0.9544,0.0,-0.9686,-0.9496,-0.9401,-0.9408,-0.9503,-0.9598,-0.9693,-0.9781,-0.9849,-0.991,-1.0012,-1.0114,-1.0229,-1.0419,-1.0527,-1.0588,-1.0683,-1.0717,-1.0717,-1.0717,-1.0717,-1.0717,-1.0717,-1.0683,-1.0616,-1.0521,-1.0222,-0.993,-1.0039,-1.0032,-0.9992,-0.9992,-0.9951,-0.989,-0.9836,-0.9822,-0.9822,-0.9822,-0.9822,-0.991,-1.0215,-1.0283,-1.0419,-1.0867,-1.0948,-1.0995,-1.1138,-1.1303,-1.1317,-1.1358,-1.145,-1.1469,-1.1175,0.0,0.0,0.0,-1.1179,-1.1325,0.0,0.0,0.0,0.0,0.0,0.0,-1.1469,-1.1619,-1.177,-1.2065,-1.2052,-1.2185,-1.2501,-1.2501,-1.2501,-1.267,-1.2896,-1.3044,-1.3231,-1.3576,-1.4088,-1.4592,-1.4878,-1.5365,-1.5711,-1.5711,-1.5703,-1.5365,-1.5216,-1.5058,-1.5224,-0.938,-0.9734,-0.9781,-0.9526,-0.8414,-0.796,-0.8863,-0.7908,-0.7635,-0.8634,-0.9076,-0.9171,-0.9171,-0.9306,-0.934,-0.9198,-0.9313,-0.9401,-0.9408,-0.9544,-0.9625,-0.9625,-0.9747,-0.9822,-0.9822,-0.9822,-0.9822,-0.9822,-0.9822,-0.9822,-0.9822,-0.9822,-0.9822,-0.9822,-0.9829,-0.9917,-1.0053,-1.0073,-1.0236,-1.0493,-1.0507,-1.0595,-1.0717,-1.0717,-1.0717,-1.0717,-1.0717,-1.0717,-1.0717,-1.0717,-1.0622,-1.0507,-1.0507,-1.0317,-1.0148,-1.0392,-1.0358,-1.0249,-1.0249,-1.0141,-0.9998,-0.9856,-0.9829,-0.9842,-0.9849,-0.9856,-0.9937,-1.0236,-1.0304,-1.0446,-1.088,-1.0968,-1.1029,-1.1172,-1.1314,-1.1389,-1.1348,-1.1504,-1.1469,-1.1025,0.0,0.0,-1.1025,-1.1175,-1.1469,0.0,0.0,0.0,0.0,0.0,-1.1325,-1.1619,-1.1619,-1.177,-1.2065,-1.2052,-1.2185,-1.2501,-1.2501,-1.2501,-1.2683,-1.2956,-1.3058,-1.3231,-1.3397,-1.3742,-1.4081,-1.4533,-1.4856,-1.5358,-1.5358,-1.5358,-1.5208,-1.475,-1.46,-1.4592,-0.9647,-0.9795,-0.9444,-0.843,-0.7867,-0.7396,-0.655,-0.6995,-0.7415,-0.7754,-0.8654,-0.9327,-0.9327,-0.9462,-0.9544,-0.9503,-0.9537,-0.9598,-0.9707,-0.9747,-0.9774,-0.9774,-0.9802,-0.9822,-0.9822,-0.9822,-0.9822,-0.9822,-0.9822,-0.9822,-0.9822,-0.9822,-0.9822,-0.9829,-0.9944,-1.0019,-1.0066,-1.029,-1.0426,-1.05,-1.0616,-1.069,-1.0717,-1.0717,-1.0717,-1.0717,-1.0717,-1.0717,-1.0717,-1.0717,-1.0697,-1.0663,-1.0663,-1.0616,-1.0507,-1.0236,-1.0046,-0.993,-0.993,-0.9903,-0.9869,-0.9829,-0.991,-1.0025,-1.0148,-1.0168,-1.0222,-1.0405,-1.0534,-1.0717,-1.105,-1.1206,-1.1335,-1.1491,-1.1545,-1.1558,-1.1552,-1.1592,-1.1619,-1.1469,-1.1469,-1.1469,-1.1469,-1.1469,-1.1476,0.0,0.0,-1.143,-1.1578,-1.1395,-1.1469,-1.1619,-1.1619,-1.177,-1.2065,-1.2052,-1.2185,-1.2501,-1.2501,-1.2663,-1.3,-1.2956,-1.3058,-1.3397,-1.3403,-1.3742,-1.4088,-1.4239,-1.4548,-1.4848,-1.4848,-1.4706,-1.4405,-1.4253,-1.4253,-1.4253,-0.8958,-0.8958,-0.8714,-0.7978,-0.6831,-0.5782,-0.5655,-0.5667,-0.6116,-0.7231,-0.8061,-0.8772,-0.9365,-0.9618,-0.9707,-0.9707,-0.9707,-0.9741,-0.9815,-0.9822,-0.9822,-0.9822,-0.9822,-0.9822,-0.9822,-0.9822,-0.9822,-0.9822,-0.9822,-0.9856,-0.9924,-0.9856,-0.9897,-1.0032,-1.0046,-1.0127,-1.0263,-1.0426,-1.0534,-1.0602,-1.0683,-1.0717,-1.0717,-1.0717,-1.0717,-1.0717,-1.0717,-1.0717,-1.0717,-1.0717,-1.0717,-1.0717,-1.0717,-1.0717,-1.067,-1.0426,-1.0202,-1.0012,-0.9944,-0.9924,-0.9944,-1.0012,-1.0093,-1.0175,-1.0263,-1.0283,-1.0337,-1.0555,-1.0663,-1.0833,-1.1199,-1.1335,-1.1443,-1.1592,-1.1619,-1.1619,-1.1619,-1.1619,-1.1619,-1.1619,-1.1619,-1.1619,-1.1619,-1.1619,-1.1619,-1.1619,-1.1462,0.0,-1.1633,-1.1476,-1.1476,-1.1619,-1.1619,-1.177,-1.2065,-1.221,-1.2501,-1.2656,-1.2656,-1.2817,-1.3162,-1.2963,-1.3231,-1.3403,-1.3403,-1.3569,-1.3742,-1.4081,-1.4239,-1.4383,-1.4383,-1.4232,-1.4088,-1.3915,-1.3742,-1.3742,-0.7612,-0.7612,-0.749,-0.7368,-0.5406,-0.4143,-0.4972,-0.4303,-0.4538,-0.6829,-0.7455,-0.8193,-0.952,-0.9747,-0.9822,-0.9822,-0.9822,-0.9822,-0.9822,-0.9822,-0.9822,-0.9822,-0.9822,-0.9822,-0.9822,-0.9822,-0.9822,-0.9822,-0.9822,-0.989,-1.0012,-0.9903,-0.9998,-1.0243,-1.0154,-1.0256,-1.0493,-1.0514,-1.0602,-1.0717,-1.0717,-1.0717,-1.0717,-1.0717,-1.0717,-1.0717,-1.0717,-1.0717,-1.0717,-1.0717,-1.0738,-1.0758,-1.0758,-1.0772,-1.0778,-1.0731,-1.0561,-1.0344,-1.0161,-1.01,-1.012,-1.0276,-1.0331,-1.0351,-1.0378,-1.0399,-1.0487,-1.0738,-1.0806,-1.0934,-1.1321,-1.1409,-1.1463,-1.1565,-1.1606,-1.1613,-1.1586,-1.1606,-1.1619,-1.1619,-1.1619,-1.1619,-1.1619,-1.1619,-1.1619,-1.177,-1.1619,-1.1619,-1.177,-1.1619,-1.1619,-1.1619,-1.1619,-1.1811,-1.2053,-1.256,-1.2704,-1.2637,-1.2793,-1.2908,-1.3162,-1.3125,-1.3231,-1.3403,-1.3403,-1.3403,-1.3403,-1.3915,-1.3915,-1.3915,-1.3915,-1.3915,-1.3915,-1.3569,-1.3403,-1.3403,-0.6263,-0.6263,-0.5896,-0.4671,-0.418,-0.3549,-0.265,-0.3282,-0.4386,-0.5979,-0.7145,-0.832,-0.9667,-0.9808,-0.9822,-0.9822,-0.9822,-0.9822,-0.9822,-0.9822,-0.9822,-0.9822,-0.9822,-0.9822,-0.9822,-0.9822,-0.9822,-0.9822,-0.9822,-0.9836,-0.9856,-0.9964,-1.0039,-1.0093,-1.0324,-1.0446,-1.05,-1.0629,-1.0697,-1.0717,-1.0717,-1.0717,-1.0717,-1.0717,-1.0717,-1.0717,-1.0717,-1.0717,-1.0717,-1.0717,-1.0806,-1.0914,-1.0914,-1.0995,-1.1043,-1.0792,-1.0778,-1.0785,-1.05,-1.0337,-1.0276,-1.0426,-1.0555,-1.0683,-1.0812,-1.0941,-1.1036,-1.1084,-1.1199,-1.1307,-1.1382,-1.1497,-1.1552,-1.1443,-1.1538,-1.1572,-1.1443,-1.1538,-1.1619,-1.1619,-1.1619,-1.1619,-1.1619,-1.1619,-1.1619,-1.1619,-1.1619,-1.1619,-1.1619,-1.1619,-1.1619,-1.1619,-1.1619,-1.171,-1.2046,-1.2454,-1.2752,-1.2755,-1.2919,-1.2996,-1.3162,-1.3125,-1.3231,-1.3403,-1.3403,-1.3403,-1.3403,-1.3403,-1.3569,-1.3569,-1.3569,-1.3569,-1.3569,-1.3403,-1.3403,-1.3403,-0.4916,-0.4794,-0.4671,-0.406,-0.3325,-0.2699,-0.2057,-0.3049,-0.4404,-0.5782,-0.7059,-0.8349,-0.9694,-0.9822,-0.9822,-0.9822,-0.9822,-0.9822,-0.9822,-0.9822,-0.9822,-0.9822,-0.9897,-0.9985,-1.0066,-1.0066,-1.0066,-1.0066,-1.0066,-1.0107,-1.0181,-1.0175,-1.0256,-1.0412,-1.0466,-1.0534,-1.0622,-1.069,-1.0717,-1.0717,-1.0717,-1.0717,-1.0717,-1.0717,-1.0717,-1.0731,-1.0812,-1.0846,-1.0853,-1.0934,-1.1002,-1.1063,-1.1063,-1.1165,-1.126,-1.1118,-1.0846,-1.0588,-1.0609,-1.0507,-1.0432,-1.0575,-1.067,-1.0758,-1.0914,-1.1002,-1.107,-1.1145,-1.1287,-1.1389,-1.1389,-1.1518,-1.1599,-1.1525,-1.1572,-1.1592,-1.1525,-1.1572,-1.1619,-1.1619,-1.1619,-1.1619,-1.1619,-1.1619,-1.1619,-1.1619,-1.1619,-1.1619,-1.1619,-1.1619,-1.1619,-1.1619,-1.177,-1.2052,-1.2179,-1.2663,-1.2807,-1.272,-1.3058,-1.309,-1.3164,-1.3275,-1.3231,-1.3403,-1.3403,-1.3403,-1.3403,-1.3403,-1.3403,-1.3403,-1.3403,-1.3403,-1.3403,-1.3403,-1.3403,-1.3403,-0.3694,-0.3448,-0.3448,-0.3448,-0.259,-0.1969,-0.1945,-0.3058,-0.441,-0.569,-0.7074,-0.8349,-0.9694,-0.9822,-0.9822,-0.9822,-0.9822,-0.9836,-0.9869,-0.9876,-0.9876,-0.9876,-1.0019,-1.0161,-1.0276,-1.0283,-1.0283,-1.0283,-1.0283,-1.0337,-1.0439,-1.0365,-1.0453,-1.0663,-1.0582,-1.0609,-1.0717,-1.0717,-1.0717,-1.0717,-1.0717,-1.0717,-1.0717,-1.0717,-1.0717,-1.0738,-1.0894,-1.0948,-1.0968,-1.1118,-1.1185,-1.1212,-1.1212,-1.1321,-1.1436,-1.1402,-1.0962,-1.0534,-1.0758,-1.0738,-1.0677,-1.0792,-1.0846,-1.0907,-1.1023,-1.1077,-1.1138,-1.1246,-1.1362,-1.1443,-1.1443,-1.1538,-1.1606,-1.1572,-1.1599,-1.1606,-1.1572,-1.1599,-1.1619,-1.1619,-1.1619,-1.1619,-1.1619,-1.1619,-1.1619,-1.1619,-1.1619,-1.1619,-1.1619,-1.1619,-1.1619,-1.1763,-1.1907,-1.2196,-1.2333,-1.2817,-1.2965,-1.2714,-1.309,-1.3261,-1.3231,-1.3231,-1.3231,-1.3403,-1.3403,-1.3403,-1.3403,-1.3403,-1.3403,-1.3403,-1.3403,-1.3403,-1.3403,-1.3403,-1.3403,-1.3403,-0.21,-0.2099,-0.2099,-0.2099,-0.21,-0.1975,-0.1974,-0.3079,-0.4426,-0.5766,-0.7118,-0.8349,-0.9694,-0.9822,-0.9822,-0.9822,-0.9822,-0.9883,-1.0025,-1.0032,-1.0032,-1.0032,-1.0181,-1.027,-1.0283,-1.0283,-1.0283,-1.0283,-1.0283,-1.0283,-1.0297,-1.0419,-1.0487,-1.0514,-1.0643,-1.0711,-1.0717,-1.0717,-1.0717,-1.0717,-1.0717,-1.0717,-1.0717,-1.0717,-1.0717,-1.0738,-1.0894,-1.0948,-1.0968,-1.1118,-1.126,-1.1375,-1.1375,-1.1477,-1.1572,-1.1436,-1.1253,-1.1104,-1.1124,-1.1124,-1.1118,-1.1124,-1.124,-1.1348,-1.1355,-1.147,-1.1572,-1.1586,-1.1592,-1.1599,-1.1599,-1.1613,-1.1572,-1.143,-1.1525,-1.1572,-1.143,-1.1531,-1.1619,-1.1619,-1.1619,-1.1619,-1.1619,-1.1619,-1.1619,-1.1619,-1.1619,-1.1619,-1.1619,-1.1619,-1.177,-1.2065,-1.2149,-1.2139,-1.234,-1.2817,-1.2965,-1.2714,-1.3165,-1.3352,-1.3231,-1.3397,-1.3403,-1.3403,-1.3403,-1.3403,-1.3403,-1.3403,-1.3403,-1.3403,-1.3403,-1.3403,-1.3403,-1.3403,-1.3403,-1.3403,-0.1977,-0.1977,-0.1977,-0.1977,-0.1977,-0.1977,-0.1977,-0.3081,-0.4426,-0.5774,-0.7118,-0.8349,-0.9694,-0.9822,-0.9822,-0.9822,-0.991,-0.9985,-1.0046,-1.0141,-1.0229,-1.0317,-1.0378,-1.046,-1.0555,-1.0555,-1.0555,-1.0555,-1.0555,-1.0555,-1.0555,-1.0609,-1.0636,-1.0636,-1.0697,-1.0717,-1.0717,-1.0717,-1.0717,-1.0717,-1.0717,-1.0717,-1.0731,-1.0826,-1.086,-1.0894,-1.1138,-1.1226,-1.1246,-1.1396,-1.1484,-1.1531,-1.1531,-1.1572,-1.1606,-1.1552,-1.1491,-1.1443,-1.1443,-1.1307,-1.1165,-1.1165,-1.1206,-1.1274,-1.1369,-1.1436,-1.1504,-1.1599,-1.1619,-1.1619,-1.1619,-1.1619,-1.1599,-1.1545,-1.1579,-1.1599,-1.1538,-1.1586,-1.1619,-1.1619,-1.1619,-1.1619,-1.1619,-1.1619,-1.1619,-1.1619,-1.1619,-1.1619,-1.1619,-1.1619,-1.177,-1.2065,-1.2038,-1.2185,-1.2347,-1.2817,-1.2807,-1.2542,-1.3116,-1.331,-1.3058,-1.3231,-1.3403,-1.3403,-1.3403,-1.3403,-1.3403,-1.3403,-1.3403,-1.3403,-1.3403,-1.3403,-1.3403,-1.3403,-1.3403,-1.3403,-0.1977,-0.1977,-0.1977,-0.1977,-0.1977,-0.1977,-0.1977,-0.3081,-0.4426,-0.5774,-0.7118,-0.8349,-0.9694,-0.9863,-0.989,-0.989,-1.0032,-1.0141,-1.0188,-1.0331,-1.0439,-1.0487,-1.0534,-1.0616,-1.0717,-1.0717,-1.0717,-1.0717,-1.0717,-1.0717,-1.0717,-1.0717,-1.0717,-1.0717,-1.0717,-1.0717,-1.0717,-1.0717,-1.0717,-1.0717,-1.0717,-1.0717,-1.0738,-1.0894,-1.0948,-1.0989,-1.1287,-1.1389,-1.1416,-1.1565,-1.1619,-1.1619,-1.1619,-1.1619,-1.1619,-1.1619,-1.1619,-1.1619,-1.1619,-1.1463,-1.1307,-1.1307,-1.1307,-1.1335,-1.1436,-1.1463,-1.1491,-1.1599,-1.1619,-1.1619,-1.1619,-1.1619,-1.1619,-1.1619,-1.1619,-1.1619,-1.1619,-1.1619,-1.1619,-1.1619,-1.1619,-1.1619,-1.1619,-1.1619,-1.1619,-1.1619,-1.1619,-1.1619,-1.1619,-1.1619,-1.177,-1.2065,-1.2038,-1.2185,-1.2501,-1.2824,-1.2807,-1.2542,-1.3116,-1.331,-1.3058,-1.3231,-1.3403,-1.3403,-1.3403,-1.3403,-1.3403,-1.3403,-1.3403,-1.3403,-1.3403,-1.3403,-1.3403,-1.3403,-1.3403,-1.3403,-0.1977,-0.1977,-0.1977,-0.1977,-0.1977,-0.1977,-0.1977,-0.3081,-0.4426,-0.5651,-0.6996,-0.8349,-0.97,-0.9958,-1.0046,-1.0053,-1.0195,-1.0344,-1.0487,-1.0636,-1.0649,-1.05,-1.0636,-1.0717,-1.0717,-1.0717,-1.0717,-1.0717,-1.0717,-1.0717,-1.0717,-1.0717,-1.0717,-1.0717,-1.0717,-1.0717,-1.0717,-1.0717,-1.0717,-1.0717,-1.0717,-1.0717,-1.0738,-1.0894,-1.0948,-1.0989,-1.1287,-1.1396,-1.1416,-1.1565,-1.1619,-1.1619,-1.1619,-1.1619,-1.1619,-1.1619,-1.1619,-1.1619,-1.1619,-1.1619,-1.1619,-1.1619,-1.1619,-1.1619,-1.1619,-1.1619,-1.1619,-1.1619,-1.1619,-1.1619,-1.1619,-1.1619,-1.1619,-1.1619,-1.1619,-1.1619,-1.1619,-1.1619,-1.1619,-1.1619,-1.1619,-1.1619,-1.1619,-1.1619,-1.1619,-1.1619,-1.1619,-1.1619,-1.1619,-1.1619,-1.177,-1.2065,-1.2038,-1.234,-1.2663,-1.2831,-1.2972,-1.2714,-1.3116,-1.331,-1.3058,-1.3231,-1.3403,-1.3403,-1.3403,-1.3403,-1.3403,-1.3403,-1.3403,-1.3403,-1.3403,-1.3403,-1.3403,-1.3403,-1.3403,-1.3403,-0.1977,-0.1992,-0.2,-0.1979,-0.1993,-0.1999,-0.1979,-0.2346,-0.3081,-0.4306,-0.5651,-0.7025,-0.8476,-0.9398,-1.0093,-1.0202,-1.0344,-1.0493,-1.0643,-1.0697,-1.0697,-1.0656,-1.0697,-1.0717,-1.0717,-1.0717,-1.0717,-1.0717,-1.0717,-1.0717,-1.0717,-1.0717,-1.0717,-1.0717,-1.0717,-1.0717,-1.0717,-1.0717,-1.0717,-1.0717,-1.0717,-1.0785,-1.0894,-1.1043,-1.1165,-1.1287,-1.1477,-1.1552,-1.1558,-1.1606,-1.1619,-1.1619,-1.1619,-1.1619,-1.1619,-1.1619,-1.1619,-1.1619,-1.1619,-1.1619,-1.1619,-1.1619,-1.1619,-1.1619,-1.1619,-1.1619,-1.1619,-1.1619,-1.1619,-1.1619,-1.1619,-1.1619,-1.1619,-1.1619,-1.1619,-1.1619,-1.1619,-1.1619,-1.1619,-1.1619,-1.1619,-1.1619,-1.1619,-1.1619,-1.1619,-1.1619,-1.1619,-1.1619,-1.177,-1.1619,-1.177,-1.2065,-1.2038,-1.234,-1.2979,-1.2922,-1.2886,-1.2714,-1.3116,-1.331,-1.3058,-1.3231,-1.3403,-1.3403,-1.3403,-1.3403,-1.3403,-1.3403,-1.3403,-1.3403,-1.3403,-1.3403,-1.3403,-1.3403,-1.3403,-1.3403,-0.1977,-0.199,-0.1996,-0.1979,-0.199,-0.1996,-0.1979,-0.1977,-0.2474,-0.3722,-0.4589,-0.5737,-0.7088,-0.8534,-0.9367,-0.9582,-1.0234,-1.0622,-1.0717,-1.0717,-1.0717,-1.0717,-1.0717,-1.0717,-1.0717,-1.0717,-1.0717,-1.0717,-1.0717,-1.0717,-1.0717,-1.0717,-1.0717,-1.0717,-1.0717,-1.0717,-1.0717,-1.0717,-1.0717,-1.0724,-1.0785,-1.0867,-1.0968,-1.1179,-1.1307,-1.1409,-1.1565,-1.1619,-1.1619,-1.1619,-1.1619,-1.1619,-1.1619,-1.1619,-1.1619,-1.1619,-1.1619,-1.1619,-1.1619,-1.1619,-1.1619,-1.1619,-1.1619,-1.1619,-1.1619,-1.1619,-1.1619,-1.1619,-1.1619,-1.1619,-1.1619,-1.1619,-1.1619,-1.1619,-1.1619,-1.1619,-1.1619,-1.1619,-1.1619,-1.1619,-1.1619,-1.1619,-1.1619,-1.1619,-1.1619,-1.1619,-1.1537,-1.171,-1.1777,-1.1619,-1.177,-1.2065,-1.2038,-1.2347,-1.2979,-1.2936,-1.2893,-1.288,-1.3275,-1.331,-1.3058,-1.3231,-1.3403,-1.3403,-1.3403,-1.3403,-1.3403,-1.3403,-1.3403,-1.3403,-1.3403,-1.3403,-1.3403,-1.3403,-1.3403,-1.3403,-0.1977,-0.1978,-0.1979,-0.1977,-0.1978,-0.1979,-0.1977,-0.1978,-0.2486,-0.3645,-0.3907,-0.4437,-0.5657,-0.7428,-0.841,-0.8421,-0.9845,-1.0717,-1.0717,-1.0717,-1.0717,-1.0717,-1.0717,-1.0717,-1.0717,-1.0717,-1.0717,-1.0717,-1.0717,-1.0717,-1.0717,-1.0717,-1.0717,-1.0717,-1.0717,-1.0717,-1.0717,-1.0717,-1.0717,-1.0731,-1.0887,-1.0955,-1.0995,-1.128,-1.1402,-1.143,-1.1572,-1.1619,-1.1619,-1.1619,-1.1619,-1.1619,-1.1619,-1.1619,-1.1619,-1.1619,-1.1619,-1.1619,-1.1619,-1.1619,-1.1619,-1.1619,-1.1619,-1.1619,-1.1619,-1.1619,-1.1619,-1.1619,-1.1619,-1.1619,-1.1619,-1.1619,-1.1619,-1.1619,-1.1619,-1.1619,-1.1619,-1.1619,-1.1619,-1.1619,-1.1619,-1.1619,-1.1619,-1.1619,-1.1619,-1.1619,-1.1652,-1.1566,-1.1647,-1.1619,-1.177,-1.2065,-1.2038,-1.2347,-1.2979,-1.2936,-1.3058,-1.3052,-1.3282,-1.331,-1.3058,-1.3231,-1.3403,-1.3403,-1.3403,-1.3403,-1.3403,-1.3403,-1.3403,-1.3403,-1.3403,-1.3403,-1.3403,-1.3403,-1.3403,-1.341,-0.1977,-0.1994,-0.2003,-0.1981,-0.1994,-0.2003,-0.1979,-0.1994,-0.2136,-0.2394,-0.3309,-0.4123,-0.4574,-0.6949,-0.8437,-0.853,-0.9896,-1.0717,-1.0717,-1.0717,-1.0717,-1.0717,-1.0717,-1.0717,-1.0717,-1.0717,-1.0717,-1.0717,-1.0717,-1.0717,-1.0717,-1.0717,-1.0717,-1.0717,-1.0717,-1.0717,-1.0717,-1.0717,-1.0717,-1.0731,-1.0887,-1.1016,-1.1138,-1.1321,-1.1463,-1.1572,-1.1606,-1.1619,-1.1619,-1.1619,-1.1619,-1.1619,-1.1619,-1.1619,-1.1619,-1.1619,-1.1619,-1.1619,-1.1619,-1.1619,-1.1619,-1.1619,-1.1619,-1.1619,-1.1619,-1.1619,-1.1619,-1.1619,-1.1619,-1.1619,-1.1619,-1.1619,-1.1619,-1.1619,-1.1619,-1.1619,-1.1619,-1.1619,-1.1619,-1.1619,-1.1619,-1.1619,-1.1619,-1.1619,-1.1619,-1.177,-1.1742,-1.1755,-1.1777,-1.1914,-1.2065,-1.2065,-1.2196,-1.2347,-1.2817,-1.2929,-1.3058,-1.3052,-1.3282,-1.331,-1.3058,-1.3231,-1.3403,-1.3403,-1.3403,-1.3403,-1.3403,-1.3403,-1.3403,-1.3403,-1.3403,-1.3403,-1.3403,-1.3403,-1.3403,-1.3638,-0.1977,-0.1989,-0.1993,-0.1979,-0.2,-0.2014,-0.1999,-0.2022,-0.2045,-0.206,-0.2723,-0.3402,-0.4245,-0.6237,-0.7979,-0.9504,-1.0319,-1.0717,-1.0717,-1.0717,-1.0717,-1.0717,-1.0717,-1.0717,-1.0717,-1.0717,-1.0717,-1.0717,-1.0717,-1.0717,-1.0717,-1.0717,-1.0717,-1.0717,-1.0717,-1.0717,-1.0717,-1.0717,-1.0765,-1.0839,-1.0989,-1.1138,-1.1287,-1.1443,-1.1552,-1.1619,-1.1619,-1.1619,-1.1619,-1.1619,-1.1619,-1.1619,-1.1619,-1.1619,-1.1619,-1.1619,-1.1619,-1.1619,-1.1619,-1.1619,-1.1619,-1.1619,-1.1619,-1.1619,-1.1619,-1.1619,-1.1619,-1.1619,-1.1619,-1.1619,-1.1619,-1.1619,-1.1619,-1.1619,-1.1619,-1.1619,-1.1619,-1.1619,-1.1619,-1.1619,-1.1619,-1.1619,-1.1619,-1.1619,-1.1619,-1.1763,-1.177,-1.1742,-1.1716,-1.1928,-1.2053,-1.2033,-1.2186,-1.2501,-1.2663,-1.2972,-1.295,-1.288,-1.3275,-1.331,-1.3058,-1.3231,-1.3403,-1.3403,-1.3403,-1.3403,-1.3403,-1.3403,-1.3403,-1.3403,-1.3403,-1.3403,-1.3403,-1.3403,-1.358,-1.37,-0.1977,-0.1981,-0.1984,-0.1984,-0.2007,-0.2026,-0.2026,-0.2052,-0.208,-0.2106,-0.2114,-0.2524,-0.3761,-0.5366,-0.7503,-1.0452,-1.0717,-1.0717,-1.0717,-1.0717,-1.0717,-1.0717,-1.0717,-1.0717,-1.0717,-1.0717,-1.0717,-1.0717,-1.0717,-1.0717,-1.0717,-1.0717,-1.0717,-1.0717,-1.0717,-1.0717,-1.0717,-1.0717,-1.0806,-1.0962,-1.1104,-1.1253,-1.1409,-1.1558,-1.1619,-1.1619,-1.1619,-1.1619,-1.1619,-1.1619,-1.1619,-1.1619,-1.1619,-1.1619,-1.1619,-1.1619,-1.1619,-1.1619,-1.1619,-1.1619,-1.1619,-1.1619,-1.1619,-1.1619,-1.1619,-1.1619,-1.1619,-1.1619,-1.1619,-1.1619,-1.1619,-1.1619,-1.1619,-1.1619,-1.1619,-1.1619,-1.1619,-1.1619,-1.1619,-1.1619,-1.1619,-1.1619,-1.1619,-1.1619,-1.1619,-1.1619,-1.177,-1.1724,-1.1676,-1.1938,-1.2192,-1.2165,-1.2185,-1.2501,-1.2663,-1.2824,-1.2807,-1.2707,-1.3116,-1.3303,-1.3058,-1.3231,-1.3403,-1.3403,-1.3403,-1.3403,-1.3403,-1.3403,-1.3403,-1.3403,-1.3403,-1.3403,-1.3403,-1.3403,-1.3606,-1.3755,-0.1977,-0.1996,-0.2012,-0.2012,-0.2038,-0.2057,-0.2057,-0.2083,-0.2105,-0.2109,-0.2132,-0.2284,-0.2423,-0.483,-0.7503,-1.0452,-1.0717,-1.0717,-1.0717,-1.0717,-1.0717,-1.0717,-1.0717,-1.0717,-1.0717,-1.0717,-1.0717,-1.0717,-1.0717,-1.0717,-1.0717,-1.0717,-1.0717,-1.0717,-1.0717,-1.0717,-1.0717,-1.0717,-1.0806,-1.0962,-1.1104,-1.1253,-1.1409,-1.1558,-1.1619,-1.1619,-1.1619,-1.1619,-1.1619,-1.1619,-1.1619,-1.1619,-1.1619,-1.1619,-1.1619,-1.1619,-1.1619,-1.1619,-1.1619,-1.1619,-1.1619,-1.1619,-1.1619,-1.1619,-1.1619,-1.1619,-1.1619,-1.1619,-1.1619,-1.1619,-1.1619,-1.1619,-1.1619,-1.1619,-1.1619,-1.1619,-1.1619,-1.1619,-1.1619,-1.1619,-1.1619,-1.1619,-1.1619,-1.1619,-1.1619,-1.1619,-1.177,-1.173,-1.1831,-1.2093,-1.2199,-1.232,-1.2347,-1.2501,-1.2501,-1.2663,-1.2641,-1.2542,-1.2951,-1.3144,-1.3058,-1.3231,-1.3403,-1.3403,-1.3403,-1.3403,-1.3403,-1.3403,-1.3403,-1.3403,-1.3403,-1.3403,-1.3403,-1.3742,-1.3783,-1.3932,-0.2022,-0.2035,-0.2044,-0.2044,-0.2069,-0.209,-0.209,-0.2116,-0.2135,-0.2135,-0.2146,-0.2558,-0.3228,-0.59,-0.844,-1.0585,-1.0717,-1.0717,-1.0717,-1.0717,-1.0717,-1.0717,-1.0717,-1.0717,-1.0717,-1.0717,-1.0717,-1.0717,-1.0717,-1.0717,-1.0717,-1.0717,-1.0717,-1.0717,-1.0717,-1.0765,-1.0846,-1.0846,-1.0982,-1.1199,-1.1267,-1.1382,-1.1525,-1.1592,-1.1619,-1.1619,-1.1619,-1.1619,-1.1619,-1.1619,-1.1619,-1.1619,-1.1619,-1.1619,-1.1619,-1.1619,-1.1619,-1.1619,-1.1619,-1.1619,-1.1619,-1.1619,-1.1619,-1.1619,-1.1619,-1.1619,-1.1619,-1.1619,-1.1619,-1.1619,-1.1619,-1.1619,-1.1619,-1.1619,-1.1619,-1.1619,-1.1619,-1.1619,-1.1619,-1.1619,-1.1619,-1.1619,-1.1619,-1.1619,-1.1619,-1.1619,-1.177,-1.1735,-1.1844,-1.2074,-1.2237,-1.2333,-1.2501,-1.2501,-1.2501,-1.2663,-1.2637,-1.2569,-1.295,-1.3144,-1.3058,-1.3231,-1.3403,-1.3403,-1.3403,-1.3403,-1.3403,-1.3403,-1.3403,-1.3403,-1.3403,-1.3403,-1.3569,-1.3742,-1.3954,-1.3938]}]]